     2              OBSERVATION DATA    GPS                 RINEX VERSION / TYPE
TRRINEXO-V2.3.4-LH UCLA/SCEC 29-JUL-1994                    PGM / RUN BY / DATE
                                                            COMMENT
BIT 2 OF LLI (+4) FLAGS DATA COLLECTED UNDER "AS" CONDITION COMMENT
BIT 2 OF LLI (+4) FLAGS DATA COLLECTED UNDER "AS" CONDITION COMMENT
BIT 2 OF LLI (+4) FLAGS DATA COLLECTED UNDER "AS" CONDITION COMMENT
Original Marker Name: HPGN 0805 KRAMER 1990                 COMMENT
Campaign Name: NGS reobservation 93-94                      COMMENT
4-Character Station Name: 0805                              COMMENT
6-Character Antenna Code: TRMSST                            COMMENT
Vertical Measurement Point: BGP                             COMMENT
Vertical Offset to Rinex Ref. Point: 0.0597                 COMMENT
Radial Measurement Point: NGP                               COMMENT
Radial Offset to Rinex Ref. Point: 0.2334                   COMMENT
Antenna Height from Field Measurement: 1.5460 m             COMMENT
Original XYZ: -2417538.6997 -4638298.2206 3638924.2398      COMMENT
New XYZ position is based on association with SCEC monument COMMENT
E1F2O3G2+0011. Position of that monument is believed to be  COMMENT
valid to within 1 m horizontally; vertical accuracy         COMMENT
should be no worse than 3-times this value.                 COMMENT
                                                            COMMENT
Revised Rinex header created by UCSD GPS archive for        COMMENT
GSAC on 19-Apr-1999 (1999:109) 04:38:30 GMT                 COMMENT
For assistance contact dagnew@ucsd.edu or hjohnson@ucsd.edu COMMENT
                                                            COMMENT
HPGN 0805 KRAMER 1990                                       MARKER NAME
E. DUVALL NATIONAL GEODETIC SURVEY                          OBSERVER / AGENCY
1552 TRIMBLE 4000 SSE 5.66                                  REC # / TYPE / VERS
19 TR 4000SST L1/L2 GEO                                     ANT # / TYPE
 -2417567.0000 -4638336.0000  3638932.0000                  APPROX POSITION XYZ
        1.4686        0.0000        0.0000                  ANTENNA: DELTA H/E/N
     1     2     0                                          WAVELENGTH FACT L1/2
     3    C1    L1    L2                                    # / TYPES OF OBSERV
    30                                                      INTERVAL
  1994     3    17    18    51   30.000000                  TIME OF FIRST OBS
  1994     3    18     2    52    0.000000                  TIME OF LAST OBS
     0                                                      # OF SATELLITES
                                                            END OF HEADER
 94  3 17 18 51 30.0000000  0  6 31 18 19 27 28 29
  23061325.430      -65784.82116
  20214890.367      -42343.61818    -12496.77919
  21167219.086      -89012.87417    -23966.54319
  22901407.711     -159471.00116    -40785.74719
  23386102.227      -74011.19216    -13885.20319
  21097461.000       61618.40417     15740.29119
 94  3 17 18 52  0.0000000  0  6 31 18 19 27 28 29
  23045013.023     -151507.873 6    -33382.17719
  20210765.570      -64018.690 8    -29386.421 9
  21158441.875     -135137.865 7    -59908.058 9
  22885666.930     -242189.127 6   -105241.358 9
  23378879.320     -111967.595 6    -43461.557 9
  21103562.508       93682.264 7     40725.109 9
 94  3 17 18 52 30.0000000  0  6 31 18 19 27 28 29
  23028735.250     -237046.868 6   -100035.813 9
  20206700.922      -85379.659 8    -46031.309 9
  21149682.594     -181168.169 7    -95775.794 9
  22869923.750     -324918.603 6   -169705.833 9
  23371729.219     -149542.827 6    -72740.905 9
  21109721.789      126047.992 7     65945.137 9
 94  3 17 18 53  0.0000000  0  6 31 18 19 27 28 29
  23012483.805     -322446.840 6   -166581.122 9
  20202688.242     -106465.860 8    -62462.098 9
  21140931.953     -227152.814 7   -131607.954 9
  22854170.867     -407702.350 6   -234212.591 9
  23364644.523     -186774.466 6   -101752.515 9
  21115930.320      158674.371 7     91368.266 9
 94  3 17 18 53 30.0000000  0  6 31 18 19 27 28 29
  22996256.148     -407726.169 6   -233032.453 9
  20198728.141     -127275.352 8    -78677.269 9
  21132187.297     -273106.584 8   -167416.064 9
  22838402.906     -490564.029 6   -298780.072 9
  23357621.461     -223680.052 6   -130510.062 9
  21122185.188      191543.106 7    116980.239 9
 94  3 17 18 54  0.0000000  0  6 31 18 19 27 28 29
  22980048.898     -492893.482 6   -299396.471 9
  20194822.023     -147802.666 8    -94672.559 9
  21123448.805     -319025.817 7   -203197.254 9
  22822619.805     -573501.708 6   -363406.780 9
  23350658.188     -260271.183 6   -159022.596 9
  21128483.477      224642.748 7    142772.157 9
 94  3 17 18 54 30.0000000  0  6 31 18 19 27 28 29
  22963870.461     -577912.518 6   -365644.962 9
  20190971.867     -168036.167 8   -110438.910 9
  21114719.930     -364897.236 7   -238941.196 9
  22806827.078     -656491.959 6   -428074.452 9
  23343755.891     -296540.889 6   -187284.661 9
  21134827.492      257979.078 7    168748.498 9
 94  3 17 18 55  0.0000000  0  6 31 18 19 27 28 29
  22947722.297     -662772.678 6   -431769.666 9
  20187176.102     -187983.636 8   -125982.385 9
  21105997.148     -410735.822 7   -274659.553 9
  22791024.867     -739536.019 6   -492784.069 9
  23336914.539     -332494.265 6   -215300.240 9
  21141210.594      291523.443 7    194886.927 9
 94  3 17 18 55 30.0000000  0  6 31 18 19 27 28 29
  22931613.156     -747423.948 6   -497731.593 9
  20183442.617     -207602.590 8   -141269.873 9
  21097286.961     -456508.545 7   -310326.592 9
  22775218.070     -822601.140 6   -557510.088 9
  23330138.273     -368103.333 6   -243047.520 9
  21147639.945      325309.003 7    221213.306 9
 94  3 17 18 56  0.0000000  0  6 31 18 19 27 28 29
  22915550.063     -831835.843 6   -563507.004 9
  20179776.148     -226868.947 8   -156282.608 9
  21088591.766     -502201.255 7   -345931.285 9
  22759414.484     -905649.674 6   -622223.171 9
  23323434.711     -403333.025 6   -270499.205 9
  21154122.102      359370.620 7    247754.781 9
 94  3 17 18 56 30.0000000  0  6 31 18 19 27 28 29
  22899536.625     -915988.848 6   -629080.688 9
  20176179.703     -245770.552 8   -171011.127 9
  21079915.570     -547796.145 7   -381459.754 9
  22743620.266     -988645.874 6   -686895.495 9
  23316810.031     -438144.742 6   -297625.179 9
  21160663.000      393744.423 7    274539.511 9
 94  3 17 18 57  0.0000000  0  6 31 18 19 27 28 29
  22883571.758     -999882.790 6   -694452.485 9
  20172655.727     -264287.652 8   -185440.032 9
  21071264.352     -593258.461 7   -416884.909 9
  22727842.969    -1071556.862 6   -751501.416 9
  23310271.680     -472504.379 6   -324398.877 9
  21167272.508      428477.148 7    301603.921 9
 94  3 17 18 57 30.0000000  0  6 31 18 19 27 28 29
  22867653.055    -1083536.638 6   -759637.207 9
  20169207.656     -282408.156 8   -199559.904 9
  21062640.203     -638578.483 7   -452199.197 9
  22712084.336    -1154369.941 6   -816031.050 9
  23303820.516     -506403.742 6   -350813.935 9
  21173953.523      463585.804 7    328961.261 9
 94  3 17 18 58  0.0000000  0  6 31 18 19 27 28 29
  22851780.039    -1166948.548 6   -824633.412 9
  20165835.930     -300126.611 8   -213366.490 9
  21054049.164     -683724.521 8   -487377.906 9
  22696346.852    -1237071.583 6   -880473.830 9
  23297461.352     -539822.341 6   -376854.369 9
  21180706.422      499071.960 7    356612.779 9
 94  3 17 18 58 30.0000000  0  6 31 18 19 27 28 29
  22835960.500    -1250077.520 6   -889409.130 9
  20162546.227     -317413.210 8   -226836.567 9
  21045498.961     -728656.285 7   -522389.654 9
  22680631.523    -1319655.510 6   -944824.893 9
  23291199.492     -572729.908 6   -402496.604 9
  21187534.078      534951.447 7    384570.772 9
 94  3 17 18 59  0.0000000  0  6 31 18 19 27 28 29
  22820197.625    -1332915.481 6   -953958.087 9
  20159341.289     -334255.192 8   -239960.196 9
  21036988.227     -773380.348 7   -557239.556 9
  22664933.758    -1402147.151 6  -1009104.048 9
  23285030.586     -605144.182 6   -427754.459 9
  21194434.219      571211.395 7    412825.233 9
 94  3 17 18 59 30.0000000  0  6 31 18 19 27 28 29
  22804499.742    -1415408.506 6  -1018238.315 9
  20156226.813     -350622.725 8   -252714.117 9
  21028522.086     -817870.548 7   -591907.223 9
  22649256.211    -1484532.961 6  -1073300.691 9
  23278960.477     -637045.106 6   -452612.297 9
  21201410.641      607871.409 7    441391.434 9
 94  3 17 19  0  0.0000000  0  6 31 18 19 27 28 29
  22788869.609    -1497545.148 6  -1082240.741 9
  20153199.109     -366534.672 8   -265113.046 9
  21020099.414     -862132.584 8   -626397.101 9
  22633595.766    -1566831.343 6  -1137429.300 9
  23272987.742     -668430.870 6   -477068.710 9
  21208461.219      644924.484 7    470263.913 9
 94  3 17 19  0 30.0000000  0  6 31 18 19 27 28 29
  22773318.266    -1579267.299 6  -1145920.240 9
  20150265.938     -381949.190 8   -277124.366 9
  21011723.109     -906150.587 8   -660696.826 9
  22617961.320    -1648987.995 6  -1201447.437 9
  23267120.688     -699264.179 6   -501094.632 9
  21215596.750      682420.409 7    499481.465 9
 94  3 17 19  1  0.0000000  0  6 31 18 19 27 28 29
  22757849.969    -1660551.587 6  -1209258.543 9
  20147431.836     -396842.501 8   -288729.548 9
  21003394.469     -949917.301 7   -694800.740 9
  22602361.234    -1730967.807 6  -1265327.760 9
  23261361.508     -729528.537 6   -524677.235 9
  21222819.688      720377.102 7    529058.057 9
 94  3 17 19  1 30.0000000  0  6 31 18 19 27 28 29
  22742470.555    -1741372.568 6  -1272235.830 9
  20144699.883     -411198.239 8   -299915.844 9
  20995117.273     -993413.615 8   -728693.954 9
  22586799.453    -1812744.973 6  -1329050.192 9
  23255716.094     -759194.864 6   -547793.843 9
  21230132.711      758805.880 7    559002.509 9
 94  3 17 19  2  0.0000000  0  6 31 18 19 27 28 29
  22727181.125    -1821718.256 6  -1334842.752 9
  20142075.359     -424990.393 8   -310662.976 9
  20986892.516    -1036636.621 8   -762374.199 9
  22571279.680    -1894302.037 6  -1392601.106 9
  23250185.594     -788256.240 6   -570439.046 9
  21237535.234      797707.160 7    589315.148 9
 94  3 17 19  2 30.0000000  0  6 31 18 19 27 28 29
  22711985.203    -1901573.170 6  -1397067.263 9
  20139563.445     -438190.403 8   -320948.698 9
  20978720.398    -1079580.598 8   -795837.023 9
  22555805.539    -1975619.538 6  -1455965.345 9
  23244772.469     -816703.003 6   -592605.338 9
  21245032.797      837105.914 7    620015.418 9
 94  3 17 19  3  0.0000000  0  6 31 18 19 27 28 29
  22696881.859    -1980941.217 6  -1458912.392 9
  20137168.867     -450775.212 8   -330755.040 9
  20970606.313    -1122221.214 8   -829063.460 9
  22540377.836    -2056694.075 6  -1519140.254 9
  23239482.289     -844502.688 6   -614267.415 9
  21252627.016      877013.807 7    651112.414 9
 94  3 17 19  3 30.0000000  0  6 31 18 19 27 28 29
  22681872.289    -2059816.424 6  -1520373.491 9
  20134890.891     -462745.456 8   -340082.501 9
  20962552.234    -1164543.975 8   -862042.224 9
  22524998.156    -2137513.198 6  -1582116.163 9
  23234319.234     -871637.221 6   -635411.196 9
  21260320.805      917445.298 7    682617.430 9
 94  3 17 19  4  0.0000000  0  6 31 18 19 27 28 29
  22666953.867    -2138213.220 6  -1581461.816 9
  20132727.805     -474112.785 8   -348940.168 9
  20954557.422    -1206557.879 8   -894780.315 9
  22509667.969    -2218073.922 6  -1644890.711 9
  23229282.719     -898103.662 6   -656034.382 9
  21268113.742      958395.418 7    714526.559 9
 94  3 17 19  4 29.9990000  0  6 31 18 19 27 28 29
  22652132.409    -2216098.981 6  -1642151.918 9
  20130682.136     -484862.457 8   -357316.535 9
  20946626.706    -1248234.042 8   -927255.228 9
  22494393.175    -2298344.552 6  -1707439.209 9
  23224380.706     -923863.205 6   -676106.734 9
  21276009.300      999888.431 7    746858.737 9
 94  3 17 19  4 59.9990000  0  6 31 18 19 27 28 29
  22637412.386    -2293453.095 6  -1702427.769 9
  20128754.651     -494991.541 8   -365209.324 9
  20938766.800    -1289539.217 8   -959441.064 9
  22479172.870    -2378328.522 6  -1769764.337 9
  23219611.979     -948921.469 6   -695632.632 9
  21284007.644     1041920.251 7    779610.740 9
 94  3 17 19  5 29.9990000  0  6 31 18 19 27 28 29
  22622800.073    -2370241.784 6  -1762263.029 9
  20126945.854     -504496.968 8   -372616.148 9
  20930979.823    -1330458.202 8   -991325.973 9
  22464006.245    -2458028.357 6  -1831868.056 9
  23214973.792     -973297.839 6   -714627.189 9
  21292110.409     1084500.183 7    812789.846 9
 94  3 17 19  5 59.9990000  0  6 31 18 19 27 28 29
  22608317.612    -2446348.100 6  -1821566.569 9
  20125279.636     -513253.868 8   -379439.705 9
  20923289.558    -1370871.719 8  -1022817.011 9
  22448912.276    -2537347.430 6  -1893675.082 9
  23210484.784     -996887.307 6   -733008.573 9
  21300340.745     1127749.795 7    846490.766 9
 94  3 17 19  6 29.9990000  0  6 31 18 19 27 28 29
  22593953.683    -2521830.580 6  -1880383.993 9
  20123743.417     -521326.334 8   -385729.941 9
  20915682.964    -1410844.467 8  -1053964.589 9
  22433875.144    -2616370.225 6  -1955251.250 9
  23206131.565    -1019764.001 6   -750834.556 9
  21308686.386     1171606.245 7    880664.559 9
 94  3 17 19  6 59.9990000  0  6 31 18 19 27 28 29
  22579702.659    -2596719.802 6  -1938739.142 9
  20122333.331     -528736.050 8   -391503.749 9
  20908154.792    -1450405.128 8  -1084791.062 9
  22418889.472    -2695118.434 6  -2016613.459 9
  23201911.800    -1041939.309 6   -768114.000 9
  21317143.526     1216047.843 7    915294.303 9
 94  3 17 19  7 29.9990000  0  6 31 18 19 27 28 29
  22565562.917    -2671024.318 6  -1996638.684 9
  20121051.308     -535473.938 8   -396754.061 9
  20900700.948    -1489574.976 8  -1115313.006 9
  22403960.050    -2773573.174 6  -2077746.979 9
  23197831.401    -1063380.640 6   -784821.508 9
  21325713.651     1261083.884 7    950387.267 9
 94  3 17 19  7 59.9990000  0  6 31 18 19 27 28 29
  22551532.479    -2744756.198 6  -2054092.013 9
  20119897.659     -541536.083 8   -401477.817 9
  20893321.183    -1528356.331 8  -1145532.229 9
  22389092.862    -2851698.477 6  -2138623.800 9
  23193897.019    -1084056.029 6   -800932.185 9
  21334396.378     1306711.052 7    985940.847 9
 94  3 17 19  8 29.9990000  0  6 31 18 19 27 28 29
  22537612.753    -2817902.457 6  -2111089.006 9
  20118872.464     -546923.855 8   -405676.088 9
  20886016.620    -1566742.423 8  -1175443.454 9
  22374293.503    -2929470.630 6  -2199225.436 9
  23190110.487    -1103953.746 6   -816436.888 9
  21343189.823     1352921.506 7   1021948.949 9
 94  3 17 19  8 59.9990000  0  6 31 18 19 27 28 29
  22523804.011    -2890468.432 6  -2167633.831 9
  20117974.565     -551641.640 8   -409352.293 9
  20878787.519    -1604731.666 8  -1205045.450 9
  22359561.589    -3006887.387 6  -2259550.142 9
  23186470.409    -1123083.131 6   -831342.880 9
  21352095.167     1399719.074 7   1058414.525 9
 94  3 17 19  9 29.9990000  0  6 31 18 19 27 28 29
  22510109.964    -2962430.866 6  -2223708.384 9
  20117208.409     -555669.092 8   -412490.580 9
  20871637.683    -1642303.299 7  -1234322.043 9
  22344898.214    -3083945.504 6  -2319595.384 9
  23182974.401    -1141454.002 6   -845657.827 9
  21361117.097     1447128.852 7   1095357.156 9
 94  3 17 19  9 59.9990000  0  6 31 18 19 27 28 29
  22496531.651    -3033783.337 6  -2279307.629 9
  20116572.925     -559009.254 8   -415093.315 9
  20864568.440    -1679453.178 8  -1263269.993 9
  22330299.354    -3160661.503 6  -2379374.044 9
  23179619.175    -1159087.346 6   -859398.075 9
  21370255.245     1495150.132 7   1132776.283 9
 94  3 17 19 10 29.9990000  0  6 31 18 19 27 28 29
  22483075.011    -3104499.867 6  -2334411.345 9
  20116071.495     -561643.131 8   -417145.698 9
  20857579.956    -1716177.573 8  -1291886.395 9
  22315762.862    -3237051.701 6  -2438898.839 9
  23176401.542    -1175996.166 6   -872573.761 9
  21379510.854     1543789.078 7   1170676.706 9
 94  3 17 19 10 59.9990000  0  6 31 18 19 27 28 29
  22469739.620    -3174578.129 6  -2389017.713 9
  20115708.425     -563551.827 8   -418633.005 9
  20850672.394    -1752477.174 8  -1320171.790 9
  22301289.019    -3313109.805 6  -2498164.852 9
  23173322.917    -1192174.440 6   -885180.189 9
  21388885.714     1593054.440 7   1209065.250 9
 94  3 17 19 11 29.9990000  0  6 31 18 19 27 28 29
  22456526.269    -3244014.041 6  -2443123.562 9
  20115485.417     -564723.861 8   -419546.286 9
  20843845.761    -1788351.181 8  -1348125.550 9
  22286880.870    -3388827.522 6  -2557165.625 9
  23170385.120    -1207612.605 6   -897209.911 9
  21398377.503     1642933.466 7   1247931.969 9
 94  3 17 19 11 59.9990000  0  6 31 18 19 27 28 29
  22443434.519    -3312811.399 6  -2496731.839 9
  20115398.847     -565177.141 8   -419899.506 9
  20837097.714    -1823811.616 7  -1375757.047 9
  22272537.019    -3464205.488 6  -2615901.664 9
  23167589.886    -1222300.576 6   -908655.075 9
  21407980.315     1693395.535 7   1287253.009 9
 94  3 17 19 12 29.9990000  0  6 31 18 19 27 28 29
  22430466.315    -3380959.066 6  -2549833.866 9
  20115449.823     -564910.420 8   -419691.693 9
  20830429.050    -1858857.393 8  -1403065.436 9
  22258260.112    -3539231.269 6  -2674363.270 9
  23164940.229    -1236226.682 6   -919506.558 9
  21417692.479     1744434.243 7   1327023.373 9
 94  3 17 19 12 59.9990000  0  6 31 18 19 27 28 29
  22417621.003    -3448463.730 6  -2602434.849 9
  20115634.394     -563940.976 8   -418936.296 9
  20823839.519    -1893485.712 8  -1430048.533 9
  22244050.511    -3613900.262 6  -2732546.858 9
  23162438.323    -1249373.584 6   -929750.889 9
  21427517.776     1796066.384 7   1367256.151 9
 94  3 17 19 13 29.9990000  0  6 31 18 19 27 28 29
  22404898.495    -3515318.684 6  -2654529.558 9
  20115948.464     -562290.244 8   -417650.027 9
  20817326.597    -1927710.009 7  -1456716.805 9
  22229907.222    -3688223.605 6  -2790461.119 9
  23160083.792    -1261747.466 6   -939392.867 9
  21437455.628     1848288.961 7   1407949.006 9
 94  3 17 19 13 59.9990000  0  6 31 18 19 27 28 29
  22392301.167    -3581516.457 6  -2706112.190 9
  20116391.198     -559963.876 8   -415837.282 9
  20810890.730    -1961530.823 7  -1483070.671 9
  22215831.581    -3762192.387 6  -2848099.084 9
  23157875.667    -1273351.442 6   -948434.904 9
  21447508.526     1901116.635 7   1449113.357 9
 94  3 17 19 14 29.9990000  0  6 31 18 19 27 28 29
  22379828.144    -3647064.368 6  -2757188.435 9
  20116965.097     -556948.261 8   -413487.459 9
  20804533.776    -1994938.552 7  -1509102.649 9
  22201825.050    -3835798.090 6  -2905454.140 9
  23155813.237    -1284190.768 6   -956881.112 9
  21457682.784     1954582.594 7   1490775.081 9
 94  3 17 19 14 59.9990000  0  6 31 18 19 27 28 29
  22367476.862    -3711970.009 6  -2807764.206 9
  20117671.784     -553234.936 8   -410593.963 9
  20798254.644    -2027934.920 8  -1534814.084 9
  22187886.401    -3909044.145 6  -2962528.946 9
  23153895.370    -1294266.158 6   -964732.058 9
  21467979.198     2008690.707 7   1532937.185 9
 94  3 17 19 15 29.9990000  0  6 31 18 19 27 28 29
  22355249.011    -3776228.642 6  -2857835.819 9
  20118511.714     -548821.035 8   -407154.566 9
  20792054.948    -2060513.504 7  -1560199.976 9
  22174015.815    -3981934.634 6  -3019326.682 9
  23152120.526    -1303592.017 6   -971998.935 9
  21478391.050     2063405.276 7   1575571.851 9
 94  3 17 19 15 59.9990000  0  6 31 18 19 27 28 29
  22343141.300    -3839855.032 6  -2907414.782 9
  20119483.511     -543713.967 8   -403175.038 9
  20785933.448    -2092681.967 7  -1585266.296 9
  22160207.940    -4054495.489 6  -3075867.568 9
  23150487.589    -1312174.743 6   -978686.767 9
  21488913.573     2118700.576 7   1618659.030 9
 94  3 17 19 16 29.9990000  0  6 31 18 19 27 28 29
  22331152.808    -3902855.100 6  -2956505.689 9
  20120583.253     -537935.157 8   -398672.077 9
  20779885.706    -2124463.654 7  -1610031.223 9
  22146454.987    -4126766.929 6  -3132182.938 9
  23148994.440    -1320020.614 6   -984800.428 9
  21499540.198     2174543.635 7   1662173.036 9
 94  3 17 19 16 59.9990000  0  6 31 18 19 27 28 29
  22319286.362    -3965212.940 6  -3005096.170 9
  20121807.269     -531502.566 8   -393659.673 9
  20773910.550    -2155864.682 8  -1634499.533 9
  22132755.854    -4198759.130 6  -3188280.717 9
  23147640.019    -1327137.073 6   -990345.717 9
  21510265.558     2230904.770 7   1706090.733 9
 94  3 17 19 17 29.9990000  0  6 31 18 19 27 28 29
  22307544.886    -4026915.663 6  -3053176.169 9
  20123155.089     -524419.739 8   -388140.596 9
  20768009.464    -2186874.568 8  -1658663.060 9
  22119110.636    -4270464.753 6  -3244155.186 9
  23146425.644    -1333521.100 6   -995320.277 9
  21521092.573     2287799.909 7   1750424.545 9
 94  3 17 19 17 59.9990000  0  6 31 18 19 27 28 29
  22295926.456    -4087968.970 6  -3100750.122 9
  20124627.542     -516682.183 8   -382111.335 9
  20762181.120    -2217502.515 8  -1682528.973 9
  22105518.706    -4341889.761 6  -3299811.008 9
  23145351.769    -1339165.269 6   -999718.335 9
  21532026.597     2345258.696 7   1795197.553 9
 94  3 17 19 18 29.9990000  0  6 31 18 19 27 28 29
  22284432.456    -4148371.191 6  -3147816.738 9
  20126228.276     -508271.105 8   -375557.251 9
  20756427.440    -2247736.381 7  -1706087.815 9
  22091986.011    -4413003.612 6  -3355224.350 9
  23144417.026    -1344075.321 6  -1003544.346 9
  21543069.839     2403291.200 7   1840417.616 9
 94  3 17 19 18 59.9990000  0  6 31 18 19 27 28 29
  22273058.581    -4208138.605 6  -3194388.696 9
  20127958.956     -499174.787 8   -368469.219 9
  20750748.979    -2277577.463 7  -1729340.584 9
  22078517.050    -4483784.416 6  -3410378.186 9
  23143622.229    -1348251.603 6  -1006798.592 9
  21554223.237     2461902.968 7   1886089.054 9
 94  3 17 19 19 29.9990000  0  6 31 18 19 27 28 29
  22261803.644    -4267285.737 6  -3240477.331 9
  20129821.487     -489388.381 8   -360843.459 9
  20745143.573    -2307036.203 7  -1752295.427 9
  22065108.878    -4554244.433 6  -3465282.057 9
  23142967.667    -1351691.433 6  -1009478.985 9
  21565486.589     2521091.255 7   1932209.729 9
 94  3 17 19 19 59.9990000  0  6 31 18 19 27 28 29
  22250668.886    -4325798.435 6  -3286071.594 9
  20131819.003     -478890.207 8   -352663.073 9
  20739613.112    -2336097.425 7  -1774940.518 9
  22051765.214    -4624365.900 6  -3519922.115 9
  23142455.745    -1354380.848 6  -1011574.636 9
  21576859.659     2580858.310 7   1978781.394 9
 94  3 17 19 20 29.9990000  0  6 31 18 19 27 28 29
  22239657.620    -4383662.933 6  -3331160.757 9
  20133951.995     -467681.794 8   -343929.253 9
  20734158.159    -2364762.815 7  -1797277.168 9
  22038489.823    -4694128.607 6  -3574282.623 9
  23142088.526    -1356313.342 6  -1013080.476 9
  21588341.417     2641194.020 7   2025796.172 9
 94  3 17 19 20 59.9990000  0  6 31 18 19 27 28 29
  22228772.042    -4440866.977 6  -3375735.290 9
  20136219.167     -455768.234 8   -334645.971 9
  20728780.823    -2393021.145 7  -1819296.625 9
  22025280.222    -4763544.795 6  -3628373.121 9
  23141868.253    -1357468.762 6  -1013980.792 9
  21599934.776     2702117.881 7   2073269.248 9
 94  3 17 19 21 29.9990000  0  6 31 18 19 27 28 29
  22218014.425    -4497397.878 6  -3419785.278 9
  20138620.026     -443150.285 8   -324813.813 9
  20723482.003    -2420867.035 7  -1840994.699 9
  22012132.198    -4832637.919 6  -3682211.877 9
  23141791.659    -1357873.241 6  -1014295.961 9
  21611640.597     2763631.538 7   2121201.905 9
 94  3 17 19 21 59.9990000  0  6 31 18 19 27 28 29
  22207384.339    -4553260.133 6  -3463314.255 9
  20141152.448     -429842.827 8   -314444.372 9
  20718258.972    -2448313.869 7  -1862381.827 9
  21999044.987    -4901411.914 6  -3735801.965 9
  23141855.167    -1357539.116 6  -1014035.578 9
  21623455.433     2825719.384 7   2169581.978 9
 94  3 17 19 22 29.9990000  0  6 31 18 19 27 28 29
  22196881.987    -4608449.340 6  -3506318.764 9
  20143815.831     -415847.357 8   -303538.819 9
  20713110.909    -2475366.670 7  -1883461.911 9
  21986017.456    -4969871.387 6  -3789146.968 9
  23142059.581    -1356466.299 6  -1013199.593 9
  21635378.878     2888376.920 7   2218405.968 9
 94  3 17 19 22 59.9990000  0  6 31 18 19 27 28 29
  22186506.065    -4662975.615 7  -3548806.702 9
  20146607.558     -401176.931 8   -292107.329 9
  20708035.667    -2502037.209 7  -1904244.131 9
  21973044.128    -5038047.458 6  -3842271.128 9
  23142397.440    -1354687.388 6  -1011813.417 9
  21647407.933     2951591.092 7   2267663.692 9
 94  3 17 19 23 29.9990000  0  7 31  2 18 19 27 28 29
  22176257.823    -4716830.307 7  -3590771.323 9
  24239429.925      -36609.65015
  20149529.690     -385820.825 8   -280141.541 9
  20703033.073    -2528325.878 7  -1924728.793 9
  21960128.823    -5105917.462 7  -3895156.803 9
  23142870.487    -1352201.930 6  -1009876.676 9
  21659540.995     3015348.923 7   2317345.047 9
 94  3 17 19 23 59.9990000  0  7 31  2 18 19 27 28 29
  22166135.823    -4770021.148 7  -3632218.661 9
  24220471.581     -136234.994 5
  20152577.894     -369801.645 8   -267659.063 9
  20698102.456    -2554236.726 7  -1944919.042 9
  21947273.722    -5173470.954 7  -3947795.841 9
  23143481.026    -1348993.529 6  -1007376.610 9
  21671774.198     3079635.279 7   2367438.248 9
 94  3 17 19 24 29.9990000  0  7 31  2 18 19 27 28 29
  22156140.761    -4822543.849 7  -3673145.366 9
  24201579.167     -235516.529 5    -23178.49319
  20155753.128     -353115.347 8   -254656.765 9
  20693245.065    -2579763.334 8  -1964809.891 9
  21934479.089    -5240706.113 7  -4000186.825 9
  23144229.128    -1345062.411 6  -1004313.385 9
  21684110.620     3144464.204 7   2417954.229 9
 94  3 17 19 24 59.9990000  0  7 31  2 18 19 27 28 29
  22146273.659    -4874397.355 7  -3713550.623 9
  24182751.042     -334458.943 5   -100276.385 9
  20159055.698     -335759.520 8   -241132.746 9
  20688461.214    -2604902.184 7  -1984398.592 9
  21921746.675    -5307616.246 7  -4052324.554 9
  23145116.940    -1340397.231 6  -1000678.160 9
  21696551.886     3209842.277 7   2468898.111 9
 94  3 17 19 25 29.9990000  0  7 31  2 18 19 27 28 29
  22136532.847    -4925585.495 7  -3753437.409 9
  24163990.745     -433041.521 5   -177093.867 9
  20162485.534     -317735.101 8   -227087.752 9
  20683751.214    -2629653.312 8  -2003685.173 9
  21909079.019    -5374183.498 7  -4104195.095 9
  23146147.933    -1334977.938 6   -996455.312 9
  21709096.675     3275764.826 7   2520266.269 9
 94  3 17 19 25 59.9990000  0  7 31  2 18 19 27 28 29
  22126917.417    -4976114.561 7  -3792810.626 9
  24145299.511     -531265.911 5   -253632.224 9
  20166039.761     -299058.060 8   -212534.214 9
  20679110.628    -2654039.680 8  -2022687.527 9
  21896472.628    -5440431.505 7  -4155816.881 9
  23147322.058    -1328809.853 6   -991648.983 9
  21721745.308     3342233.423 7   2572059.913 9
 94  3 17 19 26 29.9990000  0  7 31  2 18 19 27 28 29
  22117428.034    -5025982.545 7  -3831668.718 9
  24126673.979     -629140.751 5   -329898.213 9
  20169720.019     -279718.452 8   -197464.385 9
  20674537.854    -2678070.498 8  -2041412.832 9
  21883924.245    -5506375.037 7  -4207201.405 9
  23148637.097    -1321899.720 6   -986264.430 9
  21734497.909     3409248.596 7   2624279.466 9
 94  3 17 19 26 59.9990000  0  7 31  2 18 19 27 28 29
  22108060.612    -5075207.517 7  -3870025.753 9
  24108110.800     -726693.291 5   -405913.065 9
  20173523.784     -259728.905 8   -181888.121 9
  20670030.019    -2701758.106 7  -2059870.695 9
  21871430.073    -5572031.702 7  -4258362.396 9
  23150091.823    -1314254.816 6   -980307.341 9
  21747350.597     3476788.062 7   2676907.554 9
 94  3 17 19 27 29.9990000  0  7 31  2 18 19 27 28 29
  22098815.972    -5123788.950 7  -3907881.331 9
  24089606.409     -823934.092 5   -481684.973 9
  20177450.050     -239097.092 8   -165811.389 9
  20665587.089    -2725106.572 7  -2078064.297 9
  21858986.823    -5637420.442 7  -4309314.614 9
  23151682.519    -1305894.021 6   -973792.413 9
  21760301.050     3544843.508 7   2729937.709 9
 94  3 17 19 27 59.9990000  0  7 31  2 18 19 27 28 29
  22089696.354    -5171709.969 7  -3945222.302 9
  24071156.909     -920882.486 5   -557229.047 9
  20181499.706     -217816.161 8   -149228.853 9
  20661209.636    -2748109.887 8  -2095988.950 9
  21846590.847    -5702562.400 7  -4360074.544 9
  23153408.159    -1296825.920 6   -966726.338 9
  21773348.870     3613410.091 7   2783366.147 9
 94  3 17 19 28 29.9990000  0  7 31  2 18 19 27 28 29
  22080700.690    -5218983.114 7  -3982058.437 9
  24052760.448    -1017556.209 5   -632559.101 9
  20185671.854     -195892.561 8   -132145.544 9
  20656898.831    -2770763.887 8  -2113641.401 9
  21834241.503    -5767458.810 7  -4410643.132 9
  23155265.612    -1287062.429 6   -959118.393 9
  21786489.198     3682464.228 7   2837174.494 9
 94  3 17 19 28 59.9990000  0  7 31  2 18 19 27 28 29
  22071820.409    -5265648.436 7  -4018420.940 9
  24034412.417    -1113975.167 5   -707690.604 9
  20189955.769     -173379.754 8   -114603.103 9
  20652645.433    -2793115.097 8  -2131057.912 9
  21821931.479    -5832148.232 7  -4461050.428 9
  23157247.026    -1276652.864 6   -951007.019 9
  21799713.019     3751953.536 7   2891321.940 9
 94  3 17 19 29 29.9990000  0  7 31  2 18 19 27 28 29
  22063066.456    -5311651.532 7  -4054267.426 9
  24016124.573    -1210078.731 5   -782576.393 9
  20194359.737     -150236.725 8    -96569.588 9
  20648456.128    -2815129.642 8  -2148212.088 9
  21809669.706    -5896583.885 7  -4511259.982 9
  23159355.417    -1265571.624 6   -942372.260 9
  21813026.612     3821918.222 7   2945839.808 9
 94  3 17 19 29 59.9990000  0  7 31  2 18 19 27 28 29
  22054435.323    -5357008.321 7  -4089610.297 9
  23997895.729    -1305873.231 5   -857221.290 9
  20198880.862     -126478.859 8    -78056.982 9
  20644329.440    -2836816.813 8  -2165111.168 9
  21797457.323    -5960760.892 7  -4561267.991 9
  23161591.815    -1253817.625 6   -933213.276 9
  21826430.565     3892355.708 7   3000726.092 9
 94  3 17 19 30 29.9990000  0  7 31  2 18 19 27 28 29
  22045924.003    -5401733.253 7  -4124460.794 9
  23979726.440    -1401351.005 5   -931619.410 9
  20203516.894     -102115.566 8    -59072.612 9
  20640262.987    -2858184.696 8  -2181761.453 9
  21785296.198    -6024668.109 7  -4611065.776 9
  23163954.815    -1241401.929 6   -923538.686 9
  21839925.722     3963273.648 7   3055986.748 9
 94  3 17 19 30 59.9990000  0  7 31  2 18 19 27 28 29
  22037533.214    -5445829.915 7  -4158821.742 9
  23961619.151    -1496511.435 5  -1005770.261 9
  20208267.612      -77151.075 8    -39619.771 9
  20636255.495    -2879244.817 8  -2198171.927 9
  21773184.011    -6088315.731 7  -4660661.284 9
  23166440.839    -1228338.012 6   -913359.000 9
  21853513.276     4034675.934 7   3111624.820 9
 94  3 17 19 31 29.9990000  0  7 31  2 18 19 27 28 29
  22029259.175    -5489307.453 7  -4192700.254 9
  23943565.151    -1591382.204 5  -1079695.355 9
  20213133.003      -51583.263 8    -19696.806 9
  20632305.823    -2900000.953 8  -2214345.525 9
  21761120.472    -6151711.020 7  -4710060.165 9
  23169050.487    -1214624.978 6   -902673.497 9
  21867193.151     4106563.109 7   3167640.719 9
 94  3 17 19 31 59.9990000  0  7 31  2 18 19 27 28 29
  22021103.511    -5532166.712 7  -4226096.995 9
  23925565.675    -1685967.229 5  -1153397.851 9
  20218113.847      -25409.312 8       698.469 9
  20628415.589    -2920444.357 8  -2230275.439 9
  21749103.526    -6214860.361 7  -4759267.400 9
  23171785.480    -1200252.585 6   -891474.208 9
  21880963.839     4178928.871 7   3224029.536 9
 94  3 17 19 32 29.9990000  0  7 31  2 18 19 27 28 29
  22013068.448    -5574391.769 7  -4258999.556 9
  23907623.511    -1780249.934 5  -1226864.742 9
  20223212.214        1382.950 8     21575.544 9
  20624584.183    -2940579.754 8  -2245965.348 9
  21737132.573    -6277766.446 7  -4808285.089 9
  23174646.190    -1185217.068 6   -879758.204 9
  21894823.253     4251760.472 7   3280781.346 9
 94  3 17 19 32 59.9990000  0  7 31  2 18 19 27 28 29
  22005153.222    -5615985.171 7  -4291409.921 9
  23889737.065    -1874245.651 5  -1300107.996 9
  20228427.026       28787.714 8     42929.892 9
  20620808.972    -2960417.094 8  -2261423.004 9
  21725205.948    -6340442.169 7  -4857123.277 9
  23177633.659    -1169519.231 6   -867526.098 9
  21908768.909     4325045.011 7   3337886.098 9
 94  3 17 19 33 29.9990000  0  7 31  2 18 19 27 28 29
  21997360.800    -5656933.686 7  -4323317.781 9
  23871906.112    -1967947.443 5  -1373122.217 9
  20233759.862       56811.692 8     64766.749 9
  20617093.542    -2979941.510 8  -2276636.826 9
  21713326.487    -6402868.817 7  -4905767.380 9
  23180750.667    -1153140.145 6   -854763.152 9
  21922801.214     4398783.921 7   3395344.906 9
 94  3 17 19 33 59.9990000  0  7 31  2 18 19 27 28 29
  21989692.519    -5697232.784 7  -4354719.601 9
  23854134.909    -2061339.013 5  -1445894.705 9
  20239208.644       85446.095 8     87079.252 9
  20613438.011    -2999151.632 8  -2291605.745 9
  21701496.425    -6465036.921 7  -4954210.018 9
  23183995.019    -1136088.548 6   -841476.168 9
  21936918.925     4472972.432 7   3453154.040 9
 94  3 17 19 34 29.9990000  0  7 31  2 18 19 27 28 29
  21982146.597    -5736885.400 7  -4385617.677 9
  23836420.479    -2154427.401 5  -1518430.969 9
  20244771.214      114676.199 8    109855.941 9
  20609841.222    -3018054.183 8  -2306334.996 9
  21689716.862    -6526937.607 7  -5002444.283 9
  23187367.104    -1118370.284 6   -827669.708 9
  21951123.847     4547621.127 7   3511321.780 9
 94  3 17 19 34 59.9990000  0  7 31  2 18 19 27 28 29
  21974722.550    -5775898.660 7  -4416017.554 9
  23818760.612    -2247230.698 5  -1590745.068 9
  20250445.120      144492.871 8    133089.693 9
  20606303.558    -3036643.589 8  -2320820.235 9
  21677988.300    -6588571.020 7  -5050470.281 9
  23190865.065    -1099987.174 6   -813345.183 9
  21965416.448     4622727.137 7   3569845.862 9
 94  3 17 19 35 29.9990000  0  7 31  2 18 19 27 28 29
  21967418.901    -5814278.394 7  -4445923.777 9
  23801157.362    -2339736.547 5  -1662827.398 9
  20256230.464      174894.608 8    156779.346 9
  20602825.745    -3054919.676 8  -2335061.331 9
  21666312.956    -6649926.720 7  -5098279.882 9
  23194491.808    -1080928.603 6   -798494.323 9
  21979793.120     4698277.770 7   3628716.393 9
 94  3 17 19 35 59.9990000  0  7 31  2 18 19 27 28 29
  21960235.237    -5852029.842 7  -4475340.425 9
  23783610.753    -2431941.517 5  -1734675.251 9
  20262128.565      205889.672 8    180931.328 9
  20599408.511    -3072876.832 8  -2349053.908 9
  21654688.433    -6711011.951 7  -5145878.725 9
  23198246.980    -1061196.100 6   -783118.327 9
  21994255.308     4774277.383 7   3687936.780 9
 94  3 17 19 36 29.9990000  0  7 31  2 18 19 27 28 29
  21953169.690    -5889158.842 7  -4504272.060 9
  23766122.956    -2523839.183 5  -1806283.660 9
  20268143.456      237497.771 8    205561.010 9
  20596053.800    -3090505.800 8  -2362790.749 9
  21643114.331    -6771835.019 7  -5193273.287 9
  23202134.292    -1040768.430 6   -767200.644 9
  22008803.175     4850724.961 7   3747506.238 9
 94  3 17 19 36 59.9990000  0  7 31  2 18 19 27 28 29
  21946222.620    -5925665.719 7  -4532718.916 9
  23748696.105    -2615417.068 5  -1877642.874 9
  20274278.690      269738.862 8    230683.928 9
  20592763.542    -3107797.006 8  -2376264.405 9
  21631589.901    -6832397.082 7  -5240464.470 9
  23206155.558    -1019635.557 6   -750733.454 9
  22023433.003     4927606.610 7   3807413.936 9
 94  3 17 19 37 29.9990000  0  7 31  2 18 19 27 28 29
  21939392.526    -5961558.148 7  -4560686.984 9
  23731331.315    -2706669.656 5  -1948748.617 9
  20280532.995      302604.847 8    256293.775 9
  20589535.644    -3124759.161 8  -2389481.652 9
  21620113.245    -6892707.810 7  -5287459.807 9
  23210307.026     -997820.414 6   -733734.628 9
  22038148.104     5004933.460 7   3867668.530 9
 94  3 17 19 37 59.9990000  0  7 31  2 18 19 27 28 29
  21932683.706    -5996811.522 6  -4588157.165 9
  23714027.354    -2797599.209 5  -2019602.694 9
  20286906.159      336097.442 7    282391.822 9
  20586371.597    -3141385.923 7  -2402437.620 9
  21608681.479    -6952779.536 6  -5334268.971 9
  23214584.222     -975341.426 6   -716218.580 9
  22052951.151     5082726.206 6   3928286.092 9
 94  3 17 19 38 29.9990000  0  7 31  2 18 19 27 28 29
  21926101.378    -6031403.159 7  -4615111.542 9
  23696784.300    -2888215.633 5  -2090212.642 9
  20293395.925      370198.996 8    308964.535 9
  20583268.792    -3157691.518 8  -2415143.187 9
  21597294.565    -7012619.534 7  -5380897.420 9
  23218984.940     -952215.664 6   -698198.416 9
  22067843.253     5160982.010 6   3989264.629 9
 94  3 17 19 38 59.9990000  0  7 31  2 18 19 27 28 29
  21919648.206    -6065313.599 7  -4641535.196 9
  23679598.206    -2978525.781 5  -2160583.986 9
  20299997.401      404891.073 8    335997.328 9
  20580226.769    -3173678.884 8  -2427600.851 9
  21585952.308    -7072222.137 7  -5427340.954 9
  23223503.448     -928473.956 6   -679698.365 9
  22082825.519     5239713.967 7   4050614.126 9
 94  3 17 19 39 29.9990000  0  7 31  2 18 19 27 28 29
  21913329.354    -6098519.773 7  -4667410.062 9
  23662470.940    -3068529.927 5  -2230716.911 9
  20306711.659      440173.770 8    363490.335 9
  20577244.831    -3189347.190 8  -2439809.897 9
  21574654.917    -7131591.934 7  -5473603.085 9
  23228136.550     -904124.815 6   -660724.999 9
  22097900.183     5318929.656 7   4112340.554 9
 94  3 17 19 39 59.9990000  0  7 31  2 18 19 27 28 29
  21907146.229    -6131013.686 7  -4692729.928 9
  23645400.198    -3158236.189 5  -2300617.690 9
  20313539.901      476057.134 8    391451.394 9
  20574326.433    -3204685.227 8  -2451761.593 9
  21563402.331    -7190723.423 7  -5519679.524 9
  23232889.183     -879150.950 6   -641264.828 9
  22113062.409     5398607.968 7   4174427.463 9
 94  3 17 19 40 29.9990000  0  7 31  2 18 19 27 28 29
  21901094.784    -6162813.582 7  -4717508.989 9
  23628387.862    -3247634.222 5  -2370278.316 9
  20320483.112      512543.313 8    419882.175 9
  20571469.675    -3219696.832 8  -2463458.920 9
  21552195.089    -7249616.940 7  -5565570.527 9
  23237763.292     -853535.980 6   -621305.098 9
  22128307.823     5478723.646 6   4236855.176 9
 94  3 17 19 40 59.9990000  0  7 31  2 18 19 27 28 29
  21895169.667    -6193948.306 7  -4741769.741 9
  23611436.362    -3336715.690 5  -2439692.246 9
  20327543.972      549649.044 8    448795.722 9
  20568673.253    -3234392.871 8  -2474910.356 9
  21541034.128    -7308268.903 7  -5611273.306 9
  23242762.901     -827264.080 6   -600833.473 9
  22143634.151     5559263.809 6   4299613.655 9
 94  3 17 19 41 29.9990000  0  7 31  2 18 19 27 28 29
  21889371.011    -6224421.785 7  -4765515.240 9
  23594544.636    -3425482.815 5  -2508861.246 9
  20334725.769      587390.272 8    478204.452 9
  20565935.769    -3248779.075 8  -2486120.361 9
  21529919.894    -7366675.575 7  -5656784.949 9
  23247892.909     -800304.388 6   -579825.913 9
  22159038.808     5640215.615 6   4362692.894 9
 94  3 17 19 41 59.9990000  0  7 31  2 18 19 27 28 29
  21883696.831    -6254239.410 7  -4788749.672 9
  23577715.581    -3513922.533 5  -2577775.111 9
  20342027.870      625761.614 8    508104.179 9
  20563256.464    -3262857.689 8  -2497090.686 9
  21518854.831    -7424822.216 7  -5702093.973 9
  23253155.159     -772649.678 6   -558276.761 9
  22174521.894     5721579.159 6   4426092.969 9
 94  3 17 19 42 29.9990000  0  7 31  2 18 19 27 28 29
  21878147.292    -6283401.785 7  -4811473.519 9
  23560949.815    -3602025.240 5  -2646426.377 9
  20349447.933      664754.691 8    538488.378 9
  20560632.737    -3276645.816 8  -2507834.657 9
  21507841.183    -7482698.235 7  -5747192.122 9
  23258547.847     -744314.188 6   -536197.150 9
  22190086.769     5803372.766 6   4489828.166 9
 94  3 17 19 42 59.9990000  0  7 31  2 18 19 27 28 29
  21872725.753    -6311892.300 7  -4833673.837 9
  23544244.597    -3689808.791 5  -2714828.945 9
  20356984.565      704360.359 8    569349.931 9
  20558064.862    -3290138.986 8  -2518348.795 9
  21496881.401    -7540293.929 7  -5792071.843 9
  23264065.495     -715317.084 6   -513601.994 9
  22205737.698     5885618.020 6   4553915.287 9
 94  3 17 19 43 29.9990000  0  7 31  2 18 19 27 28 29
  21867432.112    -6339709.105 7  -4855349.193 9
  23527597.378    -3777289.979 5  -2782995.901 9
  20364631.300      744544.088 8    600661.916 9
  20555554.542    -3303330.918 8  -2528628.198 9
  21485972.964    -7597616.701 7  -5836738.897 9
  23269704.987     -685681.429 6   -490509.252 9
  22221472.409     5968305.137 6   4618346.727 9
 94  3 17 19 43 59.9990000  0  7 31  2 18 19 27 28 29
  21862266.034    -6366856.867 7  -4876503.224 9
  23511009.058    -3864461.753 5  -2850921.762 9
  20372384.948      785288.810 8    632411.039 9
  20553103.511    -3316212.454 8  -2538665.740 9
  21475116.159    -7654669.325 7  -5881195.449 9
  23275463.401     -655419.596 6   -466928.605 9
  22237291.214     6051432.178 6   4683120.947 9
 94  3 17 19 44 29.9990000  0  7 31  2 18 19 27 28 29
  21857227.683    -6393333.689 7  -4897134.449 9
  23494479.511    -3951324.799 5  -2918607.064 9
  20380248.269      826611.001 8    664610.133 9
  20550713.495    -3328772.272 8  -2548452.594 9
  21464310.948    -7711451.357 7  -5925441.151 9
  23281343.823     -624518.469 6   -442849.791 9
  22253194.300     6135004.353 6   4748242.030 9
 94  3 17 19 44 59.9990000  0  7 31  2 18 19 27 28 29
  21852317.448    -6419136.890 7  -4917240.783 9
  23478010.823    -4037870.005 5  -2986044.686 9
  20388223.269      868520.135 8    697266.589 9
  20548387.667    -3340994.757 8  -2557976.592 9
  21453555.987    -7767968.216 7  -5969480.221 9
  23287351.737     -592948.576 6   -418249.866 9
  22269178.706     6219002.115 6   4813694.744 9
 94  3 17 19 45 29.9990000  0  7 31  2 18 19 27 28 29
  21847535.269    -6444267.151 7  -4936822.754 9
  23461604.729    -4124082.718 6  -3053223.231 9
  20396310.011      911015.730 8    730380.023 9
  20546123.901    -3352890.129 8  -2567245.688 9
  21442851.659    -7824221.127 7  -6013313.618 9
  23293488.651     -560696.562 6   -393118.415 9
  22285239.503     6303402.476 6   4879461.162 9
 94  3 17 19 45 59.9990000  0  7 31  2 18 19 27 28 29
  21842880.495    -6468727.685 7  -4955882.880 9
  23445263.112    -4209955.480 6  -3120136.880 9
  20404508.839      954101.756 8    763953.514 9
  20543918.729    -3364478.327 8  -2576275.459 9
  21432194.979    -7880221.399 7  -6056950.170 9
  23299755.620     -527763.243 6   -367456.102 9
  22301376.800     6388204.607 6   4945540.637 9
 94  3 17 19 46 29.9990000  0  7 31  2 18 19 27 28 29
  21838354.097    -6492514.664 7  -4974418.114 9
  23428987.065    -4295486.060 6  -3186783.863 9
  20412822.144      997787.850 8    797994.623 9
  20541771.948    -3375760.296 8  -2585066.566 9
  21421585.448    -7935974.385 7  -6100394.003 9
  23306151.464     -494155.672 6   -341268.361 9
  22317591.347     6473411.786 6   5011935.772 9
 94  3 17 19 46 59.9990000  0  7 31  2 18 19 27 28 29
  21833956.620    -6515624.986 7  -4992426.107 9
  23412776.206    -4380673.900 6  -3253163.780 9
  20421245.612     1042052.527 8    832486.564 9
  20539683.026    -3386735.525 8  -2593618.673 9
  21411021.862    -7991485.692 7  -6143649.533 9
  23312670.425     -459894.069 6   -314571.007 9
  22333881.878     6559018.672 6   5078642.355 9
 94  3 17 19 47 29.9990000  0  7 31  2 18 19 27 28 29
  21829687.776    -6538055.677 7  -5009904.518 9
  23396628.253    -4465533.196 6  -3319287.712 9
  20429777.605     1086891.204 8    867425.778 9
  20537654.011    -3397399.243 8  -2601928.050 9
  21400502.269    -8046765.816 7  -6186724.919 9
  23319308.565     -425012.733 6   -287390.744 9
  22350249.870     6645032.592 6   5145666.107 9
 94  3 17 19 47 59.9990000  0  7 31  2 18 19 27 28 29
  21825544.550    -6559829.324 7  -5026870.957 9
  23380541.675    -4550068.247 6  -3385158.972 9
  20438421.917     1132315.831 8    902821.569 9
  20535686.729    -3407736.896 8  -2609983.344 9
  21390023.511    -8101832.736 7  -6229634.178 9
  23326060.151     -389532.838 6   -259744.071 9
  22366696.620     6731458.656 6   5213011.002 9
 94  3 17 19 48 29.9990000  0  7 31  2 18 19 27 28 29
  21821526.003    -6580947.586 7  -5043326.704 9
  23364515.409    -4634284.667 6  -3450781.957 9
  20447177.964     1178328.707 8    938675.732 9
  20533783.550    -3417739.264 8  -2617777.380 9
  21379586.190    -8156682.198 7  -6272373.985 9
  23332923.089     -353466.624 6   -231640.523 9
  22383221.487     6818297.693 6   5280677.702 9
 94  3 17 19 48 59.9990000  0  7 31  2 18 19 27 28 29
  21817633.050    -6601401.727 7  -5059264.962 9
  23348548.151    -4718192.061 6  -3516164.132 9
  20456043.933     1224919.374 8    974980.124 9
  20531939.401    -3427429.357 8  -2625328.089 9
  21369190.269    -8211312.992 7  -6314943.398 9
  23339897.565     -316817.119 6   -203082.455 9
  22399822.698     6905538.830 6   5348657.732 9
 94  3 17 19 49 29.9990000  0  7 31  2 18 19 27 28 29
  21813867.550    -6621191.913 7  -5074685.862 9
  23332640.933    -4801783.914 6  -3581300.443 9
  20465022.909     1272105.172 8   1011748.250 9
  20530151.269    -3436826.081 8  -2632650.198 9
  21358838.159    -8265713.743 7  -6357333.561 9
  23346985.683     -279568.816 6   -174057.809 9
  22416504.378     6993201.191 6   5416965.991 9
 94  3 17 19 49 59.9990000  0  7 31  2 18 19 27 28 29
  21810225.659    -6640329.337 7  -5089598.111 9
  23316794.940    -4885056.427 6  -3646187.898 9
  20474112.026     1319867.452 8   1048965.597 9
  20528410.370    -3445974.576 8  -2639778.888 9
  21348531.276    -8319876.463 7  -6399538.245 9
  23354188.222     -241717.237 6   -144563.088 9
  22433264.956     7081277.124 6   5485596.508 9
 94  3 17 19 50 29.9990000  0  7 31  2 18 19 27 28 29
  21806712.698    -6658789.590 7  -5103982.700 9
  23301004.683    -4968032.784 6  -3710844.599 9
  20483305.878     1368181.649 8   1086613.004 9
  20526712.003    -3454900.311 8  -2646733.996 9
  21338272.956    -8373783.515 7  -6441543.707 9
  23361508.394     -203250.840 6   -114589.283 9
  22450102.058     7169758.443 6   5554542.919 9
 94  3 17 19 50 59.9990000  0  7 31  2 18 19 27 28 29
  21803328.276    -6676575.800 7  -5117842.063 9
  23285267.847    -5050729.035 6  -3775283.016 9
  20492603.854     1417043.142 8   1124686.865 9
  20525056.847    -3463597.428 8  -2653510.962 9
  21328063.128    -8427437.750 7  -6483352.170 9
  23368947.058     -164159.256 6    -84128.323 9
  22467014.151     7258630.366 6   5623793.690 9
 94  3 17 19 51 29.9990000  0  7 31  2 18 19 27 28 29
  21800070.604    -6693694.515 7  -5131181.298 9
  23269585.511    -5133138.962 6  -3839498.353 9
  20502009.097     1466467.574 8   1163199.389 9
  20523450.011    -3472041.775 8  -2660090.966 9
  21317901.745    -8480834.579 7  -6524960.055 9
  23376506.401     -124434.619 6    -53174.088 9
  22484000.003     7347890.799 6   5693347.190 9
 94  3 17 19 51 59.9990000  0  7 31  2 18 19 27 28 29
  21796942.276    -6710133.038 7  -5143990.517 9
  23253955.909    -5215273.869 6  -3903499.397 9
  20511518.940     1516441.865 8   1202140.366 9
  20521896.573    -3480206.073 8  -2666452.751 9
  21307788.323    -8533981.397 7  -6566373.126 9
  23384184.323      -84089.042 6    -21735.995 9
  22501053.948     7437509.380 6   5763179.770 9
 94  3 17 19 52 29.9990000  0  7 31  2 18 19 27 28 29
  21793943.183    -6725894.144 7  -5156271.877 9
  23238376.503    -5297144.604 6  -3967294.586 9
  20521135.034     1566973.266 8   1241515.471 9
  20520402.604    -3488055.986 8  -2672569.555 9
  21297718.581    -8586898.675 7  -6607607.330 9
  23391979.651      -43124.560 6     10184.368 9
  22518174.073     7527474.771 6   5833282.603 9
 94  3 17 19 52 59.9990000  0  7 31  2 18 19 27 28 29
  21791071.394    -6740986.305 7  -5168031.983 9
  23222854.394    -5378712.763 6  -4030854.021 9
  20530859.237     1618076.117 8   1281335.833 9
  20518970.354    -3495582.977 8  -2678434.736 9
  21287691.144    -8639592.945 7  -6648667.774 9
  23399891.354       -1549.390 6     42580.582 9
  22535360.042     7617788.047 6   5903656.488 9
 94  3 17 19 53 29.9990000  0  8 31 16  2 18 19 27 28 29
  21788325.042    -6755416.851 7  -5179276.532 9
  24100567.206       -7535.26514
  23207392.464    -5459963.386 6  -4094166.026 9
  20540690.526     1669739.535 8   1321593.019 9
  20517595.534    -3502807.381 8  -2684064.128 9
  21277705.659    -8692065.642 7  -6689555.551 9
  23407916.604       40623.379 6     75442.469 9
  22552610.901     7708442.955 6   5974296.587 9
 94  3 17 19 53 59.9990000  0  8 31 16  2 18 19 27 28 29
  21785704.550    -6769189.102 7  -5190008.128 9
  24092029.175      -52399.647 4
  23191990.972    -5540898.369 6  -4157232.081 9
  20550624.980     1721944.667 8   1362272.313 9
  20516278.901    -3509726.029 8  -2689455.269 9
  21267761.362    -8744324.128 7  -6730276.412 9
  23416053.456       83383.873 6    108762.328 9
  22569928.769     7799448.227 6   6045209.696 9
 94  3 17 19 54 29.9990000  0  8 31 16  2 18 19 27 28 29
  21783207.245    -6782311.200 7  -5200233.105 9
  24083605.073      -96671.277 4
  23176649.644    -5621515.624 6  -4220050.568 9
  20560662.042     1774690.340 8   1403372.812 9
  20515017.292    -3516354.343 8  -2694620.173 9
  21257858.229    -8796363.796 7  -6770826.763 9
  23424301.917      126729.345 6    142538.006 9
  22587313.620     7890805.740 6   6116397.257 9
 94  3 17 19 54 59.9990000  0  8 31 16  2 18 19 27 28 29
  21780833.354    -6794787.045 7  -5209954.508 9
  24075292.308     -140351.681 4    -19229.06619
  23161370.558    -5701809.769 6  -4282617.274 9
  20570799.987     1827965.442 8   1444885.847 9
  20513809.589    -3522702.069 8  -2699566.437 9
  21248000.323    -8848168.512 7  -6811194.039 9
  23432660.823      170659.077 6    176768.953 9
  22604765.683     7982515.738 6   6187859.490 9
 94  3 17 19 55 29.9990000  0  8 31 16  2 18 19 27 28 29
  21778583.245    -6806610.451 7  -5219167.512 9
  24067094.534     -183434.793 4    -52800.297 8
  23146148.401    -5781801.811 6  -4344948.592 9
  20581039.261     1881771.852 8   1486812.890 9
  20512658.440    -3528751.189 8  -2704280.017 9
  21238186.675    -8899739.968 7  -6851379.555 9
  23441133.612      215183.190 6    211463.054 9
  22622287.315     8074593.057 6   6259607.938 9
 94  3 17 19 55 59.9990000  0  8 31 16  2 18 19 27 28 29
  21776461.683    -6817758.747 7  -5227854.455 9
  24059006.987     -225935.286 4    -85917.554 7
  23130983.386    -5861494.626 6  -4407046.744 9
  20591379.730     1936112.937 8   1529156.559 9
  20511565.347    -3534495.318 8  -2708755.944 9
  21228417.144    -8951078.773 7  -6891383.789 9
  23449721.331      260312.734 6    246628.921 9
  22639881.651     8167051.926 6   6331653.694 9
 94  3 17 19 56 29.9990000  0  8 31 16  2 18 19 27 28 29
  21774468.769    -6828231.335 7  -5236014.871 9
  24051023.495     -267884.734 5   -118605.445 9
  23115875.542    -5940885.900 6  -4468909.939 9
  20601823.464     1990994.920 8   1571921.713 9
  20510526.284    -3539955.598 8  -2713010.691 9
  21218693.323    -9002177.093 7  -6931200.637 9
  23458425.729      306054.006 6    282271.448 9
  22657546.753     8259879.860 6   6403987.026 9
 94  3 17 19 56 59.9990000  0  8 31 16  2 18 19 27 28 29
  21772602.901    -6838036.988 7  -5243655.596 9
  24043146.456     -309277.825 5   -150859.738 8
  23100826.573    -6019968.263 6  -4530532.429 9
  20612370.823     2046421.229 8   1615111.015 9
  20509541.308    -3545132.284 8  -2717044.460 9
  21209015.175    -9053035.595 7  -6970830.607 9
  23467247.659      352410.407 6    318393.303 9
  22675284.495     8353092.238 6   6476619.931 9
 94  3 17 19 57 29.9990000  0  8 31 16  2 18 19 27 28 29
  21770867.112    -6847157.190 7  -5250762.203 9
  24035372.589     -350127.798 5   -182690.898 9
  23085837.034    -6098739.381 6  -4591912.386 9
  20623022.698     2102397.439 8   1658728.804 9
  20508607.534    -3550037.944 7  -2720867.039 9
  21199381.198    -9103662.280 7  -7010279.937 9
  23476184.659      399374.670 6    354988.813 9
  22693093.675     8446680.705 6   6549545.891 9
 94  3 17 19 57 59.9990000  0  8 31 16  2 18 19 27 28 29
  21769262.120    -6855592.079 7  -5257334.794 9
  24027704.542     -390432.065 5   -214096.792 7
  23070907.370    -6177194.067 6  -4653045.767 9
  20633778.745     2158920.843 8   1702772.986 9
  20507722.683    -3554688.581 7  -2724490.896 9
  21189793.558    -9154047.293 7  -7049540.955 9
  23485234.683      446932.947 6    392047.208 9
  22710969.112     8540615.475 6   6622741.689 9
 94  3 17 19 58 29.9990000  0  8 31 16  2 18 19 27 28 29
  21767784.284    -6863358.412 7  -5263386.437 9
  24020142.183     -430169.080 5   -245060.674 8
  23056038.565    -6255329.494 6  -4713930.375 9
  20644639.706     2215994.607 8   1747246.021 9
  20506887.979    -3559074.831 7  -2727908.743 9
  21180252.651    -9204184.095 7  -7088608.558 9
  23494392.823      495058.592 6    429547.699 9
  22728906.792     8634878.171 6   6696193.003 9
 94  3 17 19 58 59.9990000  0  8 31 16  2 18 19 27 28 29
  21766434.323    -6870451.544 7  -5268913.502 9
  24012694.073     -469307.191 5   -275557.846 9
  23041229.558    -6333148.544 6  -4774568.459 9
  20655604.378     2273613.536 8   1792143.858 9
  20506104.636    -3563190.527 7  -2731115.768 9
  21170756.487    -9254086.102 7  -7127493.201 9
  23503655.433      543735.846 6    467478.011 9
  22746904.550     8729456.713 6   6769890.439 9
 94  3 17 19 59 29.9990000  0  8 31 16  2 18 19 27 28 29
  21765212.019    -6876875.212 7  -5273918.912 9
  24005361.792     -507840.375 5   -305583.673 9
  23026478.917    -6410665.870 6  -4834971.431 9
  20666671.073     2331769.569 8   1837460.204 9
  20505372.487    -3567038.367 7  -2734114.076 9
  21161302.019    -9303769.623 7  -7166207.600 9
  23513020.886      592952.710 6    505828.808 9
  22764957.940     8824327.474 6   6843815.593 9
 94  3 17 19 59 59.9990000  0  8 31 16  2 18 19 27 28 29
  21764114.409    -6882644.416 7  -5278414.340 9
  23998144.706     -545763.083 5   -335133.814 8
  23011785.573    -6487878.689 6  -4895137.115 9
  20677840.784     2390466.139 8   1883197.766 9
  20504694.620    -3570600.465 7  -2736889.724 9
  21151890.964    -9353225.499 7  -7204744.612 9
  23522490.456      642717.295 6    544606.395 9
  22783070.347     8919507.754 6   6917981.917 9
 94  3 17 20  0 29.9990000  0  8 31 16  2 18 19 27 28 29
  21763140.698    -6887761.116 7  -5282401.333 9
  23991042.542     -583085.264 5   -364216.009 8
  22997151.550    -6564777.444 6  -4955058.082 9
  20689113.745     2449707.231 8   1929359.636 9
  20504072.894    -3573869.286 7  -2739436.848 9
  21142520.651    -9402466.864 7  -7243114.475 9
  23532067.706      693042.725 6    583821.007 9
  22801245.917     9015021.798 6   6992408.326 9
 94  3 17 20  0 59.9990000  0  8 31 16  2 18 19 27 28 29
  21762290.394    -6892229.461 7  -5285883.103 9
  23984049.394     -619833.771 5   -392851.182 9
  22982576.378    -6641369.409 6  -5014739.986 9
  20700490.354     2509490.334 8   1975943.850 9
  20503503.948    -3576859.312 8  -2741766.732 9
  21133187.448    -9451512.886 7  -7281332.116 9
  23541753.128      743942.161 6    623482.892 9
  22819487.097     9110879.473 6   7067102.514 9
 94  3 17 20  1 29.9990000  0  8 31 16  2 18 19 27 28 29
  21761562.604    -6896053.678 7  -5288862.968 9
  23977161.979     -656032.163 5   -421057.720 9
  22968061.425    -6717647.301 6  -5074177.161 9
  20711970.354     2569819.096 8   2022953.237 9
  20502990.394    -3579557.428 7  -2743869.153 9
  21123894.964    -9500344.516 7  -7319382.700 9
  23551550.097      795421.162 6    663596.384 9
  22837798.159     9207104.810 6   7142083.177 9
 94  3 17 20  1 59.9990000  0  8 31 16  2 18 19 27 28 29
  21760959.159    -6899222.600 7  -5291332.214 9
  23970374.854     -691695.251 5   -448847.147 9
  22953607.394    -6793601.085 6  -5133361.779 9
  20723554.503     2630693.309 8   2070387.656 9
  20502531.542    -3581967.692 7  -2745747.273 9
  21114644.417    -9548955.567 7  -7357261.411 9
  23561454.136      847467.765 6    704152.169 9
  22856179.347     9303696.352 6   7217349.198 9
 94  3 17 20  2 29.9990000  0  8 31 16  2 18 19 27 28 29
  21760483.636    -6901722.345 7  -5293280.026 9
  23963694.464     -726807.101 5   -476207.017 9
  22939215.956    -6869230.031 6  -5192293.280 9
  20735239.964     2692102.560 8   2118238.987 9
  20502128.761    -3584085.563 7  -2747397.549 9
  21105438.253    -9597336.471 7  -7394960.789 9
  23571467.284      900083.376 6    745151.335 9
  22874627.800     9400644.353 6   7292892.964 9
 94  3 17 20  2 59.9990000  0  8 31 16  2 18 19 27 28 29
  21760136.269    -6903547.164 7  -5294701.911 9
  23957120.886     -761348.708 5   -503122.545 9
  22924885.526    -6944537.768 6  -5250974.491 9
  20747026.065     2754036.835 8   2166499.423 9
  20501781.659    -3585907.676 7  -2748817.368 9
  21096280.089    -9645461.148 7  -7432460.512 9
  23581587.925      953270.134 6    786595.547 9
  22893140.737     9497930.553 6   7368700.275 9
 94  3 17 20  3 29.9990000  0  8 31 16  2 18 19 27 28 29
  21759917.956    -6904693.628 7  -5295595.228 9
  23950658.011     -795308.469 5   -529584.690 9
  22910613.815    -7019533.979 6  -5309412.963 9
  20758906.675     2816470.268 8   2215148.829 9
  20501489.644    -3587443.367 7  -2750013.999 9
  21087171.573    -9693327.029 7  -7469758.581 9
  23591815.573     1007021.911 5    828480.042 9
  22911713.581     9595529.307 6   7444751.123 9
 94  3 17 20  3 59.9990000  0  8 31 16  2 18 19 27 28 29
  21759831.901    -6905147.565 7  -5295948.907 9
  23944311.612     -828662.959 5   -555575.215 9
  22896401.370    -7094220.450 6  -5367610.075 9
  20770881.323     2879396.689 8   2264182.378 9
  20501252.058    -3588692.105 7  -2750987.029 9
  21078112.714    -9740931.322 7  -7506852.811 9
  23602155.526     1061358.651 5    870820.327 9
  22930342.659     9693424.584 6   7521033.010 9
 94  3 17 20  4 29.9990000  0  8 31 16  2 18 19 27 28 29
  21759875.315    -6904919.000 7  -5295770.772 9
  23938081.222     -861401.968 5   -581086.123 9
  22882246.136    -7168608.304 6  -5425574.501 9
  20782948.167     2942808.741 8   2313594.336 9
  20501069.487    -3589650.046 7  -2751733.459 9
  21069103.683    -9788273.822 7  -7543743.046 9
  23612608.581     1116293.505 5    913626.690 9
  22949029.370     9791625.092 6   7597552.749 9
 94  3 17 20  4 59.9990000  0  8 31 16  2 18 19 27 28 29
  21760049.308    -6904004.660 7  -5295058.274 9
  23931967.503     -893529.066 5   -606120.207 9
  22868147.269    -7242697.739 6  -5483306.392 9
  20795110.105     3006719.567 8   2363394.948 9
  20500943.112    -3590315.325 7  -2752251.842 9
  21060141.956    -9835368.990 7  -7580440.555 9
  23623173.987     1171812.444 5    956888.169 9
  22967777.245     9890144.780 6   7674321.195 9
 94  3 17 20  5 29.9990000  0  8 31 16  2 18 19 27 28 29
  21760354.511    -6902398.712 7  -5293806.848 9
  23925969.815     -925045.092 5   -630678.157 9
  22854106.636    -7316480.312 6  -5540799.170 9
  20807370.472     3071148.487 8   2413599.269 9
  20500872.761    -3590685.558 7  -2752540.321 9
  21051226.214    -9882220.367 7  -7616948.101 9
  23633848.120     1227902.346 6   1000594.568 9
  22986588.784     9988999.296 6   7751350.529 9
 94  3 17 20  5 59.9990000  0  8 31 16  2 18 19 27 28 29
  21760790.292    -6900109.076 7  -5292022.676 9
  23920087.480     -955961.082 5   -654768.526 9
  22840124.479    -7389957.610 6  -5598054.078 9
  20819730.714     3136102.416 8   2464212.690 9
  20500856.706    -3590768.544 7  -2752604.976 9
  21042355.612    -9928837.565 7  -7653273.167 9
  23644626.394     1284540.326 6   1044728.037 9
  23005464.229    10088189.993 6   7828641.843 9
 94  3 17 20  6 29.9990000  0  8 31 16  2 18 19 27 28 29
  21761357.503    -6897128.209 7  -5289699.887 9
  23914318.909     -986273.135 5   -678388.285 9
  22826203.433    -7463110.270 6  -5655056.032 9
  20832192.604     3201589.221 8   2515241.338 9
  20500894.987    -3590568.607 7  -2752449.172 9
  21033528.558    -9975223.256 7  -7689417.842 9
  23655506.487     1341713.441 6   1089278.489 9
  23024405.487    10187728.139 6   7906203.868 9
 94  3 17 20  6 59.9990000  0  8 31 16  2 18 19 27 28 29
  21762057.206    -6893451.283 7  -5286834.717 9
  23908664.159    -1015986.230 5   -701541.318 9
  22812347.792    -7535925.189 6  -5711794.795 9
  20844756.026     3267610.041 8   2566686.102 9
  20500985.198    -3590095.036 7  -2752080.143 9
  21024746.300   -10021373.820 7  -7725379.296 9
  23666486.019     1399412.472 6   1134238.761 9
  23043409.933    10287596.950 6   7984023.576 9
 94  3 17 20  7 29.9990000  0  8 31 16  2 18 19 27 28 29
  21762888.847    -6889082.232 7  -5283430.229 9
  23903121.948    -1045107.899 5   -724233.490 9
  22798557.558    -7608390.458 6  -5768261.112 9
  20857419.089     3334155.439 8   2618539.625 9
  20501124.737    -3589360.305 7  -2751507.615 9
  21016010.019   -10067282.162 7  -7761152.001 9
  23677567.050     1457643.362 6   1179613.469 9
  23062475.175    10387782.247 6   8062089.883 9
 94  3 17 20  7 59.9990000  0  8 31 16  2 18 19 27 28 29
  21763850.417    -6884027.605 7  -5279491.517 9
  23897692.222    -1073646.650 5   -746471.460 9
  22784833.105    -7680514.446 6  -5824461.489 9
  20870178.729     3401207.109 8   2670787.644 9
  20501313.503    -3588368.816 7  -2750735.006 9
  21007317.542   -10112961.790 7  -7796746.485 9
  23688750.417     1516414.363 6   1225409.037 9
  23081597.823    10488272.559 6   8140393.855 9
 94  3 17 20  8 29.9990000  0  8 31 16  2 18 19 27 28 29
  21764942.472    -6878287.765 7  -5275018.890 9
  23892374.870    -1101592.879 5   -768247.727 9
  22771173.534    -7752295.150 6  -5880394.385 9
  20883036.362     3468773.449 8   2723436.690 9
  20501554.995    -3587099.395 7  -2749745.835 9
  20998669.089   -10158409.461 7  -7832160.222 9
  23700038.409     1575735.932 6   1271633.606 9
  23100778.573    10589066.297 6   8218934.269 9
 94  3 17 20  8 59.9990000  0  8 31 16  2 18 19 27 28 29
  21766164.394    -6871867.794 7  -5270016.273 9
  23887170.354    -1128939.908 5   -789557.082 9
  22757577.808    -7823741.381 6  -5936066.648 9
  20895993.886     3536866.354 8   2776496.052 9
  20501853.034    -3585533.607 7  -2748525.726 9
  20990066.776   -10203615.777 7  -7867385.887 9
  23711430.229     1635601.407 6   1318282.003 9
  23120016.784    10690162.878 6   8297710.672 9
 94  3 17 20  9 29.9990000  0  8 31 16  2 18 19 27 28 29
  21767515.323    -6864768.506 7  -5264484.324 9
  23882083.644    -1155671.020 5   -810386.516 9
  22744043.651    -7894862.587 6  -5991485.646 9
  20909052.894     3605491.056 8   2829969.797 9
  20502211.425    -3583650.996 7  -2747058.757 9
  20981508.940   -10248586.645 7  -7902428.085 9
  23722928.964     1696024.446 6   1365364.870 9
  23139312.433    10791561.284 6   8376722.253 9
 94  3 17 20  9 59.9990000  0  8 31 16  2 18 19 27 28 29
  21768995.159    -6856992.313 7  -5258424.920 9
  23877118.683    -1181762.936 5   -830717.854 9
  22730569.120    -7965671.531 6  -6046661.331 9
  20922212.354     3674644.411 8   2883855.487 9
  20502632.628    -3581437.117 7  -2745333.653 9
  20972996.854   -10293318.349 7  -7937283.937 9
  23734534.464     1757012.528 6   1412888.012 9
  23158664.237    10893256.295 6   8455964.951 9
 94  3 17 20 10 29.9990000  0  8 31 16  2 18 19 27 28 29
  21770601.394    -6848551.340 7  -5251847.509 9
  23872276.144    -1207212.254 5   -850548.506 9
  22717154.253    -8036166.723 6  -6101592.534 9
  20935471.464     3744321.470 8   2938149.250 9
  20503117.440    -3578889.260 7  -2743348.308 9
  20964531.144   -10337804.971 7  -7971948.801 9
  23746245.698     1818552.692 6   1460841.368 9
  23178073.690    10995251.380 6   8535441.489 9
 94  3 17 20 10 59.9990000  0  8 31 16  2 18 19 27 28 29
  21772334.581    -6839443.539 7  -5244750.492 9
  23867551.690    -1232033.034 5   -869889.360 9
  22703800.503    -8106342.842 6  -6156275.116 9
  20948829.011     3814516.538 8   2992846.660 9
  20503663.151    -3576021.254 7  -2741113.492 9
  20956114.597   -10382034.728 7  -8006413.516 9
  23758063.128     1880654.138 6   1509232.074 9
  23197540.253    11097546.643 6   8615151.920 9
 94  3 17 20 11 29.9990000  0  8 31 16  2 18 19 27 28 29
  21774195.323    -6829664.458 7  -5237130.402 9
  23862946.276    -1256239.886 5   -888751.836 9
  22690507.737    -8176192.998 6  -6210703.697 9
  20962284.011     3885222.781 8   3047942.380 9
  20504266.190    -3572852.470 7  -2738644.312 9
  20947747.706   -10426003.359 7  -8040674.753 9
  23769990.519     1943330.470 6   1558070.762 9
  23217063.417    11200143.114 6   8695097.058 9
 94  3 17 20 11 59.9990000  0  8 31 16  2 18 19 27 28 29
  21776186.261    -6819202.689 7  -5228978.342 9
  23858452.972    -1279850.878 5   -907150.007 9
  22677282.683    -8245690.881 6  -6264857.788 9
  20975838.440     3956450.973 8   3103444.823 9
  20504926.894    -3569380.529 7  -2735938.903 9
  20939433.815   -10469692.609 7  -8074718.290 9
  23782023.339     2006566.346 6   1607345.456 9
  23236649.128    11303064.915 6   8775295.712 9
 94  3 17 20 12 29.9990000  0  8 31 16  2 18 19 27 28 29
  21778310.503    -6808039.684 7  -5220279.870 9
  23854069.097    -1302888.779 5   -925101.613 9
  22664125.300    -8314831.951 6  -6318733.841 9
  20989494.378     4028214.145 7   3159364.132 9
  20505644.784    -3565608.575 7  -2732999.721 9
  20931172.542   -10513105.818 7  -8108546.736 9
  23794159.972     2070342.891 6   1657041.435 9
  23256297.151    11406313.469 6   8855748.965 9
 94  3 17 20 12 59.9990000  0  8 31 16  2 18 19 27 28 29
  21780573.190    -6796148.904 7  -5211014.304 9
  23849794.620    -1325353.678 5   -942606.699 9
  22651037.972    -8383607.542 6  -6372325.103 9
  21003253.284     4100516.616 7   3215703.676 9
  20506420.401    -3561533.778 8  -2729824.553 9
  20922965.683   -10556232.182 7  -8142151.669 9
  23806400.276     2134670.596 6   1707166.908 9
  23276003.479    11509872.776 6   8936444.369 9
 94  3 17 20 13 29.9990000  0  8 31 16  2 18 19 27 28 29
  21782975.823    -6783524.050 7  -5201176.742 9
  23845631.128    -1347229.722 5   -959652.912 9
  22638020.456    -8452014.172 6  -6425628.873 9
  21017115.440     4173362.427 7   3272466.602 9
  20507257.847    -3557131.728 8  -2726394.382 9
  20914814.581   -10599066.891 7  -8175529.332 9
  23818746.269     2199549.758 5   1757722.073 9
  23295771.792    11613755.277 5   9017391.606 9
 94  3 17 20 13 59.9990000  0  8 31 16  2 18 19 27 28 29
  21785516.581    -6770170.959 7  -5190771.725 9
  23841581.464    -1368511.989 5   -976236.485 9
  22625069.284    -8520072.554 6  -6478661.273 9
  21031077.706     4246733.805 7   3329639.062 9
  20508158.128    -3552400.216 8  -2722707.485 9
  20906716.128   -10641623.834 7  -8208690.557 9
  23831195.597     2264970.092 5   1808698.925 9
  23315599.175    11717947.295 5   9098580.046 9
 94  3 17 20 14 29.9990000  0  8 31 16  2 18 19 27 28 29
  21788195.284    -6756093.766 7  -5179802.477 9
  23837648.315    -1389179.569 5   -992341.086 9
  22612183.011    -8587789.510 6  -6531427.635 9
  21045137.167     4320616.788 7   3387210.182 9
  20509120.097    -3547345.224 7  -2718768.527 9
  20898674.159   -10683885.740 7  -8241621.884 9
  23843751.948     2330953.734 5   1860114.733 9
  23335482.894    11822438.521 5   9180001.598 9
 94  3 17 20 14 59.9990000  0  8 31 16  2 18 19 27 28 29
  21791006.526    -6741321.200 7  -5168291.390 9
  23833834.995    -1409222.437 5  -1007958.878 9
  22599362.511    -8655161.590 6  -6583925.266 9
  21059291.315     4394996.792 7   3445168.597 9
  20510142.503    -3541971.652 7  -2714581.323 9
  20890690.183   -10725840.541 7  -8274313.922 9
  23856417.183     2397509.332 5   1911976.211 9
  23355424.761    11927232.603 5   9261659.150 9
 94  3 17 20 15 29.9990000  0  8 31 16  2 18 19 27 28 29
  21793946.737    -6725869.848 7  -5156251.379 9
  23830140.886    -1428630.787 5  -1023082.249 9
  22586606.081    -8722197.696 6  -6636161.096 9
  21073538.862     4469869.563 7   3503510.974 9
  20511221.534    -3536301.976 7  -2710163.397 9
  20882761.534   -10767505.113 7  -8306779.805 9
  23869188.933     2464622.615 5   1964272.230 9
  23375426.644    12032344.058 5   9343564.011 9
 94  3 17 20 15 59.9990000  0  8 31 16  2 18 19 27 28 29
  21797017.847    -6709730.497 7  -5143675.248 9
  23826571.479    -1447392.425 5  -1037701.690 9
  22573916.261    -8788880.775 6  -6688121.834 9
  21087880.894     4545236.527 7   3562238.459 9
  20512355.573    -3530343.598 8  -2705520.485 9
  20874888.401   -10808879.236 7  -8339019.343 9
  23882065.128     2532288.236 5   2016998.687 9
  23395488.354    12137770.930 5   9425714.659 9
 94  3 17 20 16 29.9990000  0  8 31 16  2 18 19 27 28 29
  21800218.159    -6692913.389 7  -5130571.004 9
  23823120.253    -1465525.250 5  -1051831.143 9
  22561295.058    -8855207.415 6  -6739804.827 9
  21102313.737     4621082.819 7   3621339.446 9
  20513542.323    -3524107.349 8  -2700661.055 9
  20867066.862   -10849982.400 7  -8371047.753 9
  23895040.792     2600475.310 5   2070131.453 9
  23415607.456    12243494.237 5   9508096.301 9
 94  3 17 20 16 59.9990000  0  8 31 16  2 18 19 27 28 29
  21803547.276    -6675417.708 7  -5116938.007 9
  23819787.253    -1483038.436 5  -1065477.778 9
  22548740.347    -8921181.222 6  -6791212.890 9
  21116838.644     4697412.077 7   3680816.764 9
  20514781.815    -3517593.804 8  -2695585.551 9
  20859290.362   -10890848.017 7  -8402891.067 9
  23908111.542     2669164.535 5   2123655.480 9
  23435781.956    12349510.440 5   9590706.168 9
 94  3 17 20 17 29.9990000  0  8 31 16  2 18 19 27 28 29
  21807007.480    -6657234.713 7  -5102769.439 9
  23816571.620    -1499938.312 5  -1078646.499 9
  22536253.987    -8986798.374 6  -6842343.044 9
  21131457.800     4774235.216 7   3740678.922 9
  20516075.964    -3510792.741 8  -2690286.009 9
  20851555.675   -10931494.497 7  -8434563.621 9
  23921277.612     2738355.021 5   2177570.113 9
  23456010.480    12455810.910 5   9673537.551 9
 94  3 17 20 17 59.9990000  0  8 31 16  2 18 19 27 28 29
  21810598.167    -6638365.961 7  -5088066.514 9
  23813468.456    -1516248.728 5  -1091355.915 9
  22523833.050    -9052070.385 6  -6893204.247 9
  21146170.972     4851552.785 7   3800926.347 9
  20517428.464    -3503685.139 8  -2684747.606 9
  20843862.440   -10971922.618 7  -8466066.035 9
  23934537.276     2808036.373 5   2231867.218 9
  23476287.878    12562369.310 5   9756569.905 9
 94  3 17 20 18 29.9990000  0  8 31 16  2 18 19 27 28 29
  21814318.542    -6618816.359 7  -5072833.060 9
  23810477.409    -1531964.846 5  -1103602.234 9
  22511476.659    -9117001.641 6  -6943799.937 9
  21160980.440     4929377.212 7   3861568.741 9
  20518839.409    -3496269.348 8  -2678969.052 9
  20836212.401   -11012123.213 7  -8497391.159 9
  23947892.737     2878217.926 5   2286554.088 9
  23496613.245    12669177.221 5   9839796.692 9
 94  3 17 20 18 59.9990000  0  8 31 16  2 18 19 27 28 29
  21818167.183    -6598591.375 7  -5057073.339 9
  23807599.487    -1547083.674 5  -1115383.153 9
  22499184.144    -9181600.110 6  -6994136.305 9
  21175888.878     5007721.354 7   3922616.111 9
  20520308.894    -3488547.585 8  -2672952.080 9
  20828608.237   -11052083.075 7  -8528528.694 9
  23961346.901     2948916.687 5   2341644.005 9
  23516986.737    12776242.027 5   9923223.654 9
 94  3 17 20 19 29.9990000  0  8 31 16  2 18 19 27 28 29
  21822143.722    -6577693.147 7  -5040789.006 9
  23804837.815    -1561602.276 5  -1126696.331 9
  22486953.815    -9245871.666 6  -7044217.937 9
  21190893.753     5086572.304 7   3984058.390 9
  20521835.886    -3480523.114 8  -2666699.238 9
  20821052.808   -11091788.101 7  -8559467.659 9
  23974898.440     3020132.613 5   2397136.902 9
  23537407.026    12883550.327 5  10006840.314 9
 94  3 17 20 19 59.9990000  0  8 31 16  2 18 19 27 28 29
  21826253.800    -6556094.901 7  -5023959.211 9
  23802193.753    -1575494.284 5  -1137521.260 9
  22474788.487    -9309800.078 6  -7094032.189 9
  21205994.104     5165925.279 7   4045891.867 9
  20523421.198    -3472191.873 8  -2660207.353 9
  20813553.940   -11131193.030 7  -8590172.777 9
  23988551.737     3091877.131 5   2453041.691 9
  23557877.144    12991120.606 5  10090661.147 9
 94  3 17 20 20 29.9990000  0  8 31 16  2 18 19 27 28 29
  21830493.628    -6533815.198 7  -5006598.399 9
  23799668.081    -1588764.911 5  -1147862.006 9
  22462689.292    -9373380.838 6  -7143575.542 9
  21221185.237     5245755.364 7   4108097.119 9
  20525061.737    -3463571.615 8  -2653490.261 9
  20806112.433   -11170300.109 7  -8620645.805 9
  24002304.550     3164145.850 5   2509354.952 9
  23578398.558    13098958.910 5  10174690.818 9
 94  3 17 20 20 59.9990000  0  8 31 16  2 18 19 27 28 29
  21834862.831    -6510854.896 7  -4988707.257 9
  23797259.878    -1601423.551 5  -1157725.876 9
  22450654.589    -9436623.319 7  -7192855.296 9
  21236462.378     5326036.192 7   4170653.564 9
  20526758.401    -3454655.072 8  -2646542.298 9
  20798725.276   -11209120.038 7  -8650895.080 9
  24016155.972     3236935.901 5   2566074.434 9
  23598972.948    13207080.706 5  10258941.379 9
 94  3 17 20 21 29.9990000  0  8 31 16  2 18 19 27 28 29
  21839361.776    -6487210.890 7  -4970283.347 9
  23794967.331    -1613470.563 5  -1167113.160 9
  22438682.425    -9499536.212 6  -7241878.231 9
  21251821.894     5406751.367 7   4233548.452 9
  20528510.683    -3445446.588 8  -2639366.851 9
  20791390.995   -11247660.683 7  -8680926.726 9
  24030103.409     3310232.759 5   2623188.845 9
  23619600.964    13315478.501 5  10343407.018 9
 94  3 17 20 21 59.9990000  0  8 31 16  2 18 19 27 28 29
  21843987.972    -6462902.003 7  -4951341.342 9
  23792787.597    -1624925.066 5  -1176038.744 9
  22426771.753    -9562127.884 7  -7290650.858 9
  21267263.042     5487894.747 7   4296777.003 9
  20530316.565    -3435957.058 8  -2631972.404 9
  20784106.190   -11285942.737 7  -8710756.872 9
  24044145.206     3384022.292 5   2680687.153 9
  23640281.362    13424152.840 5  10428088.126 9
 94  3 17 20 22 29.9990000  0  8 31 16  2 18 19 27 28 29
  21848739.370    -6437933.206 7  -4931885.122 9
  23790720.956    -1635785.049 5  -1184501.074 9
  22414921.315    -9624403.511 7  -7339177.217 9
  21282788.683     5569482.121 7   4360351.532 9
  20532178.190    -3426173.868 8  -2624349.132 9
  20776866.050   -11323989.612 7  -8740403.761 9
  24058281.331     3458310.428 5   2738573.962 9
  23661014.597    13533109.301 5  10512989.079 9
 94  3 17 20 22 59.9990000  0  7 31 16  2 18 19 27 29
  21853616.987    -6412299.549 7  -4911910.836 9
  23788767.956    -1646046.753 5  -1192497.217 9
  22403127.675    -9686376.070 7  -7387467.424 9
  21298400.573     5651522.459 7   4424279.022 9
  20534095.456    -3416098.697 8  -2616498.340 9
  20769670.073   -11361804.273 7  -8769869.702 9
  23681797.573    13642322.528 5  10598090.094 9
 94  3 17 20 23 29.9990000  0  7 31 16  2 18 19 27 29
  21858621.605    -6386000.190 7  -4891417.839 9
  23786926.839    -1655721.341 5  -1200035.867 9
  22391394.542    -9748036.171 6  -7435514.177 9
  21314101.808     5734034.982 7   4488574.424 9
  20536067.706    -3405735.278 8  -2608422.969 9
  20762520.378   -11399377.128 7  -8799147.247 9
  23702625.659    13751773.119 5  10683376.068 9
 94  3 17 20 23 59.9990000  0  7 31 16  2 18 19 27 29
  21863755.698    -6359020.134 7  -4870394.417 9
  23785199.956    -1664794.537 5  -1207105.876 9
  22379727.151    -9809345.239 6  -7483287.376 9
  21329899.956     5817054.623 7   4553264.991 9
  20538100.745    -3395050.943 7  -2600097.511 9
  20755421.331   -11436681.867 7  -8828215.852 9
  23723501.956    13861476.839 5  10768859.281 9
 94  3 17 20 24 29.9990000  0  7 31 16  2 18 19 27 29
  21869021.050    -6331352.212 7  -4848834.966 9
  23783591.339    -1673254.874 5  -1213698.313 9
  22368128.128    -9870298.529 6  -7530783.330 9
  21345797.120     5900593.344 7   4618360.050 9
  20540199.292    -3384022.549 7  -2591503.940 9
  20748380.409   -11473681.106 7  -8857046.383 9
  23744424.823    13971429.983 5  10854536.880 9
 94  3 17 20 24 59.9990000  0  7 31 16  2 18 19 27 29
  21874418.604    -6302987.576 7  -4826732.631 9
  23782098.065    -1681100.491 5  -1219811.764 9
  22356598.753    -9930885.145 6  -7577993.573 9
  21361790.917     5984641.617 7   4683852.170 9
  20542365.573    -3372639.799 8  -2582634.250 9
  20741401.683   -11510355.598 7  -8885623.873 9
  23765394.979    14081625.501 5  10940403.343 9
 94  3 17 20 25 29.9990000  0  7 31 16  2 18 19 27 29
  21879950.487    -6273917.907 7  -4804080.918 9
  23780723.417    -1688321.328 5  -1225438.366 9
  22345143.901    -9991081.772 6  -7624899.933 9
  21377881.917     6069199.551 7   4749741.415 9
  20544600.667    -3360894.252 8  -2573481.869 9
  20734487.323   -11546691.489 7  -8913937.525 9
  23786414.222    14192083.208 5  11026474.083 9
 94  3 17 20 25 59.9990000  0  7 31 16  2 18 19 27 29
  21885617.472    -6244136.812 7  -4780874.854 9
  23779473.011    -1694894.996 5  -1230560.686 9
  22333763.792   -10050885.212 7  -7671499.917 9
  21394068.261     6154258.518 7   4816021.085 9
  20546906.612    -3348776.397 8  -2564039.380 9
  20727638.612   -11582681.216 7  -8941981.446 9
  23807485.534    14302810.200 5  11112754.660 9
 94  3 17 20 26 29.9990000  0  7 31 16  2 18 19 27 29
  21891420.183    -6213644.463 7  -4757114.568 9
  23778345.565    -1700815.027 5  -1235173.693 9
  22322456.362   -10110305.755 7  -7717801.542 9
  21410346.026     6239799.069 7   4882676.011 9
  20549282.261    -3336291.078 7  -2554310.552 9
  20720853.026   -11618339.245 7  -8969766.899 9
  23828606.659    14413804.572 5  11199243.593 9
 94  3 17 20 26 59.9990000  0  7 31 16  2 18 19 27 29
  21897361.690    -6182420.814 7  -4732784.437 9
  23777347.198    -1706061.354 5  -1239261.765 9
  22311226.503   -10169317.972 7  -7763784.993 9
  21426718.401     6325835.891 7   4949717.647 9
  20551725.729    -3323450.180 7  -2544304.647 9
  20714126.745   -11653686.757 7  -8997310.393 9
  23849784.456    14525092.256 5  11285961.014 9
 94  3 17 20 27 29.9990000  0  7 31 16  2 18 19 27 29
  21903440.050    -6150479.361 7  -4707894.981 9
  23776475.237    -1710649.284 5  -1242836.769 9
  22300074.144   -10227922.913 7  -7809451.097 9
  21443187.511     6412382.228 7   5017156.298 9
  20554234.831    -3310266.062 8  -2534031.309 9
  20707458.370   -11688729.180 7  -9024616.159 9
  23871019.378    14636679.678 5  11372912.076 9
 94  3 17 20 27 59.9990000  0  7 31 16  2 18 19 27 29
  21909656.792    -6117810.766 7  -4682438.925 9
  23775730.073    -1714564.057 5  -1245887.277 9
  22289001.901   -10286107.408 7  -7854789.576 9
  21459757.534     6499457.862 7   5085007.398 9
  20556814.245    -3296710.785 7  -2523468.753 9
  20700850.526   -11723453.591 7  -9051674.126 9
  23892314.659    14748589.334 5  11460114.221 9
 94  3 17 20 28 29.9990000  0  7 31 16  2 18 19 27 29
  21916012.706    -6084410.739 7  -4656412.917 9
  23775111.737    -1717808.810 5  -1248415.671 9
  22278012.394   -10343860.080 7  -7899791.568 9
  21476428.815     6587066.197 7   5153273.601 9
  20559461.714    -3282796.740 7  -2512626.637 9
  20694303.394   -11757858.896 7  -9078483.438 9
  23913671.839    14860821.024 5  11547567.279 9
 94  3 17 20 28 59.9990000  0  7 31 16  2 18 19 27 29
  21922507.690    -6050277.380 7  -4629815.485 9
  23774621.604    -1720386.715 5  -1250424.416 9
  22267104.167   -10401179.362 7  -7944455.859 9
  21493201.667     6675207.387 7   5221955.007 9
  20562177.769    -3268525.302 7  -2501506.026 9
  20687822.026   -11791920.011 7  -9105024.550 9
  23935089.089    14973368.615 5  11635266.514 9
 94  3 17 20 29 29.9990000  0  7 31 16  2 18 19 27 29
  21929142.511    -6015411.909 7  -4602647.585 9
  23774259.370    -1722290.394 5  -1251907.832 9
  22256277.511   -10458076.529 7  -7988791.231 9
  21510073.581     6763869.050 7   5291041.975 9
  20564966.612    -3253870.007 8  -2490086.313 9
  20681410.026   -11825613.274 7  -9131279.028 9
  23956564.448    15086217.746 5  11723200.716 9
 94  3 17 20 29 59.9990000  0  7 31 16  2 18 19 27 29
  21935921.284    -5979790.101 7  -4574890.329 9
  23774031.354    -1723488.950 5  -1252841.781 9
  22245530.253   -10514551.393 7  -8032797.543 9
  21527042.589     6853042.936 7   5360528.080 9
  20567829.175    -3238826.748 8  -2478364.287 9
  20675070.698   -11858926.732 7  -9157237.547 9
  23978094.073    15199359.206 5  11811362.707 9
 94  3 17 20 30 29.9990000  0  7 31 16  2 18 19 27 29
  21942846.761    -5943395.786 7  -4546531.119 9
  23773937.667    -1723982.044 5  -1253226.025 9
  22234862.331   -10570611.421 7  -8076480.599 9
  21544109.831     6942731.691 7   5430415.377 9
  20570763.394    -3223407.126 8  -2466348.990 9
  20668804.753   -11891854.280 7  -9182895.354 9
  23999676.979    15312778.347 5  11899741.068 9
 94  3 17 20 30 59.9990000  0  6 31 16  2 18 19 27
  21949918.519    -5906232.258 7  -4517572.528 9
  23773977.362    -1723768.135 5  -1253059.337 9
  22224271.206   -10626268.338 7  -8119849.545 9
  21561276.409     7032942.805 7   5500709.707 9
  20573772.815    -3207593.028 8  -2454026.307 9
  20662613.300   -11924391.334 7  -9208248.888 9
 94  3 17 20 31 29.9990000  0  6 31 16  2 18 19 27
  21957137.558    -5868295.487 7  -4488011.423 9
  23774152.167    -1722852.699 5  -1252346.047 9
  22213756.745   -10681521.948 7  -8162904.237 9
  21578542.722     7123678.922 7   5571413.116 9
  20576855.448    -3191393.523 7  -2441403.321 9
  20656492.284   -11956556.705 7  -9233312.809 9
 94  3 17 20 31 59.9990000  0  6 31 16  2 18 19 27
  21964503.300    -5829588.030 7  -4457849.808 9
  23774455.878    -1721258.482 5  -1251103.830 9
  22203321.503   -10736358.222 6  -8205633.756 9
  21595910.511     7214947.450 7   5642531.373 9
  20580008.839    -3174820.987 7  -2428489.681 9
  20650442.120   -11988348.871 7  -9258085.944 9
 94  3 17 20 32 29.9990000  0  6 31 16  2 18 19 27
  21972009.651    -5790142.560 7  -4427113.038 9
  23774882.151    -1719021.472 5  -1249360.671 9
  22192965.097   -10790781.660 7  -8248041.513 9
  21613376.956     7306732.079 7   5714051.857 9
  20583232.401    -3157880.462 7  -2415289.218 9
  20644459.534   -12019788.300 7  -9282584.140 9
 94  3 17 20 32 59.9990000  0  6 31 16  2 18 19 27
  21979652.019    -5749981.252 7  -4395818.503 9
  23775428.378    -1716149.054 5  -1247122.422 9
  22182686.378   -10844797.808 7  -8290131.934 9
  21630936.839     7399008.372 7   5785955.423 9
  20586525.003    -3140579.924 8  -2401808.253 9
  20638541.815   -12050888.746 7  -9306818.227 9
 94  3 17 20 33 29.9990000  0  6 31 16  2 18 19 27
  21987429.964    -5709107.609 7  -4363968.907 9
  23776096.230    -1712637.111 5  -1244385.838 9
  22172487.190   -10898394.483 7  -8331895.503 9
  21648589.589     7491773.801 7   5858240.124 9
  20589886.714    -3122914.343 8  -2388042.852 9
  20632689.042   -12081643.485 7  -9330782.942 9
 94  3 17 20 33 59.9990000  0  6 31 16  2 18 19 27
  21995342.065    -5667530.701 7  -4331571.316 9
  23776887.870    -1708478.703 5  -1241145.511 9
  22162369.175   -10951563.562 7  -8373325.878 9
  21666336.433     7585035.162 7   5930911.266 9
  20593321.878    -3104862.042 8  -2373976.110 9
  20626903.604   -12112046.902 7  -9354473.901 9
 94  3 17 20 34 29.9990000  0  6 31 16  2 18 19 27
  22003386.839    -5625255.048 7  -4298629.251 9
  23777806.261    -1703651.396 5  -1237384.011 8
  22152333.300   -11004303.820 7  -8414422.108 9
  21684176.847     7678785.485 7   6003963.414 9
  20596831.011    -3086420.839 8  -2359606.334 9
  20621184.292   -12142101.275 7  -9377892.879 9
 94  3 17 20 34 59.9990000  0  6 31 16  2 18 19 27
  22011565.604    -5582276.461 7  -4265139.441 9
  23778852.425    -1698155.112 5  -1233101.229 9
  22142378.667   -11056615.279 7  -8455184.212 9
  21702109.878     7773025.203 7   6077396.915 9
  20600416.362    -3067580.014 8  -2344925.159 9
  20615530.933   -12171811.579 7  -9401043.749 9
 94  3 17 20 35 29.9990000  0  6 31 16  2 18 19 27
  22019878.862    -5538590.107 7  -4231098.120 9
  23780025.300    -1691996.953 5  -1228302.695 9
  22132506.300   -11108493.327 7  -8495608.588 9
  21720140.120     7867774.946 7   6151227.823 9
  20604081.519    -3048319.471 8  -2329916.936 9
  20609943.144   -12201174.344 7  -9423923.814 9
 94  3 17 20 35 59.9990000  0  6 31 16  2 18 19 27
  22028329.526    -5494179.972 7  -4196492.820 9
  23781323.917    -1685167.250 5  -1222980.893 9
  22122719.769   -11159922.589 7  -8535683.269 9
  21738268.058     7963038.904 7   6225459.414 9
  20607827.097    -3028635.743 8  -2314578.961 9
  20604424.284   -12230175.888 7  -9446522.408 9
 94  3 17 20 36 29.9990000  0  6 31 16  2 18 19 27
  22036919.261    -5449041.145 7  -4161319.710 9
  23782749.675    -1677678.374 5  -1217145.435 9
  22113014.636   -11210923.802 7  -8575424.398 9
  21756490.269     8058795.783 7   6300075.103 9
  20611651.190    -3008540.842 8  -2298920.600 9
  20598976.034   -12258807.116 7  -9468832.443 9
 94  3 17 20 36 59.9990000  0  6 31 16  2 18 19 27
  22045648.237    -5403170.189 7  -4125576.105 9
  23784298.542    -1669538.204 5  -1210802.465 9
  22103387.480   -11261513.960 7  -8614845.225 9
  21774807.190     8155050.488 7   6375078.706 9
  20615553.245    -2988035.339 8  -2282942.285 9
  20593600.651   -12287054.899 7  -9490843.699 9
 94  3 17 20 37 29.9990000  0  6 31 16  2 18 19 27
  22054518.800    -5356553.294 7  -4089251.253 9
  23785975.628    -1660721.644 5  -1203932.411 9
  22093839.761   -11311687.493 7  -8653941.418 9
  21793220.112     8251812.617 7   6450477.703 9
  20619531.331    -2967129.791 8  -2266652.248 9
  20588305.292   -12314881.994 7  -9512527.135 9
 94  3 17 20 37 59.9990000  0  6 31 16  2 18 19 27
  22063534.167    -5309178.274 7  -4052335.653 9
  23787784.737    -1651213.499 5  -1196523.440 9
  22084373.214   -11361433.703 7  -8692704.635 9
  21811725.558     8349057.696 7   6526253.022 9
  20623582.144    -2945842.258 8  -2250064.559 9
  20583090.159   -12342287.063 7  -9533881.718 9
 94  3 17 20 38 29.9990000  0  6 31 16  2 18 19 27
  22072692.808    -5261049.284 7  -4014832.547 9
  23789726.120    -1641016.434 5  -1188577.662 9
  22074985.479   -11410767.439 7  -8731146.445 9
  21830322.347     8446784.340 7   6602403.582 9
  20627706.878    -2924167.011 8  -2233174.764 9
  20577952.073   -12369288.552 7  -9554921.820 9
 94  3 17 20 38 59.9990000  0  6 31 16  2 18 19 27
  22081994.472    -5212168.780 7  -3976743.847 9
  23791799.050    -1630119.982 5  -1180086.935 9
  22065678.394   -11459676.707 7  -8769257.507 9
  21849012.573     8545001.885 7   6678936.655 9
  20631905.675    -2902100.729 8  -2215980.268 9
  20572886.448   -12395907.655 7  -9575663.964 9
 94  3 17 20 39 29.9990000  0  6 31 16  2 18 19 27
  22091438.667    -5162538.332 7  -3938070.768 9
  23794005.776    -1618525.759 5  -1171052.487 9
  22056454.394   -11508148.243 7  -8807027.478 9
  21867794.339     8643700.429 7   6755844.542 9
  20636179.987    -2879641.075 8  -2198479.243 9
  20567888.417   -12422173.517 7  -9596130.843 9
 94  3 17 20 39 59.9990000  0  6 31 16  2 18 19 27
  22101023.065    -5112171.543 7  -3898823.921 9
  23796342.948    -1606241.661 5  -1161480.526 9
  22047312.753   -11556187.441 7  -8844460.563 9
  21886666.519     8742873.891 7   6833122.492 9
  20640530.237    -2856780.004 8  -2180665.421 9
  20562954.229   -12448101.788 7  -9616334.676 9
 94  3 17 20 40 29.9990000  0  6 31 16  2 18 19 27
  22110741.175    -5061104.631 7  -3859031.525 9
  23798809.800    -1593279.793 5  -1151380.397 9
  22038248.722   -11603819.620 7  -8881576.488 9
  21905628.144     8842518.095 7   6910767.252 9
  20644956.753    -2833518.333 8  -2162539.446 9
  20558086.323   -12473683.735 7  -9636268.643 9
 94  3 17 20 40 59.9990000  0  6 31 16  2 18 19 27
  22120589.198    -5009352.776 7  -3818705.404 9
  23801403.401    -1579648.833 5  -1140758.906 9
  22029262.737   -11651039.989 7  -8918371.526 9
  21924676.487     8942619.362 7   6988768.167 9
  20649454.854    -2809879.716 7  -2144119.742 9
  20553286.331   -12498907.628 7  -9655923.606 9
 94  3 17 20 41 29.9990000  0  6 31 16  2 18 19 27
  22130566.729    -4956918.108 7  -3777847.229 9
  23804121.714    -1565364.823 5  -1129628.542 9
  22020356.519   -11697842.719 7  -8954841.127 9
  21943810.761     9043168.420 7   7067118.023 9
  20654025.026    -2785864.894 8  -2125406.891 9
  20548559.284   -12523747.275 7  -9675279.163 9
 94  3 17 20 41 59.9990000  0  6 31 16  2 18 19 27
  22140674.362    -4903803.046 7  -3736458.872 9
  23806963.026    -1550438.644 5  -1117997.793 9
  22011528.237   -11744233.732 7  -8990989.905 9
  21963030.183     9144166.814 7   7145818.010 9
  20658666.097    -2761475.350 8  -2106402.049 9
  20543909.917   -12548180.156 7  -9694317.746 9
 94  3 17 20 42 29.9990000  0  6 31 16  2 18 19 27
  22150915.151    -4849987.384 7  -3694524.594 9
  23809921.089    -1534889.581 5  -1105881.661 9
  22002780.190   -11790207.283 7  -9026813.391 9
  21982337.034     9245625.897 7   7224876.984 9
  20663378.714    -2736712.180 8  -2087106.072 9
  20539335.878   -12572217.664 7  -9713048.253 9
 94  3 17 20 42 59.9990000  0  6 31 16  2 18 19 27
  22161292.956    -4795451.861 7  -3652029.380 9
  23812996.800    -1518726.617 5  -1093287.154 9
  21994112.792   -11835753.182 7  -9062303.636 9
  22001735.370     9347562.913 7   7304308.357 9
  20668162.472    -2711572.093 8  -2067516.391 9
  20534834.229   -12595874.505 7  -9731482.140 9
 94  3 17 20 43 29.9990000  0  6 31 16  2 18 19 27
  22171805.909    -4740205.288 7  -3608980.105 9
  23816187.925    -1501960.721 5  -1080222.816 9
  21985523.151   -11880891.587 7  -9097476.353 9
  22021223.401     9449973.258 7   7384108.569 9
  20673018.979    -2686051.018 8  -2047629.834 9
  20530401.722   -12619167.387 7  -9749632.419 9
 94  3 17 20 43 59.9990000  0  6 31 16  2 18 19 27
  22182451.128    -4684264.901 7  -3565390.203 9
  23819496.730    -1484568.881 5  -1066670.758 9
  21977009.581   -11925632.144 7  -9132339.061 9
  22040803.511     9552867.688 7   7464285.979 9
  20677947.690    -2660149.958 8  -2027447.183 9
  20526035.190   -12642112.433 7  -9767511.658 9
 94  3 17 20 44 29.9990000  0  6 31 16  2 18 19 27
  22193226.214    -4627641.582 7  -3521268.142 9
  23822929.292    -1466533.377 5  -1052617.122 9
  21968570.284   -11969980.274 7  -9166895.980 9
  22060477.050     9656253.461 7   7544846.260 9
  20682950.722    -2633858.145 8  -2006960.055 9
  20521734.901   -12664710.854 7  -9785120.798 9
 94  3 17 20 44 59.9990000  0  6 31 16  2 18 19 27
  22204125.901    -4570363.590 7  -3476635.945 9
  23826485.581    -1447843.866 5  -1038053.907 9
  21960204.104   -12013943.122 7  -9201152.687 9
  22080239.737     9760106.960 7   7625771.001 9
  20688028.034    -2607177.740 8  -1986170.124 9
  20517502.401   -12686953.286 8  -9802452.544 9
 94  3 17 20 45 29.9990000  0  6 31 16  2 18 19 27
  22215148.979    -4512437.669 7  -3431498.870 9
  23830167.979    -1428493.579 5  -1022975.809 9
  21951912.440   -12057516.353 7  -9235105.790 9
  22100089.690     9864416.869 7   7707051.391 9
  20693180.401    -2580101.432 7  -1965071.701 9
  20513339.878   -12708828.313 8  -9819497.998 9
 94  3 17 20 45 59.9990000  0  6 31 16  2 18 19 27
  22226295.394    -4453863.978 7  -3385857.032 9
  23833973.222    -1408498.656 5  -1007395.385 9
  21943694.261   -12100703.590 7  -9268758.123 9
  22120021.925     9969161.859 7   7788670.806 9
  20698406.230    -2552639.613 7  -1943672.879 9
  20509246.222   -12730338.711 7  -9836259.327 9
 94  3 17 20 46 29.9990000  0  6 31 16  2 18 19 27
  22237568.495    -4394623.515 7  -3339695.632 9
  23837894.956    -1387890.086 5   -991336.810 9
  21935549.339   -12143504.984 7  -9302109.795 9
  22140029.542    10074303.148 7   7870599.027 9
  20703703.229    -2524803.546 7  -1921982.431 9
  20505223.269   -12751480.673 7  -9852733.561 9
 94  3 17 20 46 59.9990000  0  6 31 16  2 18 19 27
  22248969.519    -4334709.472 7  -3293009.370 9
  23841929.722    -1366685.406 5   -974813.716 9
  21927479.589   -12185910.986 7  -9335153.374 9
  22160106.714    10179808.601 7   7952811.008 9
  20709066.878    -2496617.738 7  -1900019.464 9
  20501267.472   -12772268.843 8  -9868932.123 9
 94  3 17 20 47 29.9990000  0  6 31 16  2 18 19 27
  22260498.565    -4274123.557 7  -3245799.574 9
  23846075.487    -1344898.401 5   -957836.865 9
  21919483.315   -12227931.630 7  -9367896.687 9
  22180250.136    10285663.264 7   8035295.088 9
  20714494.433    -2468095.681 7  -1877794.490 9
  20497377.417   -12792711.607 8  -9884861.538 9
 94  3 17 20 47 59.9990000  0  6 31 16  2 18 19 27
  22272153.550    -4212877.165 7  -3198075.130 9
  23850331.175    -1322534.396 5   -940410.404 9
  21911559.190   -12269573.589 7  -9400344.916 9
  22200458.245    10391856.630 7   8118043.096 9
  20719983.198    -2439250.799 7  -1855317.970 9
  20493551.909   -12812814.049 8  -9900525.773 9
 94  3 17 20 48 29.9990000  0  6 31 16  2 18 19 27
  22283929.175    -4150994.166 7  -3149854.611 9
  23854697.886    -1299590.190 5   -922531.771 9
  21903703.753   -12310853.165 7  -9432510.763 9
  22220731.222    10498392.789 7   8201058.226 9
  20725531.800    -2410093.123 7  -1832597.700 9
  20489787.980   -12832592.890 7  -9915937.833 9
 94  3 17 20 49  0.0000000  0  6 31 16  2 18 19 27
  22295822.016    -4088498.141 7  -3101156.409 9
  23859176.836    -1276052.890 5   -904191.053 9
  21895918.633   -12351764.114 7  -9464389.355 9
  22241076.195    10605304.274 7   8284365.807 9
  20731142.789    -2380607.170 7  -1809621.629 9
  20486086.734   -12852044.253 8  -9931094.718 9
 94  3 17 20 49 30.0000000  0  6 31 16  2 18 19 27
  22307829.703    -4025396.725 7  -3051986.480 9
  23863768.391    -1251924.551 5   -885389.767 9
  21888202.563   -12392313.161 7  -9495985.954 9
  22261493.164    10712597.465 7   8367970.829 9
  20736819.484    -2350776.805 7  -1786377.186 9
  20482450.508   -12871152.379 8  -9945984.148 9
 94  3 17 20 50  0.0000000  0  6 31 16  2 18 19 27
  22319956.172    -3961671.423 7  -3002330.406 9
  23868474.648    -1227193.016 5   -866118.479 9
  21880557.469   -12432487.440 7  -9527290.531 9
  22281988.445    10820299.498 7   8451894.423 9
  20742564.883    -2320585.525 7  -1762851.519 9
  20478880.406   -12889912.497 8  -9960602.407 9
 94  3 17 20 50 30.0000000  0  6 31 16  2 18 19 27
  22332202.172    -3897317.979 7  -2952184.876 9
  23873293.039    -1201871.269 5   -846387.302 9
  21872982.031   -12472296.608 7  -9558310.602 9
  22302560.508    10928406.839 7   8536133.837 9
  20748377.906    -2290035.860 7  -1739046.586 9
  20475376.297   -12908326.602 8  -9974951.038 9
 94  3 17 20 51  0.0000000  0  6 31 16  2 18 19 27
  22344569.773    -3832327.393 7  -2901542.865 9
  23878222.742    -1175963.658 5   -826199.603 9
  21865479.313   -12511723.398 7  -9589032.724 9
  22323208.508    11036913.878 7   8620684.704 9
  20754261.828    -2259116.319 7  -1714953.439 9
  20471940.570   -12926382.191 8  -9989020.308 9
 94  3 17 20 51 30.0000000  0  6 31 16  2 18 19 27
  22357062.031    -3766678.519 7  -2850387.905 9
  23883265.656    -1149466.844 5   -805552.781 9
  21858049.852   -12550765.232 7  -9619454.870 9
  22343931.438    11145812.747 7   8705540.888 9
  20760215.336    -2227831.156 7  -1690575.386 9
  20468574.398   -12944072.645 8 -10002805.058 9
 94  3 17 20 52  0.0000000  0  6 31 16  2 18 19 27
  22369679.445    -3700374.604 7  -2798722.527 9
  23888420.125    -1122381.516 5   -784447.366 9
  21850694.594   -12589416.072 7  -9649572.352 9
  22364729.961    11255107.930 7   8790705.899 9
  20766236.492    -2196188.868 7  -1665919.056 9
  20465276.500   -12961401.262 8 -10016307.852 9
 94  3 17 20 52 30.0000000  0  6 31 16  2 18 19 27
  22382417.898    -3633434.087 7  -2746561.092 9
  23893683.469    -1094718.815 5   -762892.041 9
  21843411.633   -12627688.275 7  -9679394.789 9
  22385599.219    11364777.438 7   8876162.586 9
  20772325.297    -2164191.288 7  -1640985.869 9
  20462048.328   -12978365.650 8 -10029526.832 9
 94  3 17 20 53  0.0000000  0  6 31 16  2 18 19 27
  22395273.125    -3565879.928 7  -2693921.494 9
  23899055.922    -1066488.539 5   -740894.457 9
  21836198.688   -12665591.920 7  -9708930.039 9
  22406535.344    11474795.991 7   8961891.261 9
  20778479.484    -2131852.115 7  -1615786.507 9
  20458885.766   -12994985.760 8 -10042477.543 9
 94  3 17 20 53 30.0000000  0  6 31 16  2 18 19 27
  22408247.195    -3497700.653 7  -2640794.799 9
  23904538.000    -1037680.078 5   -718446.310 9
  21829055.609   -12703130.297 7  -9738180.669 9
  22427540.844    11585180.412 7   9047905.016 9
  20784699.141    -2099165.956 7  -1590316.761 9
  20455789.063   -13011259.392 8 -10055158.275 9
 94  3 17 20 54  0.0000000  0  6 31 16  2 18 19 27
  22421336.805    -3428914.190 7  -2587194.962 9
  23910129.766    -1008295.757 5   -695549.490 9
  21821979.000   -12740318.358 7  -9767158.316 9
  22448616.180    11695931.153 7   9134204.216 9
  20790986.914    -2066124.362 7  -1564570.053 9
  20452757.828   -13027188.700 8 -10067570.702 9
 94  3 17 20 54 30.0000000  0  6 31 16  2 18 19 27
  22434537.547    -3359544.673 7  -2533140.805 9
  23915829.102     -978346.899 5   -672212.760 9
  21814966.336   -12777168.800 7  -9795872.892 9
  22469757.516    11807029.145 7   9220774.006 9
  20797342.289    -2032727.840 7  -1538546.777 9
  20449789.563   -13042786.122 8 -10079724.525 9
 94  3 17 20 55  0.0000000  0  6 31 16  2 18 19 27
  22447850.195    -3289585.060 7  -2478626.826 9
  23921638.453     -947812.772 5   -648419.984 9
  21808023.602   -12813652.938 7  -9824302.034 9
  22490969.063    11918497.292 7   9307632.227 9
  20803766.141    -1998969.206 7  -1512241.334 9
  20446887.328   -13058037.288 8 -10091608.533 9
 94  3 17 20 55 30.0000000  0  6 31 16  2 18 19 27
  22461271.398    -3219058.007 7  -2423670.692 9
  23927554.828     -916725.286 5   -624196.007 9
  21801145.898   -12849795.711 7  -9852465.175 9
  22512246.016    12030307.950 7   9394757.336 9
  20810254.977    -1964870.743 7  -1485671.085 9
  20444049.305   -13072951.052 8 -10103229.628 9
 94  3 17 20 56  0.0000000  0  6 31 16  2 18 19 27
  22474797.820    -3147975.060 7  -2368281.395 9
  23933572.211     -885106.238 5   -599557.830 9
  21794332.102   -12885603.078 7  -9880366.961 9
  22533583.188    12142433.703 7   9482127.977 9
  20816805.484    -1930446.433 7  -1458846.930 9
  20441275.523   -13087528.093 8 -10114588.339 9
 94  3 17 20 56 30.0000000  0  7 31 16  2 18 19  7 27
  22488431.438    -3076329.398 7  -2312453.617 9
  23939688.945     -852958.105 5   -574507.389 9
  21787583.719   -12921065.031 7  -9907999.599 9
  22554978.313    12254866.517 7   9569737.885 9
  20823416.484    -1895705.607 7  -1431776.149 9
  24208876.867      -53831.17515
  20438565.438   -13101769.900 7 -10125685.841 9
 94  3 17 20 57  0.0000000  0  7 31 16  2 18 19  7 27
  22502174.930    -3004107.792 7  -2256177.049 9
  23945907.195     -820283.074 5   -549046.386 9
  21780899.461   -12956190.717 7  -9935370.207 9
  22576430.484    12367598.780 6   9657581.139 9
  20830086.250    -1860655.041 7  -1404464.007 9
  24190812.969     -148757.464 5
  20435919.281   -13115674.597 7 -10136520.651 9
 94  3 17 20 57 30.0000000  0  7 31 16  2 18 19  7 27
  22516033.227    -2931282.559 7  -2199430.120 9
  23952224.891     -787083.329 5   -523176.479 9
  21774278.227   -12990986.043 7  -9962483.401 9
  22597941.625    12480640.774 6   9745665.723 9
  20836819.516    -1825272.140 7  -1376892.907 9
  24172772.359     -243562.993 5
  20433337.320   -13129242.374 7 -10147092.933 9
 94  3 17 20 58  0.0000000  0  7 31 16  2 18 19  7 27
  22530003.023    -2857869.906 7  -2142225.458 9
  23958643.836     -753352.641 5   -496892.844 9
  21767719.586   -13025450.536 7  -9989338.800 9
  22619514.039    12594002.742 6   9833999.647 9
  20843616.852    -1789552.565 7  -1349059.468 9
  24154753.813     -338247.884 5
  20430816.391   -13142490.410 7 -10157416.059 9
 94  3 17 20 58 30.0000000  0  7 31 16  2 18 19  7 27
  22544085.313    -2783865.944 6  -2084560.038 9
  23965168.516     -719065.772 5   -470175.805 9
  21761227.227   -13059568.804 7 -10015924.411 9
  22641148.313    12707692.714 6   9922589.164 9
  20850482.641    -1753472.250 7  -1320944.935 9
  24136759.445     -432805.382 5
  20428358.094   -13155407.506 7 -10167481.308 9
 94  3 17 20 59  0.0000000  0  7 31 16  2 18 19  7 27
  22558279.781    -2709275.785 7  -2026437.844 9
  23971795.047     -684242.403 5   -443040.750 9
  21754797.633   -13093354.556 7 -10042250.923 9
  22662843.711    12821701.566 6  10011427.140 9
  20857416.016    -1717038.054 7  -1292554.648 9
  24118790.727     -527228.767 5
  20425962.008   -13168000.251 7 -10177293.816 9
 94  3 17 20 59 30.0000000  0  7 31 16  2 18 19  7 27
  22572581.281    -2634119.591 6  -1967874.584 9
  23978521.414     -648896.020 5   -415498.135 9
  21748432.227   -13126806.001 7 -10068316.930 9
  22684598.875    12936025.132 6  10100510.358 9
  20864413.078    -1680268.014 7  -1263902.669 9
  24100848.953     -621514.841 5
  20423625.688   -13180277.080 7 -10186860.160 9
 94  3 17 21  0  0.0000000  0  7 31 16  2 18 19  7 27
  22586987.648    -2558415.012 6  -1908884.010 9
  23985347.828     -613020.721 5   -387543.391 9
  21742131.445   -13159916.232 7 -10094117.062 9
  22706411.617    13050651.085 6  10189829.197 9
  20871471.078    -1643177.681 8  -1235001.110 9
  24082929.906     -715675.882 5
  20421353.633   -13192218.111 7 -10196164.845 9
 94  3 17 21  0 30.0000000  0  7 31 16  2 18 19  7 27
  22601503.219    -2482134.375 6  -1849444.558 9
  23992276.867     -576609.656 5   -359171.183 9
  21735897.773   -13192673.257 7 -10119641.969 9
  22728281.500    13165578.245 6  10279382.734 9
  20878590.219    -1605766.544 8  -1205849.580 9
  24065039.352     -809690.900 5     -9758.35019
  20419149.367   -13203801.391 7 -10205190.763 9
 94  3 17 21  1  0.0000000  0  7 31 16  2 18 19  7 27
  22616127.547    -2405281.310 6  -1789559.063 9
  23999308.055     -539660.411 5   -330379.634 9
  21729732.250   -13225075.583 7 -10144890.482 9
  22750210.047    13280814.327 6  10369176.998 9
  20885767.172    -1568051.660 8  -1176461.361 9
  24047177.719     -903554.991 5    -82898.888 9
  20417011.438   -13215035.908 7 -10213944.920 9
 94  3 17 21  1 30.0000000  0  7 31 16  2 18 19  7 27
  22630856.469    -2327880.284 6  -1729246.583 9
  24006442.734     -502167.811 5   -301164.654 9
  21723634.195   -13257120.301 7 -10169860.346 9
  22772194.164    13396340.299 6  10459197.133 9
  20893000.484    -1530039.248 8  -1146841.301 9
  24029338.578     -997297.643 5   -155944.792 9
  20414938.688   -13225927.264 7 -10222431.674 9
 94  3 17 21  2  0.0000000  0  7 31 16  2 18 19  7 27
  22645690.547    -2249925.593 6  -1668502.685 9
  24013682.398     -464124.585 5   -271520.601 9
  21717604.109   -13288807.931 7 -10194551.957 9
  22794232.422    13512151.770 6  10549439.741 9
  20900294.594    -1491708.993 7  -1116973.567 9
  24011523.453    -1090914.660 5   -228892.873 9
  20412933.570   -13236465.468 7 -10230643.248 9
 94  3 17 21  2 30.0000000  0  7 31 16  2 18 19  7 27
  22660629.008    -2171423.793 6  -1607332.468 9
  24021023.711     -425542.683 5
  21711639.289   -13320154.029 7 -10218977.437 9
  22816325.508    13628251.298 6  10639906.807 9
  20907648.789    -1453061.843 7  -1086858.897 9
  23993732.555    -1184405.475 5   -301742.603 9
  20410990.633   -13246674.865 7 -10238598.605 9
 94  3 17 21  3  0.0000000  0  7 31 16  2 18 19  7 27
  22675666.727    -2092400.573 6  -1545755.942 9
  24028463.820     -386447.472 5
  21705733.984   -13351184.535 7 -10243157.001 9
  22838472.227    13744631.002 6  10730592.193 9
  20915063.102    -1414099.489 8  -1056498.611 9
  23975962.164    -1277791.413 5   -374510.632 9
  20409108.781   -13256565.299 7 -10246305.419 9
 94  3 17 21  3 30.0000000  0  7 31 16  2 18 19  7 27
  22690805.469    -2012848.080 6  -1483766.991 9
  24035997.211     -346858.685 5     25731.23918
  21699887.531   -13381907.590 7 -10267096.990 9
  22860674.367    13861303.800 6  10821505.943 9
  20922541.805    -1374797.914 7  -1025873.998 9
  23958213.852    -1371056.124 5   -447184.231 9
  20407291.734   -13266113.871 7 -10253745.849 9
 94  3 17 21  4  0.0000000  0  7 31 16  2 18 19  7 27
  22706044.375    -1932765.968 6  -1421365.352 9
  24043622.109     -306790.754 5     56952.978 9
  21694097.164   -13412336.629 7 -10290807.874 9
  22882934.953    13978283.778 6  10912659.066 9
  20930086.430    -1335151.526 7   -994980.695 9
  23940492.430    -1464180.405 5   -519748.383 9
  20405538.828   -13275323.852 7 -10260922.441 9
 94  3 17 21  4 30.0000000  0  7 31 16  2 18 19  7 27
  22721383.414    -1852158.062 6  -1358554.000 9
  24051337.922     -266242.102 5     88549.287 9
  21688365.273   -13442458.278 7 -10314279.242 9
  22905253.516    14095568.779 6  11004049.862 9
  20937695.953    -1295161.664 7   -963819.760 9
  23922798.656    -1557159.802 5   -592199.662 9
  20403851.484   -13284191.041 7 -10267831.925 9
 94  3 17 21  5  0.0000000  0  7 31 16  2 18 19  7 27
  22736820.555    -1771037.399 6  -1295343.107 9
  24059144.148     -225222.668 5    120512.450 9
  21682691.938   -13472273.122 7 -10337511.536 9
  22927624.320    14213126.877 6  11095653.460 9
  20945369.469    -1254838.327 7   -932398.966 9
  23905131.930    -1650000.736 5   -664543.055 9
  20402230.188   -13292711.999 7 -10274471.615 9
 94  3 17 21  5 30.0000000  0  7 31 16  2 18 19  7 27
  22752357.656    -1689388.358 6  -1231720.485 9
  24067043.633     -183710.669 5    152859.398 9
  21677082.102   -13501751.891 7 -10360481.949 9
  22950046.672    14330956.983 6  11187469.010 9
  20953105.281    -1214186.776 7   -900722.420 9
  23887493.148    -1742692.959 5   -736770.573 9
  20400674.875   -13300883.691 7 -10280839.144 9
 94  3 17 21  6  0.0000000  0  7 31 16  2 18 19  7 27
  22767995.398    -1607210.690 6  -1167685.944 9
  24075039.930     -141690.159 5    185602.601 9
  21671539.586   -13530877.070 7 -10383176.840 9
  22972517.094    14449038.814 6  11279480.713 9
  20960901.469    -1173217.506 7   -868798.300 9
  23869880.688    -1835247.611 5   -808890.875 9
  20399186.227   -13308707.028 7 -10286935.222 9
 94  3 17 21  6 30.0000000  0  7 31 16  2 18 19  7 27
  22783735.406    -1524495.304 6  -1103232.401 9
  24083133.172      -99159.655 5    218743.231 9
  21666064.797   -13559647.235 7 -10405595.100 9
  22995032.766    14567360.267 6  11371679.124 9
  20968757.070    -1131935.350 7   -836630.375 9
  23852293.203    -1927669.296 5   -880907.549 9
  20397766.477   -13316169.109 7 -10292749.809 9
 94  3 17 21  7  0.0000000  0  7 31 16  2 18 19  7 27
  22799577.813    -1441246.436 6  -1038363.154 9
  24091319.211      -56138.173 5    252266.440 9
  21660652.820   -13588086.367 7 -10427755.412 9
  23017593.555    14685917.411 6  11464061.180 9
  20976671.211    -1090346.718 7   -804223.647 9
  23834728.789    -2019967.639 5   -952828.119 9
  20396413.477   -13323277.878 7 -10298289.086 9
 94  3 17 21  7 30.0000000  0  7 31 16  2 18 19  7 27
  22815517.664    -1357479.898 6   -973090.523 9
  24099598.445      -12638.409 5    286162.288 9
  21655300.000   -13616215.635 7 -10449674.272 9
  23040199.508    14804713.879 6  11556629.740 9
  20984643.938    -1048450.868 7   -771577.523 9
  23817188.891    -2112139.329 5  -1024650.014 9
  20395126.133   -13330043.438 7 -10303560.934 9
 94  3 17 21  8  0.0000000  0  7 31 16  2 18 19  7 27
  22831553.805    -1273211.167 6   -907426.593 9
  24107964.352       31327.820 5    320421.646 9
  21650002.398   -13644054.415 7 -10471366.784 9
  23062850.953    14923749.246 6  11649384.461 9
  20992677.977    -1006230.027 8   -738678.160 9
  23799676.414    -2204168.883 5  -1096361.100 9
  20393904.555   -13336462.167 7 -10308562.519 9
 94  3 17 21  8 30.0000000  0  7 31 16  2 18 19  7 27
  22847685.188    -1188438.907 6   -841370.297 9
  24116419.953       75762.860 5    355046.310 9
  21644757.203   -13671619.458 7 -10492845.990 9
  23085549.906    15043030.715 6  11742330.944 9
  21000775.289     -963679.421 8   -705521.842 9
  23782192.484    -2296047.920 5  -1167954.931 9
  20392746.359   -13342548.317 7 -10313304.952 9
 94  3 17 21  9  0.0000000  0  7 31 16  2 18 19  7 27
  22863911.945    -1103166.257 6   -774924.092 9
  24124968.219      120682.250 5    390048.342 9
  21639565.203   -13698902.458 7 -10514105.423 9
  23108298.430    15162572.279 6  11835480.085 9
  21008938.047     -920784.131 8   -672096.931 9
  23764740.055    -2387758.401 5  -1239417.389 9
  20391650.711   -13348306.170 7 -10317791.570 9
 94  3 17 21  9 30.0000000  0  7 31 16  2 18 19  7 27
  22880234.078    -1017393.076 6   -708087.858 9
  24133610.055      166097.317 5    425436.655 9
  21634430.086   -13725886.932 7 -10535132.242 9
  23131097.359    15282380.822 6  11928837.272 9
  21017166.375     -877543.567 8   -638402.986 9
  23747323.789    -2479278.168 5  -1310731.253 9
  20390618.102   -13353732.859 7 -10322020.141 9
 94  3 17 21 10  0.0000000  0  7 31 16  2 18 19  7 27
  22896654.633     -931103.082 6   -640848.916 9
  24142347.359      212009.800 5    461212.577 9
  21629356.727   -13752548.417 7 -10555907.384 9
  23153945.961    15402451.933 6  12022399.048 9
  21025460.250     -833958.503 8   -604440.602 9
  23729943.852    -2570609.727 5  -1381898.423 9
  20389648.109   -13358830.063 7 -10325991.976 9
 94  3 17 21 10 30.0000000  0  7 31 16  2 18 19  7 27
  22913175.055     -844286.910 6   -573199.959 9
  24151176.914      258411.391 5    497369.597 9
  21624346.320   -13778878.262 7 -10576424.104 9
  23176843.836    15522780.581 6  12116161.498 9
  21033817.688     -790039.669 8   -570218.141 9
  23712597.828    -2661765.215 5  -1452928.394 9
  20388740.805   -13363598.765 7 -10329707.838 9
 94  3 17 21 11  0.0000000  0  7 31 16  2 18 19  7 27
  22929792.563     -756961.292 6   -505154.036 9
  24160096.547      305283.353 5    533893.154 9
  21619400.680   -13804868.489 7 -10596676.183 9
  23199788.094    15643352.449 6  12210113.470 9
  21042237.336     -745794.616 8   -535741.484 9
  23695284.023    -2752748.343 5  -1523824.062 9
  20387898.711   -13368023.445 7 -10333155.628 9
 94  3 17 21 11 30.0000000  0  7 31 16  2 18 19  7 27
  22946508.992     -669117.999 6   -436704.729 9
  24169105.234      352623.439 5    570781.492 9
  21614522.438   -13830502.792 7 -10616650.922 9
  23222778.070    15764166.705 6  12304254.312 9
  21050719.023     -701223.443 8   -501010.705 9
  23678003.688    -2843556.415 5  -1594583.285 9
  20387126.195   -13372083.116 7 -10336318.990 9
 94  3 17 21 12  0.0000000  0  7 31 16  2 18 19  7 27
  22963323.664     -580754.273 6   -367849.886 9
  24178203.094      400433.752 5    608036.245 9
  21609711.672   -13855784.184 7 -10636350.670 9
  23245812.633    15885212.705 6  12398575.753 9
  21059263.797     -656320.567 8   -466021.456 9
  23660753.820    -2934204.998 5  -1665218.227 9
  20386424.195   -13375772.242 7 -10339193.616 9
 94  3 17 21 12 30.0000000  0  7 31 16  2 18 19  7 27
  22980234.375     -491886.443 6   -298602.234 9
  24187391.828      448719.825 5    645661.684 9
  21604965.422   -13880725.640 7 -10655785.531 9
  23268891.336    16006491.348 6  12493078.443 9
  21067869.977     -611094.387 8   -430780.282 9
  23643533.906    -3024695.276 5  -1735729.817 9
  20385796.375   -13379070.660 7 -10341763.799 9
 94  3 17 21 13  0.0000000  0  7 31 16  2 18 19  7 27
  22997237.203     -402538.302 6   -228980.325 9
  24196670.383      497478.390 5    683655.318 9
  21600282.039   -13905336.812 7 -10674963.023 9
  23292013.055    16127995.033 6  12587756.496 9
  21076536.938     -565550.603 8   -395291.625 9
  23626342.594    -3115031.918 5  -1806121.686 9
  20385242.859   -13381979.401 7 -10344030.336 9
 94  3 17 21 13 30.0000000  0  7 31 16  2 18 19  7 27
  23014336.898     -312677.796 6   -158959.166 9
  24206042.625      546727.331 5    722031.053 9
  21595663.625   -13929606.194 7 -10693874.182 9
  23315182.898    16249754.022 6  12682633.488 9
  21085270.453     -519654.765 8   -359528.640 9
  23609186.227    -3205190.549 5  -1876374.880 9
  20384764.758   -13384491.719 7 -10345987.975 9
 94  3 17 21 14  0.0000000  0  7 31 16  2 18 19  7 27
  23031531.609     -222318.802 6    -88549.579 9
  24215506.547      596464.201 5    760786.996 9
  21591106.914   -13953551.001 7 -10712532.432 9
  23338400.484    16371760.677 6  12777703.465 9
  21094073.141     -473395.798 8   -323482.701 9
  23592063.844    -3295166.156 5  -1946485.436 9
  20384361.047   -13386613.416 7 -10347641.232 9
 94  3 17 21 14 30.0000000  0  7 31 16  2 18 19  7 27
  23048818.555     -131476.503 6    -17763.387 9
  24225060.664      646672.100 5    799910.005 9
  21586609.492   -13977185.562 7 -10730948.927 9
  23361662.789    16494004.001 6  12872957.854 9
  21102945.063     -426774.266 8   -287154.238 9
  23574977.961    -3384952.453 5  -2016448.503 9
  20384029.500   -13388354.384 7 -10348997.819 9
 94  3 17 21 15  0.0000000  0  7 31 16  2 18 19  7 27
  23066193.539      -40170.938 6     53383.782 9
  24234699.141      697320.635 5    839376.332 9
  21582164.758   -14000541.773 7 -10749148.519 9
  23384963.063    16616448.088 6  12968368.684 9
  21111882.523     -379807.004 8   -250556.376 9
  23557926.367    -3474558.504 5  -2086271.105 9
  20383761.789   -13389762.576 7 -10350095.108 9
 94  3 17 21 15 30.0000000  0  7 31 16  2 18 19  7 27
  23083656.953       51599.506 6    124893.195 9
  24244423.547      748420.169 5    879194.100 9
  21577774.508   -14023613.011 7 -10767126.060 9
  23408302.320    16739096.455 6  13063938.692 9
  21120885.086     -332498.795 8   -213692.835 9
  23540914.242    -3563957.832 5  -2155932.660 9
  20383557.539   -13390837.366 7 -10350932.598 9
 94  3 17 21 16  0.0000000  0  7 31 16  2 18 19  7 27
  23101208.469      143834.554 6    196764.647 9
  24254235.313      799988.240 5    919376.979 9
  21573443.570   -14046372.138 7 -10784860.395 9
  23431680.445    16861950.354 6  13159668.853 9
  21129949.938     -284861.173 8   -176572.609 9
  23523944.758    -3653131.574 5  -2225418.431 9
  20383420.320   -13391556.185 7 -10351492.704 9
 94  3 17 21 16 30.0000000  0  7 31 16  2 18 19  7 27
  23118851.289      236545.335 6    269006.802 9
  24264138.508      852024.143 5    959924.401 9
  21569176.867   -14068794.712 7 -10802332.495 9
  23455100.422    16985023.610 6  13255569.942 9
  21139076.320     -236902.671 8   -139202.350 9
  23507020.242    -3742070.365 5  -2294721.135 9
  20383352.820   -13391912.102 7 -10351770.023 9
 94  3 17 21 17  0.0000000  0  7 31 16  2 18 19  7 27
  23136583.859      329731.350 6    341619.273 9
  24274131.063      904535.152 5   1000842.005 9
  21564974.828   -14090876.211 7 -10819538.819 9
  23478565.453    17108331.774 6  13351654.068 9
  21148262.797     -188629.134 8   -101586.613 9
  23490138.844    -3830780.312 5  -2363845.519 9
  20383358.438   -13391882.046 7 -10351746.589 9
 94  3 17 21 17 30.0000000  0  7 31 16  2 18 19  7 27
  23154405.227      423382.907 6    414594.499 9
  24284213.625      957519.590 5   1042128.515 9
  21560838.711   -14112610.874 7 -10836474.879 9
  23502076.664    17231881.706 6  13447926.597 9
  21157509.008     -140037.904 8    -63723.326 9
  23473297.852    -3919279.914 5  -2432806.040 9
  20383440.023   -13391454.414 7 -10351413.352 9
 94  3 17 21 18  0.0000000  0  7 31 16  2 18 19  7 27
  23172315.211      517499.644 6    487932.206 9
  24294381.398     1010950.949 5   1083763.292 9
  21556763.969   -14134023.914 7 -10853160.326 9
  23525628.102    17355643.827 6  13544364.459 9
  21166816.219      -91128.379 7    -25612.018 9
  23456490.375    -4007602.369 6  -2501628.517 9
  20383593.836   -13390644.808 7 -10350782.473 9
 94  3 17 21 18 30.0000000  0  7 31 16  2 18 19  7 27
  23190311.305      612068.878 6    561622.503 9
  24304629.992     1064811.784 5   1125732.699 8
  21552745.070   -14155143.328 7 -10869616.969 9
  23549215.875    17479601.240 6  13640954.503 9
  21176184.328      -41897.707 7     12749.540 9
  23439713.609    -4095764.567 6  -2570326.128 9
  20383816.656   -13389473.408 7 -10349869.675 9
 94  3 17 21 19  0.0000000  0  7 31 16  2 18 19  7 27
  23208392.695      707089.410 6    635664.455 9
  24314963.805     1119106.200 5   1168039.971 9
  21548779.086   -14175983.926 7 -10885856.354 9
  23572838.484    17603738.866 6  13737684.964 9
  21185615.508        7662.469 7     51367.852 9
  23422967.164    -4183766.331 6  -2638898.735 9
  20384107.797   -13387943.848 7 -10348677.789 9
 94  3 17 21 19 30.0000000  0  7 31 16  2 18 19  7 27
  23226563.188      802574.836 6    710068.673 9
  24325374.320     1173823.969 5   1210677.132 9
  21544870.094   -14196526.256 7 -10901863.325 9
  23596495.352    17728052.565 6  13834552.609 9
  21195112.789       57571.295 7     90257.832 9
  23406256.758    -4271580.154 6  -2707324.897 9
  20384464.188   -13386070.994 7 -10347218.407 9
 94  3 17 21 20  0.0000000  0  7 31 16  2 18 19  7 27
  23244821.891      898525.951 6    784835.755 9
  24335865.117     1228953.191 5   1253634.903 8
  21541018.406   -14216765.985 7 -10917634.500 9
  23620185.109    17852540.688 6  13931556.191 9
  21204676.875      107829.013 8    129419.674 9
  23389585.586    -4359187.267 6  -2775589.990 9
  20384886.828   -13383850.469 7 -10345488.115 9
 94  3 17 21 20 30.0000000  0  7 31 16  2 18 19  7 27
  23263163.492      994911.807 6    859941.598 9
  24346433.211     1284484.877 5   1296906.279 8
  21537224.500   -14236703.178 7 -10933169.938 9
  23643909.445    17977213.847 6  14028703.954 9
  21214304.836      158423.907 8    168844.258 9
  23372953.641    -4446589.492 6  -2843695.432 9
  20385377.422   -13381271.000 7 -10343478.122 9
 94  3 17 21 21  0.0000000  0  7 31 16  2 18 19  7 27
  23281586.594     1091725.115 6    935380.524 9
  24357073.461     1340401.427 5   1340477.543 8
  21533487.695   -14256339.857 7 -10948471.214 9
  23667668.844    18102070.006 6  14125994.312 9
  21223995.063      209348.779 7    208525.965 9
  23356359.719    -4533789.134 6  -2911643.019 9
  20385937.563   -13378328.478 7 -10341185.235 9
 94  3 17 21 21 30.0000000  0  7 31 16  2 18 19  7 27
  23300087.516     1188948.639 6   1011139.089 9
  24367784.258     1396684.177 5   1384334.140 8
  21529806.984   -14275682.430 7 -10963543.319 9
  23691461.836    18227103.868 6  14223423.147 9
  21233745.797      260587.577 7    248452.297 9
  23339804.437    -4620786.844 6  -2979433.270 9
  20386565.750   -13375026.787 7 -10338612.476 9
 94  3 17 21 22  0.0000000  0  7 31 16  2 18 19  7 27
  23318664.930     1286575.157 6   1087211.691 9
  24378568.023     1453355.918 4   1428493.871 9
  21526180.961   -14294737.052 7 -10978391.049 9
  23715289.031    18352315.915 6  14320990.828 9
  21243554.094      312131.982 7    288616.771 9
  23323288.617    -4707576.768 6  -3047061.588 9
  20387265.539   -13371349.397 7 -10335746.972 9
 94  3 17 21 22 30.0000000  0  7 31 16  2 18 19  7 27
  23337319.508     1384606.527 6   1163599.748 9
  24389428.000     1510423.838 5   1472962.317 8
  21522608.766   -14313508.887 7 -10993018.422 9
  23739147.883    18477694.816 6  14418688.519 9
  21253420.297      363978.111 8    329016.354 9
  23306813.438    -4794155.457 6  -3114525.323 9
  20388036.086   -13367301.245 7 -10332592.561 9
 94  3 17 21 23  0.0000000  0  7 31 16  2 18 19  7 27
  23356053.328     1483054.079 6   1240312.103 9
  24400365.578     1567898.762 4   1517747.891 8
  21519092.172   -14331988.225 7 -11007417.875 9
  23763037.820    18603234.746 6  14516511.693 9
  21263346.422      416139.919 8    369661.921 9
  23290383.664    -4880493.281 6  -3181801.373 9
  20388876.633   -13362883.840 7 -10329150.423 9
 94  3 17 21 23 30.0000000  0  6 31  2 18 19  7 27
  23374866.789     1581919.597 6   1317350.141 9
  21515633.672   -14350162.774 7 -11021579.834 9
  23786958.820    18728938.418 6  14614462.461 9
  21273333.984      468624.478 8    410558.981 9
  23274002.828    -4966575.224 6  -3248878.019 9
  20389788.367   -13358091.791 7 -10325416.349 9
 94  3 17 21 24  0.0000000  0  6 31  2 18 19  7 27
  23393755.664     1681179.648 6   1394695.606 9
  21512229.742   -14368050.320 7 -11035518.152 9
  23810905.461    18854778.228 6  14712519.303 9
  21283379.555      521414.934 7    451694.395 9
  23257663.578    -5052437.350 6  -3315783.389 9
  20390766.969   -13352949.772 7 -10321409.582 9
 94  3 17 21 24 30.0000000  0  6 31  2 18 19  7 27
  23412720.594     1780841.893 6   1472354.461 9
  21508882.781   -14385638.390 7 -11049223.108 9
  23834878.547    18980759.427 5  14810686.317 9
  21293485.297      574521.214 7    493075.903 9
  23241365.305    -5138085.094 6  -3382521.709 9
  20391812.453   -13347455.179 7 -10317128.077 9
 94  3 17 21 25  0.0000000  0  6 31  2 18 19  7 27
  23431761.328     1880898.714 6   1550320.788 9
  21505591.922   -14402932.639 7 -11062699.119 9
  23858878.797    19106878.113 5  14908960.439 9
  21303650.430      627938.813 7    534699.995 9
  23225104.758    -5223534.123 6  -3449105.183 9
  20392922.961   -13341619.609 7 -10312580.879 9
 94  3 17 21 25 30.0000000  0  6 31  2 18 19  7 27
  23450876.141     1981348.664 6   1628593.456 9
  21502353.336   -14419951.173 7 -11075960.285 9
  23882904.711    19233135.420 5  15007342.612 9
  21313872.922      681658.960 7    576559.832 9
  23208876.836    -5308812.212 6  -3515555.446 9
  20394094.820   -13335461.544 7 -10307782.380 9
 94  3 17 21 26  0.0000000  0  6 31  2 18 19  7 27
  23470065.305     2082186.977 6   1707168.735 9
  21499164.273   -14436709.345 7 -11089018.571 9
  23906955.266    19359523.381 5  15105826.547 9
  21324154.453      735688.504 7    618660.763 9
  23192680.063    -5393924.785 6  -3581876.741 9
  20395327.281   -13328984.475 7 -10302735.312 9
 94  3 17 21 26 30.0000000  0  6 31  2 18 19  7 27
  23489326.891     2183406.326 6   1786040.928 9
  21496022.773   -14453218.546 7 -11101882.851 9
  23931030.430    19486039.629 5  15204410.468 9
  21334494.711      790026.381 7    661001.950 9
  23176517.898    -5478857.190 6  -3648057.646 9
  20396623.391   -13322173.626 7 -10297428.149 9
 94  3 17 21 27  0.0000000  0  6 31  2 18 19  7 27
  23508659.500     2285000.170 6   1865204.925 9
  21492925.258   -14469495.067 7 -11114565.821 9
  23955127.836    19612671.551 5  15303084.533 9
  21344892.719      844668.436 7    703580.161 9
  23160389.867    -5563608.224 6  -3714097.218 9
  20397984.453   -13315021.675 7 -10291855.187 9
 94  3 17 21 27 30.0000000  0  6 31  2 18 19  7 27
  23528059.227     2386948.036 6   1944644.799 9
  21489869.508   -14485552.924 7 -11127078.404 9
  23979244.141    19739401.171 5  15401834.726 9
  21355344.828      899595.552 7    746380.491 9
  23144295.594    -5648185.892 6  -3780001.696 9
  20399411.875   -13307519.999 7 -10286009.710 9
 94  3 17 21 28  0.0000000  0  6 31  2 18 19  7 27
  23547523.617     2489231.437 6   2024346.128 9
  21486857.336   -14501382.012 7 -11139412.720 9
  24003372.227    19866192.413 5  15500632.921 9
  21365847.250      954785.890 7    789385.934 9
  23128232.484    -5732595.451 6  -3845775.183 9
  20400906.945   -13299662.584 7 -10279887.035 9
 94  3 17 21 28 30.0000000  0  6 31  2 18 19  7 27
  23567052.656     2591856.348 6   2104313.562 9
  21483889.813   -14516976.173 7 -11151563.980 9
  24027510.984    19993042.466 5  15599476.968 9
  21376394.953     1010214.085 7    832576.717 9
  23112203.023    -5816830.376 6  -3911412.594 9
  20402470.500   -13291445.080 7 -10273483.772 9
 94  3 17 21 29  0.0000000  0  6 31  2 18 19  7 27
  23586647.914     2694832.489 6   2184554.670 9
  21480968.000   -14532329.916 7 -11163527.896 9
  24051661.992    20119960.886 5  15698374.259 9
  21386987.445     1065877.271 7    875950.614 9
  23096207.672    -5900886.391 6  -3976910.603 9
  20404098.039   -13282892.171 7 -10266819.155 9
 94  3 17 21 29 30.0000000  0  6 31  2 18 19  7 27
  23606307.617     2798143.566 6   2265056.777 9
  21478091.070   -14547447.765 7 -11175308.009 9
  24075826.297    20246941.746 5  15797320.210 9
  21397622.727     1121766.643 7    919500.770 9
  23080246.125    -5984763.753 6  -4042269.389 9
  20405785.289   -13274026.683 7 -10259910.969 9
 94  3 17 21 30  0.0000000  0  6 31  2 18 19  7 27
  23626032.477     2901798.144 6   2345826.558 9
  21475260.516   -14562322.902 7 -11186898.997 9
  24100004.531    20373998.201 5  15896325.077 9
  21408304.523     1177899.687 7    963240.798 9
  23064322.680    -6068442.138 6  -4107473.138 9
  20407530.797   -13264855.048 7 -10252764.223 9
 94  3 17 21 30 30.0000000  0  6 31  2 18 19  7 27
  23645819.406     3005780.211 6   2426851.516 9
  21472471.070   -14576982.003 7 -11198321.647 9
  24124199.438    20501143.809 5  15995399.413 9
  21419033.945     1234282.101 7   1007175.144 9
  23048437.422    -6151917.023 6  -4172518.317 9
  20409330.883   -13255395.471 7 -10245393.109 9
 94  3 17 21 31  0.0000000  0  6 31  2 18 19  7 27
  23665666.883     3110078.236 6   2508122.668 9
  21469724.078   -14591417.078 7 -11209569.729 9
  24148412.109    20628379.879 5  16094544.211 9
  21429816.195     1290944.826 7   1051327.915 9
  23032590.438    -6235193.417 6  -4237408.829 9
  20411186.516   -13245642.169 7 -10237793.119 9
 94  3 17 21 31 30.0000000  0  6 31  2 18 19  7 27
  23685572.430     3214684.953 6   2589634.374 9
  21467023.531   -14605608.623 7 -11220628.057 9
  24172641.750    20755707.742 5  16193760.550 9
  21440657.453     1347915.643 7   1095720.765 9
  23016784.344    -6318254.726 6  -4302131.745 9
  20413105.828   -13235557.377 7 -10229934.834 9
 94  3 17 21 32  0.0000000  0  6 31  2 18 19  7 27
  23705539.258     3319612.234 6   2671395.862 9
  21464370.633   -14619548.148 7 -11231489.999 9
  24196889.797    20883132.158 5  16293052.130 9
  21451559.383     1405206.582 7   1140363.057 9
  23001022.938    -6401082.395 6  -4366672.601 9
  20415092.656   -13225116.803 7 -10221799.310 9
 94  3 17 21 32 30.0000000  0  6 31  2 18 19  7 27
  23725570.125     3424873.168 6   2753417.332 9
  21461768.063   -14633225.892 7 -11242147.958 9
  24221158.086    21010659.646 5  16392424.011 9
  21462525.375     1462831.336 7   1185265.469 9
  22985308.305    -6483659.521 6  -4431018.236 9
  20417152.883   -13214290.413 7 -10213363.154 9
 94  3 17 21 33  0.0000000  0  6 31  2 18 19  7 27
  23745666.539     3530481.866 5   2835709.794 9
  21459217.984   -14646627.186 7 -11252590.504 9
  24245445.758    21138290.876 5  16491876.733 9
  21473556.672     1520801.349 7   1230436.908 9
  22969646.344    -6565963.534 6  -4495151.059 9
  20419292.930   -13203044.497 7 -10204600.096 9
 94  3 17 21 33 30.0000000  0  6 31  2 18 19  7 27
  23765833.406     3636460.983 5   2918290.875 9
  21456721.461   -14659746.201 7 -11262813.094 9
  24269757.227    21266045.675 5  16591425.740 9
  21484654.758     1579122.431 7   1275881.902 9
  22954044.375    -6647952.290 6  -4559038.231 9
  20421515.289   -13191366.587 7 -10195500.419 9
 94  3 17 21 34  0.0000000  0  6 31  2 18 19  7 27
  23786075.297     3742833.138 5   3001178.235 9
  21454280.578   -14672573.697 7 -11272808.530 9
  24294092.656    21393931.475 5  16691076.847 9
  21495821.203     1637801.221 7   1321605.629 9
  22938504.727    -6729613.705 6  -4622670.347 9
  20423818.695   -13179261.414 7 -10186067.816 9
 94  3 17 21 34 30.0000000  0  6 31  2 18 19  7 27
  23806394.852     3849610.244 5   3084381.135 9
  21451898.805   -14685089.718 7 -11282561.258 9
  24318455.828    21521958.604 5  16790838.055 9
  21507057.984     1696851.177 7   1367618.568 9
  22923025.023    -6810957.272 6  -4686054.801 9
  20426204.023   -13166725.993 7 -10176299.951 9
 94  3 17 21 35  0.0000000  0  7 31 26  2 18 19  7 27
  23826791.922     3956798.534 5   3167904.441 9
  24570438.633      -12041.57415
  21449582.609   -14697260.923 7 -11292045.299 9
  24342848.602    21650141.642 5  16890720.760 9
  21518368.180     1756287.648 7   1413932.696 9
  22907606.977    -6891980.448 6  -4749189.608 9
  20428672.055   -13153756.332 7 -10166193.719 9
 94  3 17 21 35 30.0000000  0  7 31 26  2 18 19  7 27
  23847267.750     4064395.608 6   3251746.275 9
  24556722.258      -84120.587 5
  21447332.898   -14709083.045 7 -11301257.325 9
  24367269.586    21778476.410 5  16990721.704 9
  21529751.242     1816105.646 7   1460544.109 9
  22892245.250    -6972707.266 6  -4812093.486 9
  20431218.727   -13140373.653 7 -10155765.654 9
 94  3 17 21 36  0.0000000  0  7 31 26  2 18 19  7 27
  23867822.141     4172409.620 6   3335913.014 9
  24543064.539     -155888.679 5     -5579.76019
  21445151.984   -14720543.652 7 -11310187.647 9
  24391718.828    21906962.132 5  17090840.269 9
  21541206.547     1876305.338 7   1507452.941 9
  22876935.438    -7053160.520 6  -4874784.195 9
  20433846.875   -13126562.981 7 -10145004.089 9
 94  3 17 21 36 30.0000000  0  7 31 26  2 18 19  7 27
  23888455.188     4280838.942 6   3420403.354 9
  24529469.711     -227333.188 5    -61250.786 9
  21443037.781   -14731654.567 7 -11318845.479 9
  24416199.469    22035603.888 5  17191080.419 9
  21552733.523     1936879.289 7   1554653.411 9
  22861677.812    -7133338.109 6  -4937260.122 9
  20436559.422   -13112307.751 7 -10133896.117 9
 94  3 17 21 37  0.0000000  0  7 31 26  2 18 19  7 27
  23909166.141     4389671.997 6   3505208.292 9
  24515934.117     -298463.119 5   -116676.644 9
  21440986.625   -14742432.444 7 -11327243.796 9
  24440710.133    22164409.240 5  17291448.063 9
  21564331.055     1997824.412 7   1602143.102 9
  22846477.758    -7213213.870 6  -4999500.847 9
  20439356.039   -13097611.581 7 -10122444.550 9
 94  3 17 21 37 30.0000000  0  7 31 26  2 18 19  7 27
  23929953.555     4498908.971 6   3590327.976 9
  24502457.422     -369287.333 5   -171864.311 9
  21438993.727   -14752905.896 7 -11335404.900 9
  24465250.430    22293366.661 5  17391934.191 7
  21575996.625     2059126.249 7   1649910.747 9
  22831336.828    -7292780.941 6  -5061501.048 9
  20442236.461   -13082475.804 7 -10110650.437 9
 94  3 17 21 38  0.0000000  0  7 31 26  2 18 19  7 27
  23950815.211     4608537.626 6   3675752.846 9
  24489038.211     -439803.286 5   -226811.774 9
  21437055.938   -14763089.115 7 -11343339.847 9
  24489815.797    22422460.391 5  17492526.542 7
  21587726.781     2120770.051 7   1697944.868 9
  22816258.180    -7372019.412 6  -5123245.185 9
  20445200.141   -13066900.752 7 -10098514.025 9
 94  3 17 21 38 30.0000000  0  7 31 26  2 18 19  7 27
  23971745.953     4718528.861 6   3761460.259 9
  24475683.063     -509984.324 5   -281498.239 9
  21435171.828   -14772990.126 7 -11351054.894 9
  24514405.578    22551676.103 5  17593213.943 8
  21599522.344     2182756.120 7   1746245.689 9
  22801243.930    -7450919.383 6  -5184725.566 9
  20448246.789   -13050890.430 7 -10086038.445 9
 94  3 17 21 39  0.0000000  0  7 31 26  2 18 19  7 27
  23992742.813     4828866.408 6   3847437.525 9
  24462394.391     -579815.827 5   -335912.354 9
  21433343.227   -14782598.664 7 -11358542.041 9
  24539012.773    22680988.048 5  17693976.309 9
  21611383.813     2245087.337 7   1794815.448 9
  22786294.094    -7529478.988 6  -5245940.718 9
  20451377.289   -13034439.384 7 -10073219.437 9
 94  3 17 21 39 30.0000000  0  7 31 26  2 18 19  7 27
  24013805.523     4939551.764 6   3933685.816 9
  24449176.984     -649274.807 5   -390036.155 9
  21431570.727   -14791912.503 7 -11365799.546 9
  24563633.688    22810372.493 5  17794795.221 8
  21623309.070     2307755.021 7   1843647.399 9
  22771407.813    -7607708.599 6  -5306898.721 9
  20454593.906   -13017536.584 7 -10060048.420 9
 94  3 17 21 40  0.0000000  0  7 31 26  2 18 19  7 27
  24034935.516     5050591.065 6   4020209.894 9
  24436034.445     -718337.658 5   -443851.295 9
  21429857.703   -14800915.502 7 -11372814.847 9
  24588269.961    22939833.735 5  17895673.934 9
  21635301.992     2370777.534 7   1892755.825 9
  22756585.539    -7685598.752 6  -5367592.225 9
  20457897.734   -13000174.416 7 -10046519.449 9
 94  3 17 21 40 30.0000000  0  7 31 26  2 18 19  7 27
  24056130.430     5161976.017 6   4107003.306 9
  24422962.273     -787030.831 5   -497378.366 9
  21428202.102   -14809615.673 7 -11379594.175 9
  24612917.211    23069356.779 5  17996600.808 9
  21647363.547     2434161.279 7   1942145.732 9
  22741825.063    -7763165.989 6  -5428034.100 9
  20461286.422   -12982365.364 7 -10032642.261 9
 94  3 17 21 41  0.0000000  0  7 31 26  2 18 19  7 27
  24077395.680     5273723.395 6   4194079.141 9
  24409956.375     -855381.203 5   -550638.357 9
  21426604.727   -14818009.228 7 -11386134.588 9
  24637580.258    23198961.852 5  18097591.616 9
  21659495.063     2497913.928 7   1991823.105 9
  22727128.312    -7840395.368 6  -5488212.712 9
  20464758.648   -12964119.057 7 -10018424.355 9
 94  3 17 21 41 30.0000000  0  6 31 26  2 19  7 27
  24098728.219     5385825.981 5   4281431.763 9
  24397010.227     -923412.688 5   -603649.847 9
  21425061.805   -14826117.126 7 -11392452.410 9
  21671695.578     2562028.405 7   2041782.421 9
  22712492.211    -7917307.231 6  -5548143.903 9
  20468307.391   -12945470.766 7 -10003893.217 9
 94  3 17 21 42  0.0010000  0  6 31 26  2 19  7 27
  24120127.489     5498283.515 5   4369060.963 9
  24384124.552     -991127.296 5   -656414.423 9
  21423576.599   -14833922.234 7 -11398534.297 9
  21683969.255     2626527.759 7   2092041.642 9
  22697919.177    -7993891.356 6  -5607819.724 9
  20471932.841   -12926420.299 7  -9989048.697 9
 94  3 17 21 42 30.0010000  0  6 31 26  2 19  7 27
  24141588.833     5611062.834 5   4456940.905 9
  24371296.450    -1058538.245 5   -708942.395 9
  21422148.692   -14841425.011 7 -11404380.601 9
  21696314.833     2691403.660 7   2142594.275 9
  22683406.560    -8070152.489 6  -5667243.860 9
  20475635.161   -12906964.665 7  -9973888.464 9
 94  3 17 21 43  0.0010000  0  6 31 26  2 19  7 27
  24163108.271     5724149.737 5   4545060.520 9
  24358527.911    -1125633.578 5   -761224.432 9
  21420775.989   -14848639.046 7 -11410001.911 9
  21708727.849     2756633.600 7   2193422.782 9
  22668952.927    -8146109.434 6  -5726430.975 9
  20479415.466   -12887099.180 7  -9958408.864 9
 94  3 17 21 43 30.0010000  0  6 31 26  2 19  7 27
  24184684.224     5837535.038 5   4633412.664 9
  24345823.685    -1192398.798 5   -813249.239 9
  21419457.450   -14855567.062 7 -11415400.351 9
  21721203.583     2822193.675 7   2244508.537 9
  22654554.169    -8221774.059 6  -5785390.308 9
  20483272.966   -12866827.238 7  -9942612.545 9
 94  3 17 21 44  0.0010000  0  6 31 26  2 19  7 27
  24206315.419     5951207.036 5   4721988.174 9
  24333184.513    -1258817.554 5   -865004.073 9
  21418195.614   -14862198.200 7 -11420567.456 9
  21733740.802     2888076.437 7   2295845.738 9
  22640215.528    -8297124.676 6  -5844104.962 9
  20487212.224   -12846126.077 7  -9926481.772 9
 94  3 17 21 44 30.0010000  0  6 31 26  2 19  7 27
  24228002.372     6065170.019 5   4810790.440 9
  24320611.052    -1324890.785 5   -916489.666 9
  21416986.927   -14868550.662 7 -11425517.415 9
  21746336.239     2954266.110 7   2347422.091 9
  22625934.528    -8372170.615 6  -5902582.208 9
  20491232.810   -12824996.916 7  -9910017.498 9
 94  3 17 21 45  0.0010000  0  6 31 26  2 19  7 27
  24249748.677     6179448.342 5   4899838.447 9
  24308108.044    -1390594.521 5   -967687.327 9
  21415833.036   -14874614.168 7 -11430242.211 9
  21758992.200     3020773.839 7   2399246.275 9
  22611715.560    -8446888.981 6  -5960804.207 9
  20495334.981   -12803441.255 7  -9893220.884 9
 94  3 17 21 45 30.0010000  0  6 31 26  2 19  7 27
  24271553.481     6294034.322 5   4989126.173 9
  24295675.091    -1455929.374 5  -1018597.564 9
  21414734.583   -14880387.315 7 -11434740.749 9
  21771712.224     3087617.168 7   2451331.965 9
  22597563.255    -8521263.684 6  -6018758.414 9
  20499515.419   -12781472.468 7  -9876102.350 9
 94  3 17 21 46  0.0010000  0  6 31 26  2 19  7 27
  24293414.497     6408910.320 5   5078639.883 9
  24283308.817    -1520911.224 5  -1069232.729 9
  21413686.231   -14885895.701 7 -11439032.986 9
  21784497.927     3154808.205 7   2503688.603 9
  22583474.021    -8595300.539 6  -6076449.372 9
  20503775.653   -12759084.701 7  -9858657.336 9
 94  3 17 21 46 30.0010000  0  6 31 26  2 19  7 27
  24315330.927     6524081.771 5   5168383.841 9
  24271007.411    -1585557.979 5  -1119606.771 9
  21412686.067   -14891152.897 8 -11443129.485 9
  21797351.067     3222351.694 7   2556319.879 9
  22569447.067    -8669013.197 6  -6133887.701 9
  20508113.310   -12736288.749 7  -9840894.250 9
 94  3 17 21 47  0.0010000  0  6 31 26  2 19  7 27
  24337299.856     6639531.749 5   5258344.822 9
  24258766.583    -1649880.654 5  -1169728.314 9
  21411731.794   -14896165.662 7 -11447035.519 9
  21810270.021     3290240.625 7   2609220.330 9
  22555481.927    -8742399.050 6  -6191071.383 9
  20512527.255   -12713094.856 7  -9822821.086 9
 94  3 17 21 47 30.0010000  0  6 31 26  2 19  7 27
  24359320.544     6755249.663 5   5348514.572 9
  24246586.567    -1713891.656 5  -1219606.935 9
  21410823.208   -14900940.019 7 -11450755.778 9
  21823251.591     3358458.801 7   2662377.331 9
  22541578.052    -8815464.293 6  -6248005.247 9
  20517018.646   -12689492.833 7  -9804429.903 9
 94  3 17 21 48  0.0010000  0  6 31 26  2 19  7 27
  24381394.692     6871248.724 5   5438903.407 9
  24234463.239    -1777598.425 5  -1269248.528 9
  21409961.544   -14905467.656 7 -11454283.792 9
  21836293.356     3426994.370 7   2715781.653 9
  22527733.013    -8888220.717 6  -6304698.472 9
  20521591.177   -12665463.268 7  -9785705.567 9
 94  3 17 21 48 30.0010000  0  6 31 26  2 19  7 27
  24403521.724     6987528.244 5   5529510.778 9
  24222399.216    -1840997.142 5  -1318650.083 9
  21409150.411   -14909731.528 8 -11457606.278 9
  21849395.091     3495843.651 7   2769430.421 9
  22513948.810    -8960655.433 6  -6361141.022 9
  20526244.060   -12641013.235 7  -9766653.597 9
 94  3 17 21 49  0.0010000  0  6 31 26  2 19  7 27
  24425700.286     7104076.825 5   5620327.799 9
  24210394.231    -1904080.327 5  -1367805.775 9
  21408388.927   -14913733.377 8 -11460724.582 9
  21862554.661     3564996.308 7   2823315.587 9
  22500227.677    -9032760.391 6  -6417326.616 9
  20530975.247   -12616149.361 7  -9747279.150 9
 94  3 17 21 49 30.0010000  0  6 31 26  2 19  7 27
  24447930.888     7220898.557 5   5711357.684 9
  24198451.169    -1966844.781 5  -1416713.086 9
  21407677.317   -14917472.254 8 -11463637.978 9
  21875772.114     3634454.346 7   2877438.726 9
  22486568.310    -9104541.214 7  -6473259.641 9
  20535787.364   -12590861.849 7  -9727574.599 9
 94  3 17 21 50  0.0010000  0  6 31 26  2 19  7 27
  24470209.372     7337973.581 5   5802584.935 9
  24186567.872    -2029286.306 5  -1465368.777 9
  21407012.021   -14920966.978 8 -11466361.129 9
  21889046.950     3704215.991 7   2931798.452 9
  22472971.271    -9175994.346 7  -6528937.327 9
  20540677.489   -12565164.284 7  -9707550.519 9
 94  3 17 21 50 30.0010000  0  6 31 26  2 19  7 27
  24492533.716     7455286.892 5   5893997.859 9
  24174748.388    -2091398.568 5  -1513767.910 9
  21406391.356   -14924230.636 8 -11468904.232 9
  21902379.028     3774275.430 7   2986390.200 9
  22459437.458    -9247113.908 7  -6584355.096 9
  20545640.763   -12539081.979 7  -9687226.646 9
 94  3 17 21 51  0.0010000  0  6 31 26  2 19  7 27
  24514900.435     7572825.451 5   5985586.305 9
  24162992.325    -2153180.727 5  -1561909.811 9
  21405809.622   -14927286.857 8 -11471285.691 9
  21915765.216     3844620.618 7   3041204.611 9
  22445962.435    -9317924.777 7  -6639532.324 9
  20550675.583   -12512624.688 7  -9666610.581 9
 94  3 17 21 51 30.0010000  0  6 31 26  2 19  7 27
  24537306.583     7690570.290 5   6077335.480 9
  24151297.653    -2214634.165 5  -1609795.580 9
  21405267.536   -14930135.142 8 -11473505.120 9
  21929206.669     3915256.696 7   3096245.684 9
  22432543.927    -9388439.726 7  -6694478.961 9
  20555782.708   -12485785.807 7  -9645697.172 9
 94  3 17 21 52  0.0010000  0  5 26  2 19  7 27
  24139666.864    -2275759.088 5  -1657425.353 9
  21404765.474   -14932774.327 8 -11475561.616 9
  21942704.286     3986187.263 7   3151516.230 9
  22419180.935    -9458663.236 7  -6749198.511 9
  20560959.396   -12458582.488 7  -9624499.785 9
 94  3 17 21 52 30.0010000  0  5 26  2 19  7 27
  24128095.442    -2336564.384 5  -1704806.064 9
  21404304.552   -14935196.830 8 -11477449.270 9
  21956259.403     4057418.938 7   3207021.401 9
  22405870.153    -9528611.211 7  -6803703.349 9
  20566203.794   -12431022.742 7  -9603024.658 9
 94  3 17 21 53  0.0010000  0  5 26  2 19  7 27
  24116586.989    -2397041.437 5  -1751930.961 9
  21403887.013   -14937391.176 8 -11479159.133 9
  21969872.739     4128956.952 7   3262765.282 9
  22392613.911    -9598273.082 7  -6857985.256 9
  20571521.661   -12403076.376 7  -9581248.271 9
 94  3 17 21 53 30.0010000  0  5 26  2 19  7 27
  24105142.255    -2457186.482 5  -1798797.187 9
  21403514.716   -14939346.104 8 -11480682.435 9
  21983541.716     4200789.422 7   3318738.605 9
  22379415.083    -9667631.495 7  -6912030.691 9
  20576916.028   -12374730.476 7  -9559160.557 9
 94  3 17 21 54  0.0010000  0  5 26  2 19  7 27
  24093763.192    -2516982.504 5  -1845391.442 9
  21403187.489   -14941066.352 8 -11482022.873 9
  21997268.513     4272923.150 7   3374946.679 9
  22366278.294    -9736666.815 7  -6965824.371 9
  20582385.927   -12345984.780 7  -9536761.310 9
 94  3 17 21 54 30.0010000  0  5 26  2 19  7 27
  24082451.427    -2576424.927 5  -1891710.157 9
  21402901.669   -14942567.811 8 -11483192.823 9
  22011049.841     4345344.655 7   3431378.997 9
  22353205.325    -9805365.407 7  -7019355.668 9
  20587934.786   -12316825.110 7  -9514039.487 9
 94  3 17 21 55  0.0010000  0  5 26  2 19  7 27
  24071208.708    -2635506.646 5  -1937747.818 9
  21402656.560   -14943856.037 8 -11484196.620 9
  22024883.028     4418039.767 7   3488024.515 9
  22340198.005    -9873718.706 7  -7072617.905 9
  20593564.981   -12287238.377 7  -9490984.889 9
 94  3 17 21 55 30.0010000  0  5 26  2 19  7 27
  24060036.435    -2694218.063 5  -1983496.939 9
  21402452.161   -14944929.647 8 -11485033.184 9
  22038772.513     4491028.377 7   3544898.731 9
  22327257.060    -9941724.584 7  -7125609.426 9
  20599274.169   -12257237.474 7  -9467607.559 9
 94  3 17 21 56  0.0010000  0  5 26  2 19  7 27
  24048933.786    -2752558.854 5  -2028957.257 9
  21402288.700   -14945788.575 8 -11485702.462 9
  22052720.216     4564323.985 7   3602012.161 9
  22314380.755   -10009389.551 7  -7178335.306 9
  20605059.622   -12226833.333 7  -9443916.020 9
 94  3 17 21 56 30.0010000  0  5 26  2 19  7 27
  24037900.653    -2810539.084 5  -2074136.619 9
  21402168.755   -14946419.277 8 -11486193.899 9
  22066722.794     4637907.156 7   3659349.669 9
  22301569.294   -10076713.393 7  -7230795.385 9
  20610922.192   -12196024.868 7  -9419909.424 9
 94  3 17 21 57  0.0010000  0  5 26  2 19  7 27
  24026935.802    -2868161.279 5  -2119036.993 9
  21402093.435   -14946815.645 8 -11486502.739 9
  22080781.177     4711784.273 7   3716916.226 9
  22288823.247   -10143694.260 7  -7282988.205 9
  20616859.216   -12164826.037 7  -9395598.652 9
 94  3 17 21 57 30.0010000  0  5 26  2 19  7 27
  24016038.380    -2925429.409 5  -2163661.467 9
  21402062.466   -14946976.817 8 -11486628.310 9
  22094897.255     4785964.225 7   3774718.762 9
  22276143.614   -10210326.721 7  -7334909.539 9
  20622867.380   -12133253.798 7  -9370996.909 9
 94  3 17 21 58  0.0010000  0  5 26  2 19  7 27
  24005205.786    -2982350.763 5  -2208015.735 9
  21402076.755   -14946902.731 8 -11486570.564 9
  22109068.771     4860436.467 7   3832749.060 9
  22263531.981   -10276601.495 7  -7386552.161 9
  20628947.271   -12101303.717 7  -9346100.747 9
 94  3 17 21 58 30.0010000  0  5 26  2 19  7 27
  23994439.763    -3038927.582 5  -2252101.511 9
  21402134.325   -14946599.886 8 -11486334.567 9
  22123297.302     4935207.471 7   3891012.160 9
  22250989.630   -10342510.821 7  -7437910.015 9
  20635099.794   -12068971.959 7  -9320907.176 9
 94  3 17 21 59  0.0010000  0  5 26  2 19  7 27
  23983741.302    -3095150.576 5  -2295911.599 9
  21402234.739   -14946071.178 8 -11485922.573 9
  22137586.294     5010296.481 7   3949523.048 9
  22238515.489   -10408062.643 7  -7488989.295 9
  20641327.075   -12036246.303 7  -9295406.672 9
 94  3 17 21 59 30.0010000  0  5 26  2 19  7 27
  23973110.528    -3151015.683 5  -2339442.814 9
  21402379.247   -14945312.236 8 -11485331.169 9
  22151933.849     5085693.466 7   4008273.936 9
  22226104.919   -10473279.167 7  -7539807.302 9
  20647632.817   -12003109.729 7  -9269585.971 9
 94  3 17 22  0  0.0010000  0  5 26  2 19  7 27
  23962545.731    -3206531.198 5  -2382701.626 9
  21402565.200   -14944336.122 8 -11484570.551 9
  22166336.591     5161380.619 7   4067250.929 9
  22213757.575   -10538165.087 7  -7590367.694 9
  20654019.106   -11969549.365 7  -9243435.045 9
 94  3 17 22  0 30.0010000  0  5 26  2 19  7 27
  23952048.591    -3261691.762 5  -2425683.832 9
  21402790.942   -14943149.773 8 -11483646.111 9
  22180795.146     5237359.913 7   4126455.553 9
  22201473.388   -10602718.738 7  -7640669.174 9
  20660487.302   -11935559.216 7  -9216949.221 9
 94  3 17 22  1  0.0010000  0  5 26  2 19  7 27
  23941620.255    -3316494.839 6  -2468387.483 9
  21403056.310   -14941754.821 8 -11482559.120 9
  22195308.380     5313627.524 7   4185884.844 9
  22189252.372   -10666940.500 7  -7690712.039 9
  20667038.122   -11901134.746 7  -9190124.957 9
 94  3 17 22  1 30.0010000  0  5 26  2 19  7 27
  23931258.841    -3370945.055 6  -2510816.193 9
  21403358.364   -14940167.001 8 -11481321.846 9
  22209874.935     5390176.014 7   4245532.997 9
  22177096.013   -10730821.641 7  -7740489.485 9
  20673668.403   -11866291.850 7  -9162974.652 9
 94  3 17 22  2  0.0010000  0  5 26  2 19  7 27
  23920964.505    -3425041.082 6  -2552968.912 9
  21403693.560   -14938405.136 8 -11479948.954 9
  22224496.372     5467011.464 7   4305404.752 9
  22165006.020   -10794353.990 7  -7789995.136 9
  20680374.192   -11831052.954 7  -9135515.773 9
 94  3 17 22  2 30.0010000  0  5 26  2 19  7 27
  23910739.708    -3478774.527 6  -2594839.089 9
  21404061.770   -14936470.998 8 -11478441.821 9
  22239173.685     5544142.186 7   4365506.592 9
  22152980.325   -10857549.968 7  -7839238.681 9
  20687152.325   -11795433.704 7  -9107760.509 9
 94  3 17 22  3  0.0010000  0  5 26  2 19  7 27
  23900580.044    -3532163.899 6  -2636441.166 9
  21404459.614   -14934380.498 8 -11476812.847 9
  22253903.161     5621545.347 7   4425820.718 9
  22141013.880   -10920433.930 7  -7888239.099 9
  20694000.599   -11759445.933 7  -9079718.090 9
 94  3 17 22  3 30.0010000  0  5 26  2 19  7 27
  23890483.950    -3585219.520 6  -2677783.168 9
  21404886.278   -14932138.154 8 -11475065.551 9
  22268681.442     5699206.920 7   4486336.207 9
  22129104.685   -10983017.851 7  -7937005.719 9
  20700915.333   -11723108.064 7  -9051402.865 9
 94  3 17 22  4  0.0010000  0  5 26  2 19  7 27
  23880449.325    -3637952.538 6  -2718873.803 9
  21405344.224   -14929731.036 8 -11473189.856 9
  22283508.505     5777123.665 7   4547050.524 9
  22117253.255   -11045296.660 7  -7985534.587 9
  20707896.903   -11686419.828 7  -9022814.629 9
 94  3 17 22  4 30.0010000  0  5 26  2 19  7 27
  23870471.692    -3690382.940 6  -2759728.622 9
  21405834.177   -14927156.007 8 -11471183.320 9
  22298380.028     5855273.388 7   4607946.388 9
  22105459.685   -11107272.362 7  -8033827.272 9
  20714946.575   -11649373.933 7  -8993947.697 9
 94  3 17 22  5  0.0010000  0  5 26  2 19  7 27
  23860553.333    -3742503.241 6  -2800341.815 9
  21406359.388   -14924397.349 8 -11469033.703 9
  22313294.349     5933647.420 7   4669017.031 9
  22093725.622   -11168934.166 7  -8081875.360 9
  20722065.349   -11611964.730 7  -8964797.657 9
 94  3 17 22  5 30.0010000  0  5 26  2 19  7 27
  23850696.638    -3794299.720 6  -2840702.695 9
  21406921.388   -14921443.688 8 -11466732.135 9
  22328250.935     6012245.469 7   4730262.254 9
  22082055.536   -11230260.931 7  -8129662.386 9
  20729251.739   -11574199.733 7  -8935370.384 9
 94  3 17 22  6  0.0010000  0  5 26  2 19  7 27
  23840906.731    -3845746.753 6  -2880791.259 9
  21407522.778   -14918282.974 8 -11464269.225 9
  22343252.364     6091077.538 7   4791689.826 9
  22070452.755   -11291234.073 7  -8177173.862 9
  20736508.341   -11536065.703 7  -8905655.557 9
 94  3 17 22  6 30.0010000  0  5 26  2 19  7 27
  23831188.966    -3896813.402 6  -2920583.422 9
  21408162.583   -14914920.255 8 -11461648.907 9
  22358299.716     6170151.425 7   4853305.827 9
  22058917.708   -11351851.107 7  -8224407.851 9
  20743835.685   -11497560.160 7  -8875651.229 9
 94  3 17 22  7  0.0010000  0  6 15 26  2 19  7 27
  24595647.599      -25086.07915
  23821549.427    -3947470.267 6  -2960056.266 9
  21408841.067   -14911355.562 8 -11458871.202 9
  22373398.255     6249495.482 7   4915132.353 9
  22047453.692   -11412094.674 7  -8271350.826 9
  20751234.528   -11458679.205 7  -8845354.379 9
 94  3 17 22  7 30.0010000  0  6 15 26  2 19  7 27
  24589478.872      -57497.523 5     -5028.94319
  23811988.130    -3997713.685 6  -2999206.933 9
  21409554.005   -14907608.773 8 -11455951.602 9
  22388549.708     6329115.076 7   4977173.582 9
  22036060.911   -11471962.819 7  -8318001.266 9
  20758705.138   -11419421.198 7  -8814763.725 9
 94  3 17 22  8  0.0010000  0  6 15 26  2 19  7 27
  24583382.013      -89539.376 5    -29996.541 9
  23802509.638    -4047524.647 6  -3038020.649 9
  21410302.505   -14903674.919 8 -11452886.245 9
  22403756.169     6409026.741 7   5039442.397 9
  22024739.528   -11531457.924 7  -8364361.024 9
  20766251.122   -11379766.180 7  -8783863.702 9
 94  3 17 22  8 30.0010000  0  6 15 26  2 19  7 27
  24577355.771     -121207.344 5    -54672.793 9
  23793112.294    -4096910.162 6  -3076502.841 9
  21411084.817   -14899564.501 8 -11449683.307 9
  22419017.599     6489226.999 7   5101936.091 9
  22013488.849   -11590579.134 7  -8410429.440 9
  20773876.825   -11339693.736 7  -8752638.415 9
 94  3 17 22  9  0.0010000  0  6 15 26  2 19  7 27
  24571401.130     -152498.002 5    -79055.036 9
  23783794.724    -4145871.512 6  -3114654.515 9
  21411901.638   -14895270.672 8 -11446337.453 9
  22434335.677     6569722.600 7   5164659.919 9
  22002309.646   -11649326.821 7  -8456206.799 9
  20781584.919   -11299186.905 7  -8721074.644 9
 94  3 17 22  9 30.0010000  0  6 15 26  2 19  7 27
  24565519.802     -183402.360 5   -103136.264 9
  23774559.372    -4194405.276 6  -3152472.992 9
  21412758.872   -14890767.410 8 -11442828.402 9
  22449710.864     6650520.516 7   5227619.312 9
  21991203.177   -11707692.520 7  -8501686.497 9
  20789377.403   -11258237.075 7  -8689165.683 9
 94  3 17 22 10  0.0010000  0  6 15 26  2 19  7 27
  24559715.060     -213909.453 5   -126907.944 9
  23765405.396    -4242508.849 6  -3189956.259 9
  21413660.481   -14886028.046 8 -11439135.373 9
  22465147.075     6731638.890 7   5290828.412 9
  21980173.419   -11765652.510 7  -8546850.062 9
  20797258.645   -11216821.132 7  -8656893.515 9
 94  3 17 22 10 30.0010000  0  6 15 26  2 19  7 27
  24553984.786     -244019.473 5   -150370.196 9
  23756331.653    -4290192.255 6  -3227112.132 9
  21414606.333   -14881057.564 8 -11435262.248 9
  22480643.372     6813072.598 7   5354283.232 9
  21969222.302   -11823200.184 7  -8591692.343 9
  20805227.536   -11174943.652 7  -8624261.721 9
 94  3 17 22 11  0.0010000  0  6 15 26  2 19  7 27
  24548332.271     -273723.022 5   -173515.751 9
  23747338.935    -4337447.153 6  -3263934.097 9
  21415599.981   -14875836.750 8 -11431194.074 9
  22496200.958     6894827.777 7   5417988.540 9
  21958353.067   -11880319.448 7  -8636200.801 9
  20813281.380   -11132619.835 7  -8591282.124 9
 94  3 17 22 11 30.0010000  0  6 15 26  2 19  7 27
  24542758.560     -303014.323 5   -196340.063 9
  23738426.614    -4384281.990 6  -3300428.735 9
  21416640.935   -14870366.978 8 -11426931.897 9
  22511818.435     6976898.841 7   5481939.986 9
  21947566.560   -11937003.958 7  -8680370.488 9
  20821420.638   -11089848.183 7  -8557953.558 9
 94  3 17 22 12  0.0010000  0  6 15 26  2 19  7 27
  24537264.271     -331886.333 5   -218837.663 9
  23729597.177    -4430681.576 6  -3336584.236 9
  21417727.466   -14864655.347 8 -11422481.263 9
  22527495.872     7059283.468 7   5546135.773 9
  21936863.263   -11993248.114 7  -8724197.039 9
  20829646.997   -11046619.972 7  -8524269.241 9
 94  3 17 22 12 30.0010000  0  6 15 26  2 19  7 27
  24531850.606     -360331.336 5   -241002.528 9
  23720853.021    -4476631.951 6  -3372389.685 9
  21418861.083   -14858699.313 8 -11417840.181 9
  22543233.466     7141986.024 7   5610579.290 9
  21926243.794   -12049053.399 7  -8767681.613 9
  20837958.231   -11002943.370 7  -8490235.530 9
 94  3 17 22 13  0.0010000  0  6 15 26  2 19  7 27
  24526518.458     -388357.811 5   -262841.270 9
  23712192.583    -4522144.321 6  -3407853.825 9
  21420041.302   -14852497.220 8 -11413007.361 9
  22559035.083     7225021.870 7   5675282.515 9
  21915706.833   -12104425.784 7  -8810828.863 9
  20846354.646   -10958819.569 7  -8455853.351 9
 94  3 17 22 13 30.0010000  0  6 15 26  2 19  7 27
  24521263.638     -415970.005 5   -284357.200 9
  23703615.185    -4567220.054 6  -3442977.735 9
  21421265.849   -14846062.717 8 -11407993.451 9
  22574901.286     7308400.047 7   5740252.487 9
  21905250.208   -12159375.910 7  -8853647.077 9
  20854837.060   -10914243.788 7  -8421118.972 9
 94  3 17 22 14  0.0010000  0  6 15 26  2 19  7 27
  24516086.169     -443176.951 5   -305557.358 9
  23695119.653    -4611859.336 6  -3477761.551 9
  21422532.997   -14839402.966 8 -11402804.021 9
  22590830.771     7392110.529 7   5805481.407 9
  21894873.106   -12213906.301 7  -8896138.225 9
  20863404.622   -10869221.224 7  -8386036.455 9
 94  3 17 22 14 30.0010000  0  6 15 26  2 19  7 27
  24510985.239     -469982.228 5   -326444.538 9
  23686706.817    -4656072.948 6  -3512213.679 9
  21423842.747   -14832518.906 8 -11397439.810 9
  22606823.825     7476154.102 7   5870969.872 9
  21884575.810   -12268019.645 7  -8938304.404 9
  20872057.247   -10823751.656 7  -8350605.623 9
 94  3 17 22 15  0.0010000  0  6 15 26  2 19  7 27
  24505960.700     -496388.050 5   -347020.468 9
  23678373.567    -4699862.318 6  -3546335.250 9
  21425192.466   -14825426.421 8 -11391913.190 9
  22622878.091     7560520.091 7   5936709.575 9
  21874356.747   -12321721.253 7  -8980149.752 9
  20880794.966   -10777834.221 7  -8314825.802 9
 94  3 17 22 15 30.0010000  0  6 15 26  2 19  7 27
  24501012.099     -522391.462 5   -367282.801 9
  23670123.966    -4743214.444 6  -3580116.088 9
  21426579.450   -14818139.051 8 -11386234.711 9
  22638986.474     7645170.299 7   6002670.742 9
  21864215.942   -12375011.438 7  -9021674.504 9
  20889615.638   -10731480.507 7  -8278706.027 9
 94  3 17 22 16  0.0010000  0  6 15 26  2 19  7 27
  24496142.958     -547980.048 5   -387221.894 9
  23661961.075    -4786110.172 6  -3613541.305 9
  21428005.013   -14810647.084 8 -11380396.806 9
  22655148.966     7730103.114 7   6068852.128 9
  21854155.177   -12427880.255 7  -9062870.916 9
  20898518.388   -10684697.722 7  -8242251.904 9
 94  3 17 22 16 30.0010000  0  6 15 26  2 19  7 27
  24491353.208     -573146.969 5   -406832.442 9
  23653885.130    -4828550.067 6  -3646611.328 9
  21429470.567   -14802945.214 8 -11374395.338 9
  22671364.161     7815315.248 7   6135251.169 9
  21844173.966   -12480331.898 7  -9103742.264 9
  20907499.606   -10637500.324 7  -8205474.714 9
 94  3 17 22 17  0.0010000  0  6 15 26  2 19  7 27
  24486642.216     -597902.639 5   -426122.525 9
  23645895.544    -4870534.811 6  -3679326.688 9
  21430973.044   -14795049.330 8 -11368242.692 9
  22687628.677     7900784.837 7   6201850.821 9
  21834269.122   -12532383.062 7  -9144301.544 9
  20916555.997   -10589908.417 7  -8168390.113 9
 94  3 17 22 17 30.0010000  0  6 15 26  2 19  7 27
  24482008.349     -622252.646 5   -445096.496 9
  23637994.661    -4912056.071 6  -3711680.886 9
  21432513.396   -14786954.180 8 -11361934.770 9
  22703939.864     7986502.372 7   6268643.681 9
  21824439.802   -12584035.884 7  -9184550.433 9
  20925687.083   -10541923.952 7  -8130999.626 9
 94  3 17 22 18  0.0010000  0  6 15 26  2 19  7 27
  24477453.521     -646188.723 5   -463747.891 9
  23630181.356    -4953115.076 6  -3743674.890 9
  21434094.099   -14778648.402 8 -11355462.723 9
  22720303.294     8072491.052 7   6335647.812 9
  21814686.513   -12635289.813 7  -9224488.497 9
  20934895.060   -10493535.984 7  -8093294.719 9
 94  3 17 22 18 30.0010000  0  6 15 26  2 19  7 27
  24472978.700     -669704.034 5   -482071.460 9
  23622455.685    -4993711.756 6  -3775308.651 9
  21435714.474   -14770133.254 8 -11348827.529 9
  22736719.396     8158758.942 7   6402869.507 9
  21805010.966   -12686134.505 7  -9264107.674 9
  20944184.481   -10444719.868 7  -8055256.198 9
 94  3 17 22 19  0.0010000  0  6 15 26  2 19  7 27
  24468585.958     -692788.681 5   -500059.426 9
  23614821.521    -5033829.225 6  -3806568.994 9
  21437373.747   -14761413.826 8 -11342033.158 9
  22753193.263     8245328.716 7   6470326.451 9
  21795418.052   -12736543.874 7  -9303387.639 9
  20953559.099   -10395455.394 7  -8016868.308 9
 94  3 17 22 19 30.0010000  0  6 15 26  2 19  7 27
  24464275.630     -715438.609 5   -517708.644 9
  23607275.208    -5073485.382 6  -3837469.876 9
  21439070.716   -14752494.379 8 -11335082.924 9
  22769724.802     8332202.643 7   6538020.391 9
  21785909.966   -12786510.169 7  -9342322.356 9
  20963020.489   -10345736.366 7  -7978126.222 9
 94  3 17 22 20  0.0010000  0  6 15 26  2 19  7 27
  24460050.099     -737643.205 5   -535010.861 9
  23599814.060    -5112692.600 6  -3868020.934 9
  21440806.294   -14743374.861 8 -11327976.788 9
  22786316.817     8419394.064 7   6605961.724 9
  21776487.302   -12836027.043 7  -9380906.870 9
  20972568.036   -10295562.988 7  -7939030.106 9
 94  3 17 22 20 30.0010000  0  6 15 26  2 19  7 27
  24455910.677     -759397.331 5   -551962.053 9
  23592439.177    -5151448.895 6  -3898220.626 9
  21442580.481   -14734052.507 8 -11320712.603 9
  22802969.552     8506904.607 7   6674151.727 9
  21767151.716   -12885084.975 7  -9419133.770 9
  20982204.692   -10244921.321 7  -7899569.085 9
 94  3 17 22 21  0.0010000  0  6 15 26  2 19  7 27
  24451857.005     -780700.448 5   -568561.811 9
  23585149.192    -5189757.762 6  -3928071.681 9
  21444393.849   -14724523.008 8 -11313287.008 9
  22819681.036     8594726.095 6   6742584.019 9
  21757902.888   -12933687.969 7  -9457006.182 9
  20991930.208   -10193813.282 7  -7859744.657 9
 94  3 17 22 21 30.0010000  0  6 15 26  2 19  7 27
  24447889.520     -801548.298 5   -584806.829 9
  23577943.802    -5227624.634 6  -3957578.311 9
  21446249.020   -14714773.716 8 -11305690.142 9
  22836451.544     8682853.981 6   6811255.066 9
  21748738.325   -12981848.423 7  -9494533.753 9
  21001745.661   -10142234.132 7  -7819553.134 9
 94  3 17 22 22  0.0010000  0  6 15 26  2 19  7 27
  24444010.700     -821931.105 5   -600689.470 9
  23570826.708    -5265024.770 6  -3986721.253 9
  21448147.841   -14704794.515 8 -11297914.134 9
  22853284.255     8771309.276 7   6880181.239 9
  21739659.989   -13029554.565 7  -9531707.316 9
  21011653.028   -10090170.367 7  -7778983.989 9
 94  3 17 22 22 30.0010000  0  6 15 26  2 19  7 27
  24440220.489     -841849.893 5   -616210.533 9
  23563799.419    -5301953.548 6  -4015496.908 9
  21450090.927   -14694583.729 8 -11289957.669 9
  22870178.349     8860089.771 6   6949360.811 9
  21730668.771   -13076801.833 7  -9568523.321 9
  21021653.849   -10037615.754 7  -7738032.354 9
 94  3 17 22 23  0.0010000  0  6 15 26  2 19  7 27
  24436519.481     -861297.401 5   -631364.365 9
  23556865.505    -5338390.482 6  -4043889.302 9
  21452080.161   -14684130.975 8 -11281812.658 9
  22887135.544     8949199.831 6   7018797.186 9
  21721766.083   -13123586.985 7  -9604979.230 9
  21031745.325    -9984584.707 7  -7696709.475 9
 94  3 17 22 23 30.0010000  0  6 15 26  2 19  7 27
  24432908.083     -880278.452 5   -646154.722 9
  23550025.958    -5374332.828 6  -4071896.308 9
  21454113.435   -14673446.105 8 -11273486.780 9
  22904153.661     9038630.448 6   7088483.349 9
  21712950.724   -13169912.147 7  -9641076.714 9
  21041923.208    -9931099.796 7  -7655032.936 9
 94  3 17 22 24  0.0010000  0  6 15 26  2 19  7 27
  24429382.646     -898801.964 5   -660588.561 9
  23543281.372    -5409776.374 6  -4099514.632 9
  21456189.646   -14662535.513 8 -11264985.015 9
  22921229.317     9128364.093 6   7158405.628 9
  21704222.106   -13215781.647 7  -9676819.133 9
  21052182.192    -9877187.259 7  -7613023.179 9
 94  3 17 22 24 30.0010000  0  6 15 26  2 19  7 27
  24425943.317     -916874.460 5   -674670.965 9
  23536629.599    -5444730.512 6  -4126751.605 9
  21458306.396   -14651411.228 8 -11256316.740 9
  22938355.825     9218364.200 6   7228535.544 9
  21695579.458   -13261198.156 7  -9712208.572 9
  21062516.856    -9822879.403 7  -7570705.378 9
 94  3 17 22 25  0.0010000  0  6 15 26  2 19  7 27
  24422590.091     -934493.927 5   -688400.357 9
  23530071.599    -5479191.770 6  -4153604.509 9
  21460461.677   -14640085.510 8 -11247491.501 9
  22955532.091     9308624.474 6   7298868.186 9
  21687022.435   -13306165.076 7  -9747247.683 9
  21072924.380    -9768188.479 7  -7528089.100 9
 94  3 17 22 25 30.0010000  0  6 15 26  2 19  7 27
  24419323.677     -951657.426 5   -701774.444 9
  23523606.106    -5513170.402 6  -4180081.345 9
  21462653.270   -14628568.709 8 -11238517.368 9
  22972758.099     9399147.162 6   7369405.303 9
  21678553.138   -13350671.355 7  -9781927.854 9
  21083407.052    -9713101.578 7  -7485164.268 9
 94  3 17 22 26  0.0010000  0  6 15 26  2 19  7 27
  24416144.841     -968364.259 5   -714792.700 9
  23517229.458    -5546679.045 6  -4206191.952 9
  21464880.106   -14616866.271 8 -11229398.583 9
  22990035.310     9489939.213 6   7440152.317 9
  21670170.763   -13394721.572 7  -9816252.656 9
  21093967.724    -9657602.654 7  -7441918.373 9
 94  3 17 22 26 30.0010000  0  6 15 26  2 19  7 27
  24413053.622     -984608.189 5   -727450.265 9
  23510941.942    -5579720.171 6  -4231938.273 9
  21467142.177   -14604979.309 8 -11220136.013 9
  23007367.239     9581019.728 6   7511124.097 9
  21661875.130   -13438315.219 7  -9850221.688 9
  21104611.396    -9601671.413 7  -7398335.608 9
 94  3 17 22 27  0.0020000  0  6 15 26  2 19  7 27
  24410050.807    -1000387.796 5   -739746.020 9
  23504743.174    -5612295.233 6  -4257321.421 9
  21469441.619   -14592894.211 8 -11210719.054 9
  23024759.760     9672418.155 6   7582343.616 9
  21653664.041   -13481463.111 7  -9883843.379 9
  21115344.314    -9545269.698 7  -7354386.237 9
 94  3 17 22 27 30.0020000  0  6 15 26  2 19  7 27
  24407137.947    -1015697.747 5   -751675.786 9
  23498633.682    -5644400.676 6  -4282338.618 9
  21471781.580   -14580598.851 8 -11201138.257 9
  23042211.244     9764126.118 6   7653804.317 9
  21645539.025   -13524160.092 7  -9917113.710 9
  21126171.002    -9488375.343 7  -7310052.992 9
 94  3 17 22 28  0.0020000  0  6 15 26  2 19  7 27
  24404312.088    -1030545.534 5   -763245.447 9
  23492614.150    -5676034.310 6  -4306988.196 9
  21474160.400   -14568097.944 8 -11191397.288 9
  23059719.713     9856134.565 6   7725499.167 9
  21637497.814   -13566418.098 7  -9950041.984 9
  21137090.908    -9430990.214 7  -7265337.327 9
 94  3 17 22 28 30.0020000  0  6 15 26  2 19  7 27
  24401574.971    -1044931.639 5   -774455.368 9
  23486684.596    -5707192.973 6  -4331267.651 9
  21476579.877   -14555383.632 8 -11181490.033 9
  23077283.143     9948429.412 6   7797417.186 9
  21629540.736   -13608232.204 7  -9982624.371 9
  21148102.361    -9373124.711 7  -7220247.345 9
 94  3 17 22 29  0.0020000  0  6 15 26  2 19  7 27
  24398925.072    -1058855.159 5   -785304.813 9
  23480846.619    -5737873.254 6  -4355174.341 9
  21479037.307   -14542469.260 8 -11171426.881 9
  23094895.924    10040986.586 6   7869539.611 9
  21621669.393   -13649595.694 7 -10014855.624 9
  21159201.314    -9314799.475 7  -7174799.124 9
 94  3 17 22 29 30.0020000  0  6 15 26  2 19  7 27
  24396365.432    -1072306.273 6   -795786.155 9
  23475101.893    -5768059.518 6  -4378696.088 9
  21481531.041   -14529365.428 8 -11161216.098 9
  23112557.658    10133798.220 6   7941860.313 9
  21613887.244   -13690491.331 7 -10046722.313 9
  21170383.104    -9256038.508 7  -7129011.376 9
 94  3 17 22 30  0.0020000  0  6 15 26  2 19  7 27
  24393895.408    -1085285.937 6   -805900.141 9
  23469451.307    -5797754.034 6  -4401834.652 9
  21484060.322   -14516074.105 8 -11150859.214 9
  23130268.236    10226868.869 6   8014382.857 9
  21606194.697   -13730917.142 7 -10078222.910 9
  21181641.088    -9196878.150 7  -7082912.405 9
 94  3 17 22 30 30.0020000  0  6 15 26  2 19  7 27
  24391515.728    -1097791.636 6   -815644.816 9
  23463893.432    -5826959.328 6  -4424592.006 9
  21486624.533   -14502598.671 8 -11140358.868 9
  23148028.400    10320197.430 6   8087106.360 9
  21598589.213   -13770882.829 7 -10109364.972 9
  21192971.752    -9137335.077 7  -7036515.220 9
 94  3 17 22 31  0.0020000  0  6 15 26  2 19  7 27
  24389226.916    -1109819.673 6   -825017.264 9
  23458431.299    -5855663.807 6  -4446959.123 9
  21489220.619   -14488956.257 8 -11129728.405 9
  23165839.986    10413798.160 6   8160041.948 9
  21591071.799   -13810387.660 7 -10140147.924 9
  21204377.143    -9077399.635 7  -6989812.284 9
 94  3 17 22 31 30.0020000  0  6 15 26  2 19  7 27
  24387028.330    -1121371.368 6   -834018.553 9
  23453063.439    -5883871.623 6  -4468939.215 9
  21491851.369   -14475131.611 8 -11118955.946 9
  23183705.393    10507682.771 6   8233198.740 9
  21583641.010   -13849436.630 7 -10170575.657 9
  21215858.525    -9017064.273 7  -6942797.725 9
 94  3 17 22 32  0.0020000  0  6 15 26  2 19  7 27
  24384920.103    -1132448.749 6   -842650.236 9
  23447789.533    -5911587.167 6  -4490535.725 9
  21494518.002   -14461118.527 8 -11108036.653 9
  23201625.213    10601851.728 6   8306577.106 9
  21576294.103   -13888043.733 7 -10200659.081 9
  21227418.338    -8956317.074 7  -6895462.263 9
 94  3 17 22 32 30.0020000  0  6 15 26  2 19  7 27
  24382900.025    -1143066.763 6   -850923.974 9
  23442607.971    -5938815.933 6  -4511752.922 9
  21497215.275   -14446943.495 8 -11096991.168 9
  23219593.924    10696277.652 6   8380155.708 9
  21569028.471   -13926225.290 7 -10230410.912 9
  21239057.955    -8895151.692 7  -6847800.944 9
 94  3 17 22 33  0.0020000  0  6 15 26  2 19  7 27
  24380963.869    -1153239.302 6   -858850.585 9
  23437516.275    -5965572.555 6  -4532602.220 9
  21499943.330   -14432607.857 8 -11085820.537 9
  23237610.072    10790952.967 6   8453928.631 9
  21561843.533   -13963980.121 7 -10259830.227 9
  21250775.643    -8833574.350 7  -6799818.612 9
 94  3 17 22 33 30.0020000  0  6 15 26  2 19  7 27
  24379112.525    -1162969.315 6   -866432.379 9
  23432512.525    -5991867.056 6  -4553091.430 9
  21502703.291   -14418103.706 8 -11074518.597 9
  23255670.189    10885857.923 6   8527880.494 9
  21554740.166   -14001310.734 7 -10288918.983 9
  21262568.869    -8771600.623 7  -6751527.410 9
 94  3 17 22 34  0.0020000  0  6 15 26  2 19  7 27
  24377343.260    -1172267.293 6   -873677.531 9
  23427595.033    -6017711.105 6  -4573229.628 9
  21505489.361   -14403463.238 8 -11063110.436 9
  23273769.205    10980968.161 6   8601992.320 9
  21547714.830   -14038228.857 7 -10317686.315 9
  21274436.322    -8709236.712 7  -6702932.165 9
 94  3 17 22 34 30.0020000  0  6 15 26  2 19  7 27
  24375653.807    -1181146.156 6   -880596.084 9
  23422757.658    -6043130.076 6  -4593036.598 9
  21508298.189   -14388702.582 8 -11051608.627 9
  23291905.080    11076272.841 6   8676255.651 9
  21540766.783   -14074740.605 7 -10346136.997 9
  21286373.135    -8646507.028 7  -6654051.908 9
 94  3 17 22 35  0.0020000  0  6 15 26  2 19  7 27
  24374046.783    -1189591.977 6   -887177.207 9
  23418001.088    -6068127.027 6  -4612514.738 9
  21511132.447   -14373808.832 8 -11040003.108 9
  23310080.775    11171787.825 6   8750682.874 9
  21533897.572   -14110839.646 7 -10374266.084 9
  21298380.486    -8583409.586 7  -6604885.083 9
 94  3 17 22 35 30.0020000  0  6 15 26  2 19  7 27
  24372523.447    -1197596.908 6   -893414.769 9
  23413324.174    -6092704.351 6  -4631665.893 9
  21513990.697   -14358788.856 8 -11028299.228 9
  23328295.752    11267507.687 6   8825269.727 9
  21527104.916   -14146534.470 7 -10402080.200 9
  21310459.447    -8519934.255 7  -6555423.798 9
 94  3 17 22 36  0.0020000  0  6 15 26  2 19  7 27
  24371084.557    -1205154.926 6   -899304.089 9
  23408726.025    -6116865.310 6  -4650492.598 9
  21516873.463   -14343639.209 8 -11016494.308 9
  23346552.713    11363448.134 6   8900028.463 9
  21520388.439   -14181830.824 7 -10429583.821 9
  21322612.439    -8456068.512 7  -6505658.300 9
 94  3 17 22 36 30.0020000  0  6 15 26  2 19  7 27
  24369732.330    -1212263.914 6   -904843.523 9
  23404206.549    -6140616.651 6  -4669000.133 9
  21519783.322   -14328348.658 8 -11004579.596 9
  23364852.439    11459615.058 6   8974963.670 9
  21513748.002   -14216724.890 7 -10456773.966 9
  21334839.135    -8391817.784 7  -6455592.813 9
 94  3 17 22 37  0.0020000  0  6 15 26  2 19  7 27
  24368466.229    -1218915.319 6   -910026.402 9
  23399768.588    -6163939.435 6  -4687173.720 9
  21522720.557   -14312912.977 8 -10992551.791 9
  23383196.096    11556009.516 6   9050076.189 9
  21507186.533   -14251206.196 7 -10483642.487 9
  21347143.768    -8327157.285 7  -6405208.025 9
 94  3 17 22 37 30.0020000  0  6 15 26  2 19  7 27
  24367287.721    -1225104.098 6   -914848.781 9
  23395414.580    -6186819.830 6  -4705002.589 9
  21525686.658   -14297326.151 8 -10980406.212 9
  23401583.463    11652636.463 6   9125369.864 9
  21500705.596   -14285263.430 7 -10510180.558 9
  21359527.439    -8262080.592 7  -6354498.919 9
 94  3 17 22 38  0.0020000  0  6 15 26  2 19  7 27
  24366199.713    -1230825.148 6   -919306.710 9
  23391148.893    -6209235.898 6  -4722469.646 9
  21528682.486   -14281582.903 8 -10968138.743 9
  23420015.814    11749497.661 6   9200846.072 9
  21494309.877   -14318874.317 7 -10536370.829 9
  21371989.018    -8196593.610 7  -6303470.120 9
 94  3 17 22 38 30.0020000  0  6 15 26  2 19  7 27
  24365200.541    -1236075.638 6   -923397.970 9
  23386976.518    -6231162.669 6  -4739555.435 9
  21531710.119   -14265671.568 8 -10955740.297 9
  23438492.643    11846595.452 6   9276506.644 9
  21488001.799   -14352021.315 7 -10562199.624 9
  21384527.814    -8130702.003 7  -6252126.023 9
 94  3 17 22 39  0.0020000  0  6 15 26  2 19  7 27
  24364293.150    -1240845.046 6   -927114.361 9
  23382901.580    -6252573.579 6  -4756239.253 9
  21534771.619   -14249583.474 8 -10943204.119 9
  23457017.385    11943943.955 6   9352362.567 9
  21481783.166   -14384701.402 7 -10587664.599 9
  21397145.252    -8064397.274 7  -6200460.003 9
 94  3 17 22 39 30.0020000  0  6 15 26  2 19  7 27
  24363478.408    -1245129.209 6   -930452.639 9
  23378926.283    -6273465.635 6  -4772518.769 9
  21537869.119   -14233306.690 8 -10930520.905 9
  23475589.689    12041542.033 6   9428412.963 9
  21475653.705   -14416911.721 7 -10612763.519 9
  21409839.338    -7997689.576 7  -6148479.989 9
 94  3 17 22 40  0.0020000  0  6 15 26  2 19  7 27
  24362755.619    -1248927.242 6   -933412.103 9
  23375050.158    -6293835.815 6  -4788391.630 9
  21541002.705   -14216839.562 8 -10917689.373 9
  23494209.494    12139389.412 6   9504657.625 9
  21469612.033   -14448660.632 7 -10637502.904 9
  21422610.807    -7930574.477 7  -6096182.533 9
 94  3 17 22 40 30.0020000  0  6 15 26  2 19  7 27
  24362125.447    -1252235.934 6   -935990.263 9
  23371271.502    -6313692.223 6  -4803864.150 9
  21544172.268   -14200181.806 8 -10904709.301 9
  23512878.041    12237493.071 6   9581101.980 9
  21463656.057   -14479959.143 7 -10661891.322 9
  21435460.955    -7863046.735 7  -6043563.534 9
 94  3 17 22 41  0.0020000  0  6 15 26  2 19  7 27
  24361590.080    -1255050.095 6   -938183.078 9
  23367587.791    -6333047.708 6  -4818946.349 9
  21547374.971   -14183352.758 8 -10891595.751 9
  23531593.299    12335842.639 6   9657737.951 9
  21457785.955   -14510807.045 7 -10685928.625 9
  21448392.033    -7795094.859 7  -5990614.044 9
 94  3 17 22 41 30.0020000  0  6 15 26  2 19  7 27
  24361149.502    -1257365.164 6   -939987.006 9
  23364000.486    -6351903.492 6  -4833639.155 9
  21550608.807   -14166358.628 8 -10878353.568 9
  23550352.541    12434421.466 6   9734552.575 9
  21452004.932   -14541187.125 7 -10709601.387 9
  21461403.361    -7726718.492 7  -5937333.784 9
 94  3 17 22 42  0.0020000  0  6 15 26  2 19  7 27
  24360806.189    -1259166.486 6   -941390.596 9
  23360508.814    -6370248.084 6  -4847933.635 9
  21553874.283   -14149198.091 8 -10864981.722 9
  23569159.604    12533252.295 6   9811563.555 9
  21446315.432   -14571085.788 7 -10732899.020 9
  21474498.447    -7657902.486 7  -5883710.941 9
 94  3 17 22 42 30.0020000  0  6 15 26  2 19  7 27
  24360563.018    -1260446.050 6   -942387.640 9
  23357116.533    -6388077.118 6  -4861826.380 9
  21557169.729   -14131881.246 8 -10851488.074 9
  23588015.150    12632339.510 6   9888774.319 9
  21440719.510   -14600493.058 7 -10755813.754 9
  21487676.377    -7588653.073 7  -5829750.376 9
 94  3 17 22 43  0.0020000  0  6 15 26  2 19  7 27
  24360419.228    -1261199.527 6   -942974.719 9
  23353824.174    -6405378.048 6  -4875307.626 9
  21560494.252   -14114410.240 8 -10837874.296 9
  23606918.338    12731676.367 6   9966179.603 9
  21435218.463   -14629400.369 7 -10778338.911 9
  21500936.611    -7518969.360 7  -5775451.401 9
 94  3 17 22 43 30.0020000  0  6 15 26  2 19  7 27
  24360374.822    -1261430.718 5   -943154.861 9
  23350632.658    -6422149.312 6  -4888376.135 9
  21563850.604   -14096773.190 8 -10824131.133 9
  23625869.596    12831267.402 6  10043782.955 9
  21429810.635   -14657819.055 7 -10800483.319 9
  21514277.236    -7448864.574 7  -5720824.314 9
 94  3 17 22 44  0.0020000  0  6 15 26  2 19  7 27
  24360430.518    -1261137.263 5   -942926.181 9
  23347542.096    -6438388.878 6  -4901030.340 9
  21567237.916   -14078972.485 8 -10810260.449 9
  23644870.502    12931117.094 6  10121587.856 9
  21424491.939   -14685768.083 7 -10822261.761 9
  21527697.893    -7378339.499 7  -5665869.727 9
 94  3 17 22 44 30.0020000  0  6 15 26  2 19  7 27
  24360586.369    -1260320.160 6   -942289.450 9
  23344553.424    -6454096.564 6  -4913270.099 9
  21570656.502   -14061006.159 8 -10796260.711 9
  23663917.682    13031209.396 6  10199581.802 9
  21419263.018   -14713246.341 7 -10843673.371 9
  21541198.182    -7307395.016 7  -5610588.346 9
 94  3 17 22 45  0.0020000  0  6 15 26  2 19  7 27
  24360841.861    -1258978.811 6   -941244.224 9
  23341663.377    -6469284.168 6  -4925104.591 9
  21574110.322   -14042857.761 8 -10782119.099 9
  23683010.955    13131546.748 6  10277766.697 9
  21414124.588   -14740248.677 7 -10864714.134 9
  21554781.596    -7236014.924 7  -5554967.512 9
 94  3 17 22 45 30.0020000  0  6 15 26  2 19  7 27
  24361198.455    -1257105.255 6   -939784.297 9
  23338871.041    -6483958.377 6  -4936539.035 9
  21577600.861   -14024514.898 8 -10767825.957 9
  23702154.814    13232147.083 6  10356156.514 9
  21409078.502   -14766766.109 7 -10885377.048 9
  21568450.252    -7164184.706 7  -5498995.939 9
 94  3 17 22 46  0.0020000  0  6 15 26  2 19  7 27
  24361656.728    -1254696.662 6   -937907.457 9
  23336174.932    -6498125.645 6  -4947578.462 9
  21581127.838   -14005981.120 8 -10753384.048 9
  23721350.275    13333019.989 6  10434758.737 9
  21404126.268   -14792789.588 7 -10905655.065 9
  21582205.658    -7091900.768 7  -5442670.826 9
 94  3 17 22 46 30.0020000  0  6 15 26  2 19  7 27
  24362217.869    -1251750.318 6   -935611.583 9
  23333575.174    -6511788.112 6  -4958224.524 9
  21584693.650   -13987241.067 8 -10738781.403 9
  23740600.338    13434178.388 6  10513583.400 9
  21399272.408   -14818297.125 7 -10925531.049 9
  21596047.369    -7019161.979 7  -5385991.284 9
 94  3 17 22 47  0.0020000  0  6 15 26  2 19  7 27
  24362879.338    -1248273.686 6   -932902.509 9
  23331070.510    -6524948.611 6  -4968479.460 9
  21588297.119   -13968306.090 8 -10724026.868 9
  23759903.010    13535614.632 6  10592624.572 9
  21394514.838   -14843298.481 7 -10945012.604 9
  21609970.564    -6945994.744 7  -5328977.886 9
 94  3 17 22 47 30.0020000  0  6 15 26  2 19  7 27
  24363640.479    -1244270.293 6   -929782.970 9
  23328664.783    -6537592.435 6  -4978331.790 9
  21591935.744   -13949183.822 8 -10709126.396 9
  23779255.971    13637312.763 6  10671869.811 9
  21389851.596   -14867803.909 7 -10964107.728 9
  21623969.393    -6872430.808 7  -5271655.361 9
 94  3 17 22 48  0.0020000  0  6 15 26  2 19  7 27
  24364503.197    -1239739.233 6   -926252.261 9
  23326359.416    -6549707.216 6  -4987771.876 9
  21595610.635   -13929872.026 8 -10694078.240 9
  23798653.596    13739250.272 6  10751301.581 9
  21385282.541   -14891813.066 7 -10982816.143 9
  21638040.908    -6798484.374 7  -5214034.790 9
 94  3 17 22 48 30.0020000  0  6 15 26  2 19  7 27
  24365465.744    -1234678.559 6   -922308.875 9
  23324157.322    -6561280.284 6  -4996789.847 9
  21599321.830   -13910369.050 8 -10678881.109 9
  23818093.127    13841404.642 6  10830902.332 9
  21380807.869   -14915328.399 7 -11001139.758 9
  21652185.869    -6724151.618 7  -5156113.188 9
 94  3 17 22 49  0.0020000  0  6 15 26  2 19  7 27
  24366529.900    -1229088.252 6   -917952.781 9
  23322058.010    -6572309.167 6  -5005383.786 9
  21603068.549   -13890679.278 8 -10663538.426 9
  23837572.244    13943768.051 6  10910665.982 9
  21376424.174   -14938365.135 7 -11019090.438 9
  21666405.752    -6649425.695 7  -5097885.218 9
 94  3 17 22 49 30.0020000  0  6 15 26  2 19  7 27
  24367695.275    -1222962.067 6   -913179.116 9
  23320062.877    -6582794.207 6  -5013553.945 9
  21606852.635   -13870794.713 8 -10648043.956 9
  23857092.908    14046350.096 6  10990599.978 9
  21372132.947   -14960915.398 7 -11036662.055 9
  21680706.447    -6574275.381 7  -5039326.562 9
 94  3 17 22 50  0.0020000  0  6 15 26  2 19  7 27
  24368963.674    -1216299.268 6   -907987.319 9
  23318170.072    -6592743.110 6  -5021306.328 9
  21610671.822   -13850725.049 8 -10632405.259 9
  23876656.838    14149158.146 6  11070710.104 9
  21367934.143   -14982981.476 7 -11053856.375 9
  21695091.775    -6498679.928 7  -4980421.038 9
 94  3 17 22 50 30.0020000  0  6 15 26  2 19  7 27
  24370334.963    -1209093.737 6   -902372.599 9
  23316379.033    -6602152.571 6  -5028638.368 9
  21614525.674   -13830473.012 8 -10616624.451 9
  23896270.416    14252228.543 6  11151024.647 9
  21363827.932   -15004558.628 7 -11070669.716 9
  21709564.174    -6422626.931 7  -4921158.987 9
 94  3 17 22 51  0.0020000  0  6 15 26  2 19  7 27
  24371807.643    -1201353.409 6   -896341.161 9
  23314690.080    -6611029.604 6  -5035555.537 9
  21618411.627   -13810051.690 8 -10600711.732 9
  23915936.010    14355570.980 6  11231551.168 9
  21359815.502   -15025645.177 7 -11087100.771 9
  21724121.510    -6346127.393 7  -4861548.969 9
 94  3 17 22 51 30.0020000  0  6 15 26  2 19  7 27
  24373383.174    -1193073.402 6   -889889.200 9
  23313102.338    -6619372.886 6  -5042056.801 9
  21622330.174   -13789459.618 8 -10584665.961 9
  23935653.330    14459186.204 6  11312290.240 9
  21355897.510   -15046233.049 7 -11103143.250 9
  21738763.682    -6269183.299 7  -4801592.536 9
 94  3 17 22 52  0.0020000  0  6 15 26  2 19  7 27
  24375061.971    -1184250.971 6   -883014.574 9
  23311616.291    -6627180.613 6  -5048140.741 9
  21626282.166   -13768692.383 8 -10568483.700 9
  23955422.666    14563076.607 6  11393243.746 9
  21352073.697   -15066327.255 7 -11118801.047 9
  21753487.244    -6191809.671 7  -4741301.407 9
 94  3 17 22 52 30.0020000  0  6 15 26  2 19  7 27
  24376844.580    -1174883.279 6   -875715.066 9
  23310232.018    -6634455.524 6  -5053809.498 9
  21630269.619   -13747737.567 8 -10552155.271 9
  23975243.643    14667235.254 6  11474406.257 9
  21348344.572   -15085924.597 7 -11134071.680 9
  21768291.744    -6114012.202 7  -4680680.026 9
 94  3 17 22 53  0.0020000  0  6 15 26  2 19  7 27
  24378730.486    -1164972.506 5   -867992.379 9
  23308948.400    -6641202.219 6  -5059066.675 9
  21634293.447   -13726592.573 8 -10535678.651 9
  23995111.197    14771639.746 6  11555760.347 9
  21344707.494   -15105037.347 7 -11148964.714 9
  21783174.494    -6035803.023 7  -4619737.825 9
 94  3 17 22 53 30.0020000  0  6 15 26  2 19  7 27
  24380722.494    -1154504.711 6   -859835.647 9
  23307766.252    -6647411.908 6  -5063905.387 9
  21638356.557   -13705241.950 8 -10519041.795 9
  24015025.189    14876289.527 6  11637305.568 9
  21341163.729   -15123659.569 7 -11163475.511 9
  21798137.088    -5957173.952 7  -4558468.445 9
 94  3 17 22 54  0.0020000  0  6 15 26  2 19  7 27
  24382820.244    -1143480.908 6   -851245.665 9
  23306688.025    -6653079.252 6  -5068321.507 9
  21642457.643   -13683689.734 8 -10502247.861 9
  24034985.369    14981177.029 6  11719036.016 9
  21337713.268   -15141791.993 7 -11177604.651 9
  21813178.205    -5878132.638 7  -4496877.839 9
 94  3 17 22 54 30.0020000  0  6 15 26  2 19  7 27
  24385024.463    -1131898.033 6   -842220.034 9
  23305714.299    -6658196.483 6  -5072308.956 9
  21646597.494   -13661934.383 8 -10485295.636 9
  24054988.643    15086296.127 6  11800946.940 9
  21334359.111   -15159418.964 7 -11191339.933 9
  21828298.041    -5798676.220 7  -4434963.791 9
 94  3 17 22 55  0.0020000  0  6 15 26  2 19  7 27
  24387334.963    -1119757.105 6   -832759.559 9
  23304844.213    -6662767.159 6  -5075870.522 9
  21650773.736   -13639988.756 8 -10468195.144 9
  24075035.736    15191643.809 6  11883035.964 9
  21331100.900   -15176539.406 7 -11204680.516 9
  21843496.666    -5718807.839 7  -4372728.723 9
 94  3 17 22 55 30.0020000  0  6 15 26  2 19  7 27
  24389749.713    -1107065.188 6   -822869.736 9
  23304076.314    -6666805.478 6  -5079017.268 9
  21654983.979   -13617864.095 8 -10450955.148 9
  24095122.869    15297202.900 6  11965289.735 9
  21327939.650   -15193151.125 7 -11217624.692 9
  21858774.158    -5638524.846 7  -4310170.582 9
 94  3 17 22 56  0.0020000  0  6 15 26  2 19  7 27
  24392270.260    -1093821.220 6   -812549.741 9
  23303408.580    -6670313.887 6  -5081751.095 9
  21659227.502   -13595563.646 8 -10433578.165 9
  24115251.002    15402977.362 6  12047711.322 9
  21324875.705   -15209252.550 7 -11230171.236 9
  21874131.861    -5557818.024 7  -4247282.186 9
 94  3 17 22 56 30.0020000  0  6 15 26  2 19  7 27
  24394894.174    -1080031.273 6   -801804.308 9
  23302838.432    -6673309.555 6  -5084085.382 9
  21663502.580   -13573097.636 8 -10416072.185 9
  24135421.096    15508969.365 6  12130302.407 9
  21321907.229   -15224851.113 7 -11242325.943 9
  21889570.244    -5476691.096 7  -4184066.420 9
 94  3 17 22 57  0.0020000  0  6 15 26  2 19  7 27
  24397623.541    -1065689.186 6   -790628.630 9
  23302367.877    -6675782.121 6  -5086012.058 9
  21667808.416   -13550470.271 8 -10398440.466 9
  24155633.822    15615187.882 6  12213070.016 9
  21319033.721   -15239951.717 7 -11254092.629 9
  21905091.314    -5395124.626 7  -4120508.161 9
 94  3 17 22 57 30.0020000  0  6 15 26  2 19  7 27
  24400457.111    -1050797.275 6   -779024.518 9
  23301998.814    -6677720.660 6  -5087522.605 9
  21672143.729   -13527688.032 8 -10380688.066 9
  24175889.314    15721632.102 6  12296013.486 9
  21316254.361   -15254557.638 7 -11265473.848 9
  21920696.822    -5313118.118 7  -4056607.009 9
 94  3 17 22 58  0.0020000  0  6 15 26  2 19  7 27
  24403396.510    -1035353.460 6   -766990.329 9
  23301733.564    -6679115.033 6  -5088609.135 9
  21676508.400   -13504751.068 8 -10362815.102 9
  24196189.822    15828311.066 6  12379139.884 9
  21313568.197   -15268673.235 7 -11276472.994 9
  21936383.791    -5230684.008 7  -3992372.675 9
 94  3 17 22 58 30.0020000  0  6 15 26  2 19  7 27
  24406440.049    -1019356.283 5   -754524.962 9
  23301574.510    -6679952.663 6  -5089261.838 9
  21680903.604   -13481653.713 8 -10344817.157 9
  24216534.400    15935222.952 6  12462447.780 9
  21310976.119   -15282295.644 7 -11287087.836 9
  21952151.299    -5147824.694 7  -3927807.012 9
 94  3 17 22 59  0.0020000  0  6 15 26  2 19  7 27
  24409590.682    -1002800.292 5   -741624.161 9
  23301522.994    -6680220.883 6  -5089470.845 9
  21685330.729   -13458389.769 8 -10326689.406 9
  24236921.971    16042359.788 6  12545930.956 9
  21308479.275   -15295415.716 7 -11297311.252 9
  21968000.979    -5064534.372 7  -3862905.497 9
 94  3 17 22 59 30.0020000  0  6 15 26  2 19  7 27
  24412846.096     -985692.082 6   -728293.055 9
  23301577.463    -6679935.104 6  -5089248.165 9
  21689791.447   -13434949.240 8 -10308424.056 9
  24257350.213    16149710.052 6  12629580.446 9
  21306078.783   -15308031.814 7 -11307141.960 9
  21983926.557    -4980844.258 7  -3797692.449 9
 94  3 17 23  0  0.0020000  0  6 15 26  2 19  7 27
  24416207.096     -968033.487 6   -714533.089 9
  23301734.682    -6679112.193 6  -5088606.951 9
  21694287.963   -13411318.851 8 -10290010.766 9
  24277817.775    16257268.084 5  12713391.828 9
  21303773.838   -15320142.041 7 -11316578.479 9
  21999926.424    -4896765.589 7  -3732176.634 9
 94  3 17 23  0 30.0020000  0  6 15 26  2 19  7 27
  24419671.572     -949823.706 6   -700343.613 9
  23301993.385    -6677751.060 6  -5087546.343 9
  21698820.939   -13387498.477 8 -10271449.438 9
  24298325.455    16365036.179 5  12797366.896 9
  21301565.533   -15331748.620 7 -11325622.549 9
  22016002.057    -4812286.275 7  -3666348.628 9
 94  3 17 23  1  0.0020000  0  6 15 26  2 19  7 27
  24423241.330     -931065.241 5   -685726.604 9
  23302351.955    -6675864.514 6  -5086076.316 9
  21703387.244   -13363502.558 8 -10252751.326 9
  24318872.635    16473013.846 5  12881505.257 9
  21299451.564   -15342857.580 7 -11334278.864 9
  22032151.557    -4727421.503 7  -3600220.269 9
 94  3 17 23  1 30.0020000  0  6 15 26  2 19  7 27
  24426915.775     -911753.247 6   -670678.276 9
  23302811.424    -6673452.274 6  -5084196.652 9
  21707986.432   -13339334.260 8 -10233918.890 9
  24339462.814    16581213.278 5  12965816.438 9
  21297431.838   -15353471.465 7 -11342549.402 9
  22048374.744    -4642169.345 7  -3533790.046 9
 94  3 17 23  2  0.0020000  0  6 15 26  2 19  7 27
  24430695.877     -891891.613 6   -655201.671 9
  23303370.111    -6670515.672 6  -5081908.399 9
  21712612.846   -13315021.549 8 -10214973.919 9
  24360096.822    16689646.475 5  13050309.754 9
  21295501.939   -15363613.177 7 -11350452.019 9
  22064673.627    -4556517.041 7  -3467048.032 9
 94  3 17 23  2 30.0020000  0  6 15 26  2 19  7 27
  24434581.189     -871475.930 6   -639293.326 9
  23304029.619    -6667049.529 6  -5079207.519 9
  21717266.533   -13290565.789 8 -10195917.482 9
  24380776.736    16798320.076 5  13134990.424 9
  21293663.033   -15373276.675 7 -11357981.999 9
  22081049.900    -4470458.285 7  -3399989.293 9
 94  3 17 23  3  0.0020000  0  6 15 26  2 19  7 27
  24438570.908     -850508.302 6   -622954.901 9
  23304789.322    -6663058.383 6  -5076097.542 9
  21721947.650   -13265966.463 8 -10176749.176 9
  24401501.119    16907225.728 5  13219851.904 9
  21291915.916   -15382456.811 7 -11365135.331 9
  22097501.916    -4384003.855 7  -3332622.245 9
 94  3 17 23  3 30.0020000  0  6 15 26  2 19  7 27
  24442665.002     -828991.880 6   -606188.849 9
  23305648.291    -6658545.237 6  -5072580.813 9
  21726659.854   -13241204.681 8 -10157454.281 9
  24422266.900    17016353.177 5  13304886.205 9
  21290260.143   -15391157.875 7 -11371915.361 9
  22114030.689    -4297144.563 7  -3264939.712 9
 94  3 17 23  4  0.0020000  0  6 15 26  2 19  7 27
  24446863.150     -806932.453 6   -588999.679 9
  23306607.010    -6653507.163 6  -5068655.056 9
  21731404.635   -13216269.355 8 -10138024.155 9
  24443072.619    17125687.874 5  13390081.980 9
  21288695.932   -15399379.202 7 -11378321.573 9
  22130634.416    -4209892.030 7  -3196950.759 9
 94  3 17 23  4 30.0020000  0  6 15 26  2 19  7 27
  24451162.244     -784339.729 6   -571394.945 9
  23307664.744    -6647948.066 6  -5064323.305 9
  21736183.182   -13191158.276 8 -10118457.083 9
  24463910.838    17235190.026 5  13475408.253 9
  21287222.643   -15407120.489 7 -11384353.723 9
  22147309.494    -4122264.185 7  -3128669.353 9
 94  3 17 23  5  0.0020000  0  6 15 26  2 19  7 27
  24455561.596     -761221.831 6   -553380.983 9
  23308822.252    -6641867.015 6  -5059584.837 9
  21740993.611   -13165879.767 8 -10098759.543 9
  24484776.783    17344841.942 5  13560851.223 9
  21285835.369   -15414410.217 7 -11390034.014 9
  22164054.025    -4034270.221 7  -3060102.658 9
 94  3 17 23  5 30.0020000  0  6 15 26  2 19  7 27
  24460060.846     -737576.065 6   -534955.708 9
  23310078.674    -6635262.939 6  -5054438.812 9
  21745835.650   -13140433.650 8 -10078931.399 9
  24505672.518    17454648.952 5  13646415.058 9
  21284534.611   -15421246.378 7 -11395360.873 9
  22180868.330    -3945910.026 7  -2991250.585 9
 94  3 17 23  6  0.0020000  0  6 15 26  2 19  7 27
  24464661.229     -713401.881 6   -516118.657 9
  23311435.283    -6628135.224 6  -5048884.740 9
  21750707.010   -13114834.724 8 -10058984.183 9
  24526598.619    17564617.362 5  13732104.642 9
  21283320.807   -15427625.343 8 -11400331.474 9
  22197750.447    -3857195.859 7  -2922122.692 9
 94  3 17 23  6 30.0020000  0  6 15 26  2 19  7 27
  24469363.650     -688691.876 6   -496864.103 9
  23312888.939    -6620494.774 6  -5042931.149 9
  21755606.908   -13089085.886 8 -10038920.152 9
  24547558.338    17674759.387 5  13817929.512 9
  21282194.830   -15433541.723 8 -11404941.621 9
  22214701.463    -3768116.696 7  -2852710.383 9
 94  3 17 23  7  0.0020000  0  6 15 26  2 19  7 27
  24474168.275     -663440.734 6   -477187.873 9
  23314438.541    -6612350.863 6  -5036585.256 9
  21760537.541   -13063174.881 8 -10018729.757 9
  24568554.830    17785097.570 5  13903907.248 9
  21281159.697   -15438981.355 8 -11409180.276 9
  22231723.525    -3678664.757 7  -2783007.599 9
 94  3 17 23  7 30.0020000  0  6 15 26  2 19  7 27
  24479076.830     -637648.675 6   -457090.176 9
  23316084.963    -6603701.079 6  -5029845.160 9
  21765499.283   -13037101.587 8  -9998412.903 9
  24589589.400    17895634.864 5  13990040.123 9
  21280219.830   -15443920.644 8 -11413029.054 9
  22248817.010    -3588838.230 7  -2713012.934 9
 94  3 17 23  8  0.0020000  0  6 15 26  2 19  7 27
  24484087.635     -611316.980 6   -436571.939 9
  23317825.635    -6594553.146 6  -5022716.899 9
  21770491.166   -13010868.888 8  -9977971.838 9
  24610658.635    18006352.633 5  14076313.621 9
  21279374.338   -15448363.004 8 -11416490.614 9
  22265982.424    -3498632.574 7  -2642722.848 9
 94  3 17 23  8 30.0020000  0  6 15 26  2 19  7 27
  24489201.424     -584442.957 6   -415631.139 9
  23319662.010    -6584901.907 6  -5015196.472 9
  21775513.166   -12984477.383 8  -9957407.029 9
  24631760.736    18117241.665 5  14162720.559 9
  21278622.768   -15452313.088 8 -11419568.583 9
  22283222.244    -3408037.957 7  -2572129.669 9
 94  3 17 23  9  0.0020000  0  6 15 26  2 19  7 27
  24494418.635     -557025.876 6   -394267.167 9
  23321598.088    -6574727.655 6  -5007268.490 9
  21780565.018   -12957930.114 8  -9936720.840 9
  24652893.033    18228297.139 5  14249257.217 9
  21277965.971   -15455764.705 8 -11422258.140 9
  22300535.838    -3317053.300 7  -2501232.569 9
 94  3 17 23  9 30.0020000  0  6 15 26  2 19  7 27
  24499740.143     -529063.447 6   -372478.251 9
  23323635.760    -6564020.030 6  -4998924.902 9
  21785641.268   -12931254.182 8  -9915934.393 9
  24674056.775    18339511.642 5  14335917.802 9
  21277402.189   -15458726.289 8 -11424565.846 9
  22317921.939    -3225689.323 7  -2430039.897 9
 94  3 17 23 10  0.0020000  0  6 15 26  2 19  7 27
  24505165.760     -500549.686 6   -350259.721 9
  23325772.799    -6552790.054 6  -4990174.285 9
  21790741.807   -12904450.745 8  -9895048.597 9
  24695254.025    18450904.409 5  14422717.268 9
  21276929.588   -15461209.878 8 -11426501.096 9
  22335381.182    -3133941.102 7  -2358547.821 9
 94  3 17 23 10 30.0020000  0  6 15 26  2 19  7 27
  24510696.518     -471483.508 6   -327610.741 9
  23328012.018    -6541021.831 6  -4981004.246 9
  21795867.377   -12877515.973 8  -9874060.459 9
  24716490.510    18562503.763 5  14509677.718 9
  21276548.603   -15463212.313 8 -11428061.419 9
  22352914.439    -3041804.908 7  -2286753.430 9
 94  3 17 23 11  0.0020000  0  6 15 26  2 19  7 27
  24516333.393     -441863.312 6   -304530.061 9
  23330355.213    -6528709.161 6  -4971409.965 9
  21801019.244   -12850441.763 8  -9852963.671 9
  24737767.338    18674312.807 5  14596801.547 9
  21276259.721   -15464729.861 8 -11429243.911 9
  22370520.096    -2949285.184 7  -2214660.186 9
 94  3 17 23 11 30.0020000  0  6 15 26  2 19  7 27
  24522076.869     -411679.209 6   -281009.972 9
  23332801.846    -6515852.318 6  -4961391.659 9
  21806201.869   -12823207.608 8  -9831742.247 9
  24759085.854    18786343.065 5  14684097.778 9
  21276063.463   -15465761.708 8 -11430047.929 9
  22388198.572    -2856385.940 7  -2142271.206 9
 94  3 17 23 12  0.0020000  0  6 15 26  2 19  7 27
  24527927.955     -380932.029 6   -257051.130 9
  23335351.369    -6502453.953 6  -4950951.386 9
  21811421.830   -12795777.458 8  -9810368.101 9
  24780447.346    18898598.556 5  14771569.490 9
  21275960.807   -15466301.446 8 -11430468.495 9
  22405949.775    -2763102.473 7  -2069582.833 9
 94  3 17 23 12 30.0020000  0  6 15 26  2 19  7 27
  24533886.189     -349623.078 6   -232654.527 9
  23338007.041    -6488499.789 6  -4940078.038 9
  21816679.213   -12768149.120 8  -9788839.522 9
  24801846.205    19011047.441 5  14859191.906 9
  21275952.346   -15466345.748 8 -11430503.008 9
  22423770.064    -2669457.761 7  -1996612.974 9
 94  3 17 23 13  0.0030000  0  6 15 26  2 19  7 27
  24539949.413     -317758.558 6   -207825.019 9
  23340762.202    -6474018.207 6  -4928793.706 9
  21821972.171   -12740332.409 8  -9767164.159 9
  24823275.218    19123661.277 5  14946942.886 9
  21276036.319   -15465904.127 8 -11430158.875 9
  22441655.312    -2575468.185 7  -1923374.382 9
 94  3 17 23 13 30.0030000  0  6 15 26  2 19  7 27
  24546118.366     -285339.203 6   -182563.176 9
  23343614.788    -6459028.464 6  -4917113.398 9
  21827301.476   -12712328.005 8  -9745342.543 9
  24844737.890    19236445.304 5  15034826.442 9
  21276212.780   -15464976.279 8 -11429435.866 9
  22459605.405    -2481138.297 7  -1849870.611 9
 94  3 17 23 14  0.0030000  0  6 15 26  2 19  7 27
  24552391.624     -252373.076 6   -156875.287 9
  23346562.757    -6443536.051 6  -4905041.413 9
  21832662.194   -12684158.627 8  -9723392.382 9
  24866231.421    19349393.408 5  15122837.886 9
  21276480.054   -15463571.528 8 -11428341.247 9
  22477622.765    -2386458.578 7  -1776094.243 9
 94  3 17 23 14 30.0030000  0  6 15 26  2 19  7 27
  24558769.093     -218859.563 6   -130760.855 9
  23349608.077    -6427534.392 6  -4892572.597 9
  21838050.616   -12655842.055 8  -9701327.522 9
  24887755.436    19462500.229 5  15210973.008 9
  21276836.655   -15461697.391 8 -11426880.873 9
  22495708.960    -2291415.006 7  -1702034.368 9
 94  3 17 23 15  0.0030000  0  6 15 26  2 19  7 27
  24565250.108     -184801.625 6   -104222.194 9
  23352749.226    -6411028.966 6  -4879711.237 9
  21843467.186   -12627375.892 8  -9679146.102 9
  24909312.233    19575781.998 5  15299244.443 9
  21277284.851   -15459342.491 8 -11425045.875 9
  22513868.507    -2195987.134 7  -1627675.034 9
 94  3 17 23 15 30.0030000  0  6 15 26  2 19  7 27
  24571834.694     -150199.900 6    -77259.797 9
  23355988.421    -6394005.586 6  -4866446.282 9
  21848914.288   -12598753.191 8  -9656842.705 9
  24930902.272    19689239.925 5  15387653.124 9
  21277824.772   -15456505.383 8 -11422835.131 9
  22532099.983    -2100180.047 7  -1553020.212 9
 94  3 17 23 16  0.0030000  0  6 15 26  2 19  7 27
  24578521.390     -115061.588 6    -49879.281 9
  23359329.437    -6376447.860 6  -4852764.949 9
  21854388.585   -12569984.478 8  -9634425.526 9
  24952521.358    19802847.937 5  15476178.796 9
  21278455.077   -15453193.773 8 -11420254.644 9
  22550401.647    -2004003.844 7  -1478077.760 9
 94  3 17 23 16 30.0030000  0  6 15 26  2 19  7 27
  24585310.093      -79387.684 6    -22081.436 9
  23362769.780    -6358368.129 6  -4838676.851 9
  21859892.436   -12541062.681 8  -9611889.067 9
  24974167.702    19916604.201 5  15564819.928 9
  21279173.437   -15449418.571 8 -11417312.920 9
  22568770.960    -1907472.118 7  -1402858.278 9
 94  3 17 23 17  0.0030000  0  6 15 26  2 19  7 27
  24592199.749      -43181.758 6      6130.981 9
  23366307.054    -6339782.575 6  -4824194.626 9
  21865425.038   -12511989.108 8  -9589234.341 9
  24995842.397    20030501.696 5  15653571.191 9
  21279977.374   -15445193.333 8 -11414020.513 9
  22587202.624    -1810613.260 7  -1327383.887 9
 94  3 17 23 17 30.0030000  0  6 15 26  2 19  7 27
  24599190.843       -6443.163 6     34758.472 9
  23369940.351    -6320688.829 6  -4809316.398 9
  21870984.929   -12482770.295 8  -9566466.441 9
  25017540.194    20144523.693 5  15742419.406 9
  21280863.491   -15440537.365 8 -11410392.476 9
  22605695.444    -1713431.554 7  -1251657.924 9
 94  3 17 23 18  0.0030000  0  6 15 26  2 19  7 27
  24606282.929       30827.121 6     63800.255 9
  23373669.210    -6301092.971 6  -4794046.915 9
  21876571.421   -12453412.747 8  -9543590.440 9
  25039263.405    20258678.856 5  15831371.404 9
  21281831.046   -15435452.660 8 -11406430.356 9
  22624253.866    -1615908.880 7  -1175666.270 9
 94  3 17 23 18 30.0030000  0  6 15 26  2 19  7 27
  24613477.999       68638.223 6     93263.470 9
  23377493.444    -6280996.588 6  -4778387.406 9
  21882188.694   -12423893.884 8  -9520588.732 9
  25061014.085    20372978.243 5  15920435.783 9
  21282884.241   -15429917.638 8 -11402117.337 9
  22642880.351    -1518023.902 7  -1099392.306 9
 94  3 17 23 19  0.0030000  0  6 15 26  2 19  7 27
  24620776.429      106989.158 6    123147.332 9
  23381415.187    -6260388.411 6  -4762329.104 9
  21887836.460   -12394216.384 8  -9497463.410 9
  25082788.538    20487403.020 5  16009597.864 9
  21284028.366   -15423906.696 8 -11397433.468 9
  22661577.530    -1419771.155 7  -1022831.764 9
 94  3 17 23 19 30.0030000  0  6 15 26  2 19  7 27
  24628176.687      145879.299 6    153451.353 9
  23385432.726    -6239276.137 6  -4745877.995 9
  21893512.608   -12364387.519 8  -9474220.146 9
  25104587.999    20601961.274 5  16098863.973 9
  21285266.038   -15417400.926 8 -11392364.025 9
  22680345.335    -1321146.038 7   -945981.062 9
 94  3 17 23 20  0.0030000  0  6 15 26  2 19  7 27
  24635680.882      185315.477 6    184180.827 9
  23389545.226    -6217665.385 6  -4729038.468 9
  21899219.233   -12334398.004 8  -9450851.695 9
  25126417.007    20716675.013 5  16188251.204 9
  21286600.554   -15410388.108 8 -11386899.475 9
  22699182.444    -1222155.378 7   -868845.515 9
 94  3 17 23 20 30.0030000  0  6 15 26  2 19  7 27
  24643289.515      225299.425 6    215337.175 9
  23393752.530    -6195555.170 6  -4711809.747 9
  21904955.444   -12304253.918 8  -9427362.798 9
  25148275.280    20831539.231 5  16277755.700 9
  21288028.265   -15402885.074 8 -11381052.940 9
  22718086.015    -1122817.784 7   -791439.636 9
 94  3 17 23 21  0.0030000  0  5 15 26  2  7 27
  24651003.694      265837.263 6    246925.095 9
  23398055.757    -6172941.972 6  -4694189.097 9
  21910718.116   -12273970.920 8  -9403765.658 9
  21289547.429   -15394901.889 8 -11374832.265 9
  22737052.390    -1023149.010 7   -713775.693 9
 94  3 17 23 21 30.0030000  0  5 15 26  2  7 27
  24658824.772      306934.678 6    278949.057 9
  23402456.351    -6149816.994 6  -4676169.643 9
  21916509.976   -12243535.332 8  -9380049.615 9
  21291153.858   -15386459.740 8 -11368253.956 9
  22756083.608     -923139.473 7   -635846.222 9
 94  3 17 23 22  0.0030000  0  5 15 26  2  7 27
  24666752.640      348598.120 6    311414.070 9
  23406961.655    -6126141.634 6  -4657721.328 9
  21922334.655   -12212927.027 8  -9356198.992 9
  21292846.265   -15377567.784 8 -11361325.143 9
  22775182.358     -822776.116 7   -557641.046 9
 94  3 17 23 22 30.0030000  0  5 15 26  2  7 27
  24674789.015      390827.573 6    344320.150 9
  23411573.897    -6101904.218 6  -4638835.038 9
  21928191.233   -12182149.696 8  -9332216.652 9
  21294624.780   -15368219.559 8 -11354040.807 9
  22794348.905     -722053.870 7   -479156.217 9
 94  3 17 23 23  0.0030000  0  5 15 26  2  7 27
  24682932.679      433621.503 6    377666.066 9
  23416293.202    -6077103.068 6  -4619509.485 9
  21934082.483   -12151191.096 8  -9308093.068 9
  21296496.655   -15358383.863 8 -11346376.621 9
  22813585.101     -620967.278 7   -400387.480 9
 94  3 17 23 23 30.0030000  0  5 15 26  2  7 27
  24691183.241      476979.057 6    411451.174 9
  23421121.272    -6051733.725 6  -4599741.179 9
  21940010.726   -12120037.266 8  -9283817.360 9
  21298462.421   -15348052.684 8 -11338326.344 9
  22832892.710     -519505.750 7   -321326.596 9
 94  3 17 23 24  0.0030000  0  5 15 26  2  7 27
  24699539.179      520890.520 6    445667.895 9
  23426051.843    -6025821.171 6  -4579549.596 9
  21945971.226   -12088715.978 8  -9259411.167 9
  21300523.936   -15337218.893 8 -11329884.423 9
  22852267.663     -417689.694 7   -241989.449 9
 94  3 17 23 24 30.0030000  0  5 15 26  2  7 27
  24708001.647      565359.333 6    480318.913 9
  23431081.007    -5999394.054 6  -4558957.053 9
  21951962.046   -12057233.604 8  -9234879.454 9
  21302685.554   -15325860.658 8 -11321033.845 9
  22871709.616     -315521.991 7   -162378.293 9
 94  3 17 23 25  0.0030000  0  5 15 26  2  7 27
  24716569.374      610383.983 6    515403.066 9
  23436206.155    -5972461.767 6  -4537970.881 9
  21957983.749   -12025587.387 8  -9210220.059 9
  21304944.905   -15313987.395 8 -11311781.948 9
  22891217.374     -213007.421 7    -82496.858 9
 94  3 17 23 25 30.0030000  0  5 15 26  2  7 27
  24725241.663      655959.033 6    550916.084 9
  23441425.093    -5945033.966 6  -4516598.586 9
  21964036.429   -11993781.060 8  -9185435.906 9
  21307297.335   -15301625.854 8 -11302149.573 9
  22910788.015     -110163.206 6     -2358.555 9
 94  3 17 23 26  0.0030000  0  5 15 26  2  7 27
  24734018.952      702088.610 5    586861.214 9
  23446738.585    -5917112.358 6  -4494841.509 9
  21970120.413   -11961810.345 8  -9160523.664 9
  21309742.468   -15288776.911 8 -11292137.410 9
  22930420.812       -6992.960 6     78033.800 9
 94  3 17 23 26 30.0030000  0  5 15 26  2  7 27
  24742901.499      748765.817 5    623233.060 9
  23452146.905    -5888691.895 6  -4472695.720 9
  21976238.499   -11929658.810 8  -9135470.525 9
  21312279.101   -15275446.577 8 -11281750.134 9
  22950115.851       96506.048 6    158682.324 9
 94  3 17 23 27  0.0030000  0  5 15 26  2  7 27
  24751889.054      795995.045 5    660035.060 9
  23457653.546    -5859755.167 6  -4450147.641 9
  21982394.601   -11897307.882 8  -9110262.016 9
  21314905.390   -15261644.465 8 -11270995.238 9
  22969875.413      200342.205 6    239593.568 9
 94  3 17 23 27 30.0030000  0  5 15 26  2  7 27
  24760981.226      843773.881 5    697265.309 9
  23463257.030    -5830305.895 6  -4427200.179 9
  21988588.569   -11864758.686 8  -9084899.007 9
  21317620.265   -15247378.173 8 -11259878.645 9
  22989700.155      304522.248 6    320772.781 9
 94  3 17 23 28  0.0030000  0  5 15 26  2  7 27
  24770178.468      892104.256 5    734925.343 9
  23468960.163    -5800336.038 6  -4403847.070 9
  21994820.085   -11832013.244 8  -9059383.080 9
  21320424.593   -15232640.753 8 -11248394.931 9
  23009593.319      409061.508 6    402231.892 9
 94  3 17 23 28 30.0030000  0  5 15 26  2  7 27
  24779480.522      940984.712 5    773014.013 9
  23474763.390    -5769840.991 6  -4380084.714 9
  22001090.319   -11799062.359 8  -9033707.070 9
  21323316.999   -15217440.521 8 -11236550.588 9
  23029555.460      513963.249 6    483973.458 9
 94  3 17 23 29  0.0030000  0  5 15 26  2  7 27
  24788886.397      990413.855 5    811530.231 9
  23480666.116    -5738822.459 6  -4355914.454 9
  22007397.202   -11765919.540 8  -9007881.499 9
  21326294.608   -15201792.849 8 -11224357.588 9
  23049583.858      619213.318 6    565986.450 9
 94  3 17 23 29 30.0030000  0  5 15 26  2  7 27
  24798396.319     1040388.761 5    850471.712 9
  23486667.507    -5707284.269 6  -4331339.265 9
  22013739.210   -11732592.004 8  -8981911.994 9
  21329358.069   -15185695.320 8 -11211814.050 9
  23069677.140      724804.168 6    648264.983 9
 94  3 17 23 30  0.0030000  0  5 15 26  2  7 27
  24808008.999     1090903.898 5    889834.151 9
  23492768.343    -5675226.359 6  -4306359.101 9
  22020115.882   -11699082.063 8  -8955800.353 9
  21332508.679   -15169139.541 8 -11198913.433 9
  23089834.007      830728.009 6    730802.993 9
 94  3 17 23 30 30.0030000  0  5 15 26  2  7 27
  24817723.038     1141950.288 5    929610.549 9
  23498965.382    -5642659.926 6  -4280982.686 9
  22026522.522   -11665414.726 8  -8929566.068 9
  21335744.741   -15152133.003 8 -11185661.577 9
  23110050.077      936964.717 6    813584.794 9
 94  3 17 23 31  0.0030000  0  5 15 26  2  7 27
  24827536.522     1193523.022 5    969797.088 9
  23505256.538    -5609600.986 6  -4255222.505 9
  22032954.944   -11631612.650 8  -8903226.790 9
  21339069.390   -15134662.334 8 -11172048.056 9
  23130324.686     1043507.318 6    896604.958 9
 94  3 17 23 31 30.0030000  0  5 15 26  2  7 27
  24837449.983     1245618.723 5   1010391.109 9
  23511639.288    -5576057.770 6  -4229084.954 9
  22039412.265   -11597679.237 8  -8876785.169 9
  21342483.280   -15116721.771 8 -11158068.383 9
  23150658.554     1150362.104 6    979868.373 9
 94  3 17 23 32  0.0030000  0  5 15 26  2  7 27
  24847460.983     1298228.504 5   1051385.723 9
  23518112.476    -5542040.640 6  -4202578.130 9
  22045890.726   -11563634.299 8  -8850256.650 9
  21345984.460   -15098322.240 8 -11143731.074 9
  23171049.522     1257517.756 6   1063366.242 9
 94  3 17 23 32 30.0030000  0  5 15 26  2  7 27
  24857569.476     1351351.008 5   1092779.874 9
  23524673.991    -5507559.405 6  -4175709.654 9
  22052392.358   -11529467.924 8  -8823633.501 9
  21349571.827   -15079471.544 8 -11129042.213 9
  23191495.038     1364960.949 6   1147088.159 9
 94  3 17 23 33  0.0030000  0  5 15 26  2  7 27
  24867777.265     1404991.983 5   1134578.039 9
  23531323.390    -5472617.766 6  -4148482.436 9
  22058922.530   -11495150.969 8  -8796893.016 9
  21353244.663   -15060170.785 8 -11114002.651 9
  23211998.483     1472704.223 6   1231043.904 9
 94  3 17 23 33 30.0030000  0  5 15 26  2  7 27
  24878081.538     1459139.884 5   1176771.178 9
  23538059.710    -5437216.180 6  -4120896.814 9
  22065481.358   -11460684.638 8  -8770036.142 9
  21356997.147   -15040450.648 8 -11098636.299 9
  23232553.210     1580720.363 6   1315212.276 9
 94  3 17 23 34  0.0030000  0  5 15 26  2  7 27
  24888484.101     1513804.320 5   1219366.834 9
  23544885.686    -5401346.092 6  -4092946.116 9
  22072071.491   -11426053.174 8  -8743050.585 9
  21360830.358   -15020306.577 8 -11082939.615 9
  23253159.976     1689010.961 6   1399594.507 9
 94  3 17 23 34 30.0030000  0  5 15 26  2  7 27
  24898985.280     1568987.322 5   1262366.563 9
  23551801.772    -5365002.942 6  -4064626.805 9
  22078694.679   -11391247.863 8  -8715929.572 9
  21364743.749   -14999743.232 8 -11066916.218 9
  23273822.101     1797590.328 6   1484201.760 9
 94  3 17 23 35  0.0030000  0  5 15 26  2  7 27
  24909584.929     1624689.019 5   1305770.483 9
  23558808.655    -5328183.036 6  -4035935.999 9
  22085347.780   -11356285.824 8  -8688686.424 9
  21368735.054   -14978766.994 8 -11050571.094 9
  23294540.757     1906467.924 6   1569041.392 9
 94  3 17 23 35 30.0030000  0  5 15 26  2  7 27
  24920283.757     1680915.366 5   1349583.224 9
  23565909.155    -5290870.076 6  -4006860.990 9
  22092031.429   -11321163.474 8  -8661318.358 9
  21372807.421   -14957367.358 8 -11033896.049 9
  23315316.960     2015646.752 6   1654115.759 9
 94  3 17 23 36  0.0030000  0  5 15 26  2  7 27
  24931082.663     1737664.050 5   1393802.966 9
  23573100.601    -5253079.657 6  -3977413.932 9
  22098745.155   -11285882.798 8  -8633826.922 9
  21376961.913   -14935535.396 8 -11016884.126 9
  23336155.421     2125152.704 6   1739445.019 9
 94  3 17 23 36 30.0030000  0  5 15 26  2  7 27
  24941982.577     1794941.977 5   1438435.106 9
  23580382.663    -5214809.855 6  -3947593.335 9
  22105490.460   -11250436.689 8  -8606206.582 9
  21381200.405   -14913261.940 8 -10999528.188 9
  23357056.585     2234990.197 6   1825032.618 9
 94  3 17 23 37  0.0030000  0  5 15 26  2  7 27
  24952983.030     1852749.270 5   1483479.739 9
  23587755.866    -5176062.886 6  -3917400.924 9
  22112267.585   -11214821.669 8  -8578454.618 9
  21385525.804   -14890531.473 8 -10981816.134 9
  23378017.968     2345141.980 6   1910865.132 9
 94  3 17 23 37 30.0030000  0  6 15 26  2  9  7 27
  24964085.288     1911091.016 5   1528940.858 9
  23595223.077    -5136823.296 6  -3886824.648 9
  22119081.093   -11179016.275 8  -8550554.313 9
  25216151.726      -13712.54614
  21389941.976   -14867324.036 8 -10963732.412 9
  23399039.843     2455612.693 6   1996946.148 9
 94  3 17 23 38  0.0030000  0  6 15 26  2  9  7 27
  24975288.304     1969961.020 5   1574813.579 9
  23602781.530    -5097102.075 6  -3855873.063 9
  22125928.343   -11143034.261 8  -8522516.379 9
  25200497.835      -95975.888 5
  21394449.038   -14843639.751 8 -10945277.127 9
  23420121.116     2566395.170 6   2083270.111 9
 94  3 17 23 38 30.0030000  0  6 15 26  2  9  7 27
  24986591.249     2029360.137 5   1621098.583 9
  23610434.780    -5056885.016 6  -3824535.119 9
  22132808.436   -11106878.796 8  -8494343.293 9
  25184852.765     -178187.545 5     -6402.54619
  21399046.194   -14819480.773 8 -10926451.950 9
  23441257.936     2677469.944 6   2169821.836 9
 94  3 17 23 39  0.0030000  0  7 15 26  2  9  7 27  4
  24997995.882     2089290.611 5   1667797.655 9
  23618183.874    -5016163.914 6  -3792804.404 9
  22139723.405   -11070540.104 8  -8466027.433 9
  25169219.640     -260337.153 5    -70415.185 9
  21403733.335   -14794850.497 8 -10907259.523 9
  23462451.593     2788843.503 6   2256606.375 9
  25150313.890      -14396.05315
 94  3 17 23 39 30.0030000  0  7 15 26  2  9  7 27  4
  25009500.405     2149749.579 5   1714908.527 9
  23626027.819    -4974944.929 6  -3760685.735 9
  22146671.647   -11034027.126 8  -8437575.768 9
  25153598.530     -342427.199 5   -134381.411 9
  21408505.585   -14769772.385 8 -10887718.138 9
  23483703.179     2900521.239 6   2343627.941 9
  25133871.913     -100797.804 5
 94  3 17 23 40  0.0030000  0  7 15 26  2  9  7 27  4
  25021105.124     2210730.953 5   1762426.486 9
  23633962.382    -4933247.553 6  -3728194.297 9
  22153648.827   -10997361.735 8  -8409005.339 9
  25137989.390     -424454.340 5   -198298.605 9
  21413359.851   -14744262.597 8 -10867840.377 9
  23505010.804     3012493.197 6   2430878.767 9
  25117426.108     -187219.481 5         2.08915
 94  3 17 23 40 30.0030000  0  7 15 26  2  9  7 27  4
  25032807.460     2272228.479 5   1810346.611 9
  23641987.835    -4891073.527 6  -3695331.450 9
  22160656.616   -10960535.537 8  -8380309.604 9
  25122393.257     -506414.790 5   -262163.853 9
  21418294.327   -14718332.174 8 -10847634.849 9
  23526372.522     3124748.826 6   2518350.633 9
  25100972.679     -273681.348 5    -67370.626 9
 94  3 17 23 41  0.0030000  0  7 15 26  2  9  7 27  4
  25044608.772     2334246.017 5   1858671.982 9
  23650104.952    -4848417.524 6  -3662093.033 9
  22167698.530   -10923530.324 8  -8351474.383 9
  25106811.647     -588299.988 5   -325970.461 9
  21423310.569   -14691970.328 8 -10827093.143 9
  23547789.171     3237296.794 6   2606050.293 9
  25084515.054     -360165.318 5   -134760.544 8
 94  3 17 23 41 30.0030000  0  7 15 26  2  9  7 27  4
  25056509.569     2396784.797 5   1907403.475 9
  23658314.960    -4805274.540 6  -3628475.157 9
  22174773.218   -10886353.176 8  -8322505.184 9
  25091244.632     -670103.944 5   -389713.763 9
  21428413.351   -14665155.743 8 -10806198.656 9
  23569261.499     3350131.504 6   2693973.390 9
  25068060.140     -446633.097 5   -202137.848 8
 94  3 17 23 42  0.0030000  0  7 15 26  2  9  7 27  4
  25068508.866     2459842.107 5   1956539.047 9
  23666616.632    -4761649.305 6  -3594481.493 9
  22181883.476   -10848987.387 8  -8293388.992 9
  25075693.530     -751826.778 5   -453393.862 9
  21433604.304   -14637877.667 8 -10784943.007 9
  23590786.210     3463245.766 6   2782114.313 9
  25051610.905     -533074.322 5   -269494.441 9
 94  3 17 23 42 30.0030000  0  7 15 26  2  9  7 27  4
  25080607.726     2523421.049 5   2006081.081 9
  23675010.444    -4717539.705 6  -3560110.399 9
  22189034.280   -10811409.804 8  -8264107.766 9
  25060157.601     -833470.066 5   -517011.964 9
  21438883.858   -14610132.464 8 -10763323.366 9
  23612365.366     3576643.136 6   2870475.844 9
  25035167.741     -619486.407 5   -336828.331 9
 94  3 17 23 43  0.0030000  0  7 15 26  2  9  7 27  4
  25092805.077     2587518.595 5   2056027.203 9
  23683495.226    -4672951.634 6  -3525366.467 9
  22196223.061   -10773632.610 8  -8234670.997 9
  25044635.671     -915036.658 5   -580570.303 9
  21444249.601   -14581936.366 8 -10741352.371 9
  23633999.499     3690332.097 6   2959064.580 9
  25018732.952     -705851.424 5   -404125.562 9
 94  3 17 23 43 30.0030000  0  6 26  2  9  7 27  4
  23692068.413    -4627898.622 6  -3490260.255 9
  22203448.437   -10735662.963 8  -8205084.265 9
  25029129.976     -996516.139 5   -644060.762 9
  21449699.421   -14553297.497 8 -10719036.360 9
  23655688.905     3804310.208 6   3047878.639 9
  25002304.897     -792181.977 5   -471395.953 9
 94  3 17 23 44  0.0030000  0  6 26  2  9  7 27  4
  23700729.765    -4582382.873 6  -3454793.462 9
  22210711.218   -10697497.903 8  -8175345.262 9
  25013643.663    -1077897.414 5   -707474.719 9
  21455230.913   -14524228.187 7 -10696384.942 9
  23677435.561     3918589.458 6   3136927.347 9
  24985879.538     -878496.763 5   -538654.038 9
 94  3 17 23 44 30.0030000  0  6 26  2  9  7 27  4
  23709481.132    -4536394.226 6  -3418958.184 9
  22218008.710   -10659148.343 8  -8145462.492 9
  24998177.663    -1159173.793 5   -770806.917 9
  21460844.718   -14494728.000 7 -10673397.769 9
  23699240.608     4033175.667 6   3226215.253 9
  24969457.311     -964795.803 5   -605899.872 9
 94  3 17 23 45  0.0030000  0  6 26  2  9  7 27  4
  23718323.476    -4489926.676 6  -3382749.721 9
  22225339.241   -10620626.247 8  -8115445.280 9
  24982733.413    -1240330.982 5   -834046.247 9
  21466542.280   -14464785.864 7 -10650066.223 9
  23721102.640     4148061.784 6   3315736.842 9
  24953039.358    -1051071.723 5   -673127.669 9
 94  3 17 23 45 30.0030000  0  6 26  2  9  7 27  4
  23727254.194    -4442997.333 6  -3346181.427 9
  22232701.921   -10581935.173 8  -8085296.396 9
  24967313.069    -1321368.765 5   -897192.497 9
  21472327.265   -14434385.950 7 -10626377.967 9
  23743017.374     4263224.479 6   3405473.938 9
  24936623.632    -1137336.973 5   -740347.200 9
 94  3 17 23 46  0.0030000  0  6 26  2  9  7 27  4
  23736272.452    -4395604.415 6  -3309251.896 9
  22240098.546   -10543066.779 8  -8055009.336 9
  24951913.601    -1402289.031 5   -960247.202 9
  21478197.796   -14403536.423 7 -10602339.363 9
  23764984.616     4378660.915 6   3495424.349 9
  24920214.194    -1223568.139 5   -807540.141 9
 94  3 17 23 46 30.0030000  0  6 26  2  9  7 27  4
  23745376.554    -4347761.481 6  -3271971.714 9
  22247529.101   -10504019.174 8  -8024582.630 9
  24936535.929    -1483096.461 5  -1023214.000 8
  21484150.679   -14372253.086 7 -10577962.724 9
  23786998.804     4494345.158 6   3585567.845 9
  24903812.944    -1309757.539 5   -874700.561 9
 94  3 17 23 47  0.0030000  0  6 26  2  9  7 27  4
  23754564.929    -4299476.416 6  -3234347.014 9
  22254993.827   -10464790.878 8  -7994015.129 9
  24921182.179    -1563782.260 5  -1086085.994 9
  21490185.819   -14340537.785 7 -10553249.492 9
  23809058.405     4610272.994 6   3675901.165 9
  24887419.694    -1395902.394 5   -941826.290 9
 94  3 17 23 47 30.0030000  0  6 26  2  9  7 27  4
  23763836.835    -4250753.388 6  -3196381.044 9
  22262495.757   -10425367.473 8  -7963295.598 9
  24905850.476    -1644351.455 5  -1148867.142 9
  21496301.335   -14308401.568 7 -10528208.274 9
  23831168.272     4726459.179 6   3766435.785 9
  24871036.741    -1481992.978 5  -1008909.720 9
 94  3 17 23 48  0.0030000  0  6 26  2  9  7 27  4
  23773191.835    -4201591.979 6  -3158073.476 9
  22270034.038   -10385753.386 8  -7932427.481 9
  24890539.835    -1724811.207 5  -1211563.013 9
  21502490.991   -14275874.078 7 -10502862.169 9
  23853328.421     4842909.745 6   3857176.425 9
  24854665.882    -1568024.544 5  -1075947.215 9
 94  3 17 23 48 30.0030000  0  6 26  2  9  7 27  4
  23782632.812    -4151980.917 6  -3119415.534 9
  22277607.999   -10345952.077 8  -7901413.477 9
  24875249.882    -1805161.419 5  -1274173.531 9
  21508758.897   -14242935.778 7 -10477195.955 9
  23875541.054     4959639.997 6   3948135.001 9
  24838306.069    -1653996.022 5  -1142937.899 9
 94  3 17 23 49  0.0030000  0  6 26  2  9  7 27  4
  23792162.077    -4101903.911 6  -3080394.521 9
  22285216.233   -10305970.757 8  -7870259.204 9
  24859980.554    -1885402.863 5  -1336699.299 9
  21515107.038   -14209576.854 7 -10451201.983 9
  23897813.022     5076678.095 6   4039333.455 9
  24821957.062    -1739908.646 5  -1209882.728 9
 94  3 17 23 49 30.0030000  0  6 26  2  9  7 27  4
  23801780.429    -4051358.697 6  -3041008.659 9
  22292858.515   -10265811.183 8  -7838966.031 9
  24844729.726    -1965543.477 5  -1399146.491 9
  21521533.890   -14175803.936 7 -10424885.419 9
  23920141.436     5194014.954 6   4130764.714 9
  24805618.077    -1825770.033 5  -1276787.635 9
 94  3 17 23 50  0.0030000  0  6 26  2  9  7 27  4
  23811492.983    -4000320.519 6  -3001238.685 9
  22300532.726   -10225482.317 8  -7807540.944 9
  24829500.749    -2045571.656 5  -1461506.076 9
  21528040.897   -14141608.392 7 -10398239.540 9
  23942525.483     5311645.592 6   4222424.901 9
  24789287.554    -1911588.718 5  -1343659.293 9
 94  3 17 23 50 30.0030000  0  6 26  2  9  7 27  4
  23821300.530    -3948780.927 6  -2961077.995 9
  22308237.835   -10184990.333 8  -7775988.751 9
  24814292.991    -2125490.671 5  -1523780.605 9
  21534631.366   -14106975.391 7 -10371252.790 9
  23964965.655     5429566.043 6   4314310.907 9
  24772961.421    -1997385.027 5  -1410513.531 9
 94  3 17 23 51  0.0030000  0  6 26  2  9  7 27  4
  23831203.858    -3896739.277 6  -2920526.096 9
  22315976.507   -10144323.556 8  -7744300.354 9
  24799109.038    -2205282.427 5  -1585955.975 9
  21541303.952   -14071910.810 7 -10343929.734 9
  23987458.124     5547766.134 6   4406414.814 9
  24756639.694    -2083156.012 5  -1477348.029 9
 94  3 17 23 51 30.0030000  0  6 26  2  9  7 27  4
  23841198.061    -3844217.486 6  -2879600.053 9
  22323751.335   -10103466.694 8  -7712463.842 9
  24783952.569    -2284932.050 6  -1648020.588 9
  21548058.616   -14036413.991 7 -10316269.875 9
  24009999.460     5666222.506 6   4498718.417 9
  24740324.569    -2168889.151 5  -1544153.046 9
 94  3 17 23 52  0.0030000  0  6 26  2  9  7 27  4
  23851280.561    -3791234.820 6  -2838314.896 9
  22331563.452   -10062415.721 8  -7680476.077 9
  24768823.272    -2364436.087 6  -1709971.747 9
  21554893.608   -14000496.421 7 -10288282.160 9
  24032590.601     5784936.565 6   4591222.820 9
  24724019.515    -2254571.202 5  -1610918.259 9
 94  3 17 23 52 30.0030000  0  6 26  2  9  7 27  4
  23861443.421    -3737827.412 6  -2796698.774 9
  22339412.913   -10021165.613 8  -7648333.147 9
  24753721.038    -2443797.565 6  -1771811.822 9
  21561806.163   -13964170.240 7 -10259976.045 9
  24055226.554     5903892.114 6   4683915.383 9
  24707729.257    -2340178.429 5  -1677625.152 9
 94  3 17 23 53  0.0030000  0  6 26  2  9  7 27  4
  23871680.968    -3684029.932 6  -2754778.687 9
  22347301.765    -9979708.677 8  -7616029.049 9
  24738646.710    -2523014.422 6  -1833539.225 9
  21568794.890   -13927443.568 7 -10231357.857 9
  24077906.866     6023075.900 6   4776785.809 9
  24691458.538    -2425684.840 5  -1744253.490 9
 94  3 17 23 53 30.0030000  0  6 26  2  9  7 27  4
  23881991.311    -3629849.362 6  -2712560.098 9
  22355230.171    -9938043.979 8  -7583563.053 9
  24723596.796    -2602099.163 5  -1895163.664 9
  21575862.194   -13890305.940 7 -10202419.447 9
  24100630.921     6142490.358 6   4869835.964 9
  24675207.077    -2511084.693 5  -1810798.774 9
 94  3 17 23 54  0.0030000  0  6 26  2  9  7 27  4
  23892373.812    -3575287.580 6  -2670044.466 9
  22363194.218    -9896192.161 8  -7550951.248 9
  24708567.608    -2681077.934 5  -1956705.535 9
  21583004.741   -13852770.870 7 -10173171.341 9
  24123395.804     6262121.434 6   4963054.918 9
  24658973.452    -2596391.232 5  -1877271.354 9
 94  3 17 23 54 30.0030000  0  6 26  2  9  7 27  4
  23902830.429    -3520340.577 6  -2627228.651 9
  22371193.983    -9854154.428 8  -7518194.580 9
  24693557.616    -2759954.879 5  -2018168.046 9
  21590225.999   -13814822.736 7 -10143601.368 9
  24146200.030     6381956.959 6   5056433.176 9
  24642757.351    -2681609.093 6  -1943674.818 9
 94  3 17 23 55  0.0030000  0  6 26  2  9  7 27  4
  23913363.296    -3464989.409 6  -2584097.886 9
  22379230.022    -9811924.841 8  -7485288.419 9
  24678569.171    -2838721.018 5  -2079544.219 9
  21597528.327   -13776449.311 7 -10113699.999 9
  24169045.616     6502012.123 6   5149982.585 9
  24626554.468    -2766755.058 6  -2010022.258 9
 94  3 17 23 55 30.0030000  0  6 26  2  9  7 27  4
  23923977.710    -3409211.411 6  -2540634.533 9
  22387301.280    -9769511.552 8  -7452239.111 9
  24663601.843    -2917370.807 5  -2140829.742 9
  21604909.936   -13737658.550 7 -10083473.427 9
  24191932.163     6622280.439 6   5243698.093 9
  24610363.140    -2851840.657 6  -2076322.644 9
 94  3 17 23 56  0.0030000  0  6 26  2  9  7 27  4
  23934672.437    -3353007.905 6  -2496839.613 9
  22395403.819    -9726931.164 8  -7419059.595 9
  24648660.726    -2995891.677 5  -2202014.778 9
  21612368.436   -13698463.485 7 -10052931.816 9
  24214858.897     6742762.000 6   5337579.763 9
  24594183.616    -2936862.447 6  -2142573.293 9
 94  3 17 23 56 30.0030000  0  6 26  2  9  7 27  4
  23945449.866    -3296371.676 6  -2452707.501 9
  22403538.226    -9684184.074 8  -7385750.182 9
  24633743.382    -3074283.407 5  -2263099.211 9
  21619904.280   -13658863.450 7 -10022074.642 9
  24237830.179     6863476.436 6   5431642.890 9
  24578018.397    -3021812.946 6  -2208768.396 9
 94  3 17 23 57  0.0030000  0  6 26  2  9  7 27  4
  23956306.429    -3239319.919 6  -2408251.608 9
  22411701.312    -9641286.241 8  -7352323.311 9
  24618848.976    -3152550.420 5  -2324086.454 9
  21627511.882   -13618884.489 7  -9990922.204 9
  24260844.929     6984417.684 6   5525882.762 9
  24561865.147    -3106698.280 6  -2274912.715 9
 94  3 17 23 57 30.0030000  0  6 26  2  9  7 27  4
  23967241.218    -3181856.910 6  -2363475.258 9
  22419891.319    -9598248.225 8  -7318787.199 9
  24603978.327    -3230694.077 5  -2384977.570 9
  21635190.655   -13578532.939 7  -9959479.431 9
  24283899.921     7105573.651 6   5620289.944 9
  24545727.499    -3191501.586 6  -2340993.127 9
 94  3 17 23 58  0.0030000  0  6 26  2  9  7 27  4
  23978253.452    -3123989.348 6  -2318383.683 9
  22428110.913    -9555055.193 8  -7285130.290 9
  24589133.999    -3308705.352 5  -2445765.524 9
  21642940.015   -13537810.031 7  -9927747.296 9
  24306998.726     7226958.823 6   5714875.731 9
  24529607.765    -3276213.289 6  -2407002.148 9
 94  3 17 23 58 30.0030000  0  6 26  2  9  7 27  4
  23989338.749    -3065735.588 6  -2272991.166 9
  22436361.952    -9511696.096 8  -7251343.990 9
  24574313.179    -3386590.950 6  -2506455.586 9
  21650754.616   -13496741.883 7  -9895746.139 9
  24330136.890     7348548.776 6   5809621.073 9
  24513500.210    -3360856.928 6  -2472958.121 9
 94  3 17 23 59  0.0030000  0  6 26  2  9  7 27  4
  24000497.944    -3007093.023 6  -2227295.687 9
  22444646.007    -9468162.689 8  -7217421.856 9
  24559522.038    -3464316.731 6  -2567021.092 9
  21658636.155   -13455324.188 7  -9863472.607 9
  24353312.327     7470336.672 6   5904520.664 9
  24497406.655    -3445426.475 6  -2538856.364 9
 94  3 17 23 59 30.0030000  0  6 26  2  9  7 27  4
  24011731.452    -2948060.801 6  -2181296.581 9
  22452962.897    -9424456.100 8  -7183364.774 9
  24544760.233    -3541891.417 6  -2627468.864 9
  21666583.140   -13413562.345 7  -9830930.906 9
  24376525.882     7592327.519 6   5999578.400 9
  24481327.218    -3529925.478 6  -2604699.638 9
 94  3 18  0  0  0.0030000  0  6 26  2  9  7 27  4
  24023038.335    -2888642.174 6  -2134996.383 9
  22461316.194    -9380558.784 8  -7149159.073 9
  24530027.530    -3619312.246 6  -2687796.746 9
  21674596.374   -13371453.569 7  -9798118.866 9
  24399782.249     7714538.056 6   6094807.313 9
  24465260.663    -3614354.793 6  -2670488.618 9
 94  3 18  0  0 30.0030000  0  6 26  2  9  7 27  4
  24034421.015    -2828826.762 6  -2088386.998 9
  22469704.585    -9336477.645 8  -7114810.134 9
  24515322.780    -3696584.959 6  -2748009.218 9
  21682678.983   -13328978.990 7  -9765021.782 9
  24423078.327     7836964.066 6   6190204.140 9
  24449208.515    -3698708.931 6  -2736219.027 9
 94  3 18  0  1  0.0040000  0  6 26  2  9  7 27  4
  24045879.910    -2768610.039 6  -2041464.907 9
  22478126.699    -9292218.840 8  -7080322.754 9
  24500644.121    -3773722.217 6  -2808116.138 9
  21690832.895   -13286128.777 7  -9731632.001 9
  24446417.809     7959611.238 6   6285773.288 9
  24433174.027    -3782967.275 6  -2801874.788 9
 94  3 18  0  1 30.0040000  0  6 26  2  9  7 27  4
  24057412.738    -2708003.225 6  -1994238.848 9
  22486584.816    -9247770.923 8  -7045688.022 9
  24485990.168    -3850731.279 6  -2868123.167 9
  21699059.082   -13242900.397 7  -9697947.543 9
  24469796.301     8082461.166 6   6381500.446 9
  24417160.605    -3867120.122 6  -2867448.367 9
 94  3 18  0  2  0.0040000  0  6 26  2  9  7 27  4
  24069020.082    -2647007.126 6  -1946709.435 9
  22495079.504    -9203131.905 8  -7010904.379 9
  24471361.809    -3927601.809 6  -2928022.260 9
  21707359.387   -13199282.048 7  -9663959.220 9
  24493208.988     8205497.187 6   6477372.593 9
  24401170.676    -3951148.337 6  -2932924.841 9
 94  3 18  0  2 30.0040000  0  6 26  2  9  7 27  4
  24080700.543    -2585626.748 6  -1898880.610 9
  22503609.316    -9158308.749 8  -6975977.254 9
  24456765.043    -4004309.850 6  -2987794.720 9
  21715735.137   -13155267.787 7  -9629662.387 9
  24516655.426     8328713.521 5   6573385.266 9
  24385209.527    -4035027.368 6  -2998285.067 9
 94  3 18  0  3  0.0040000  0  6 26  2  9  7 27  4
  24092449.793    -2523883.771 6  -1850769.221 9
  22512172.699    -9113306.487 8  -6940910.569 9
  24442198.832    -4080852.982 6  -3047438.690 9
  21724183.809   -13110869.881 7  -9595066.615 9
  24540138.754     8452116.201 5   6669543.127 9
  24369275.824    -4118759.430 6  -3063530.775 9
 94  3 18  0  3 30.0040000  0  6 26  2  9  7 27  4
  24104266.277    -2461787.103 6  -1802382.240 9
  22520769.019    -9068132.431 8  -6905710.014 9
  24427665.730    -4157225.123 6  -3106949.424 9
  21732706.793   -13066081.626 7  -9560166.680 9
  24563657.145     8575706.125 5   6765846.911 9
  24353368.629    -4202350.675 6  -3128666.773 9
 94  3 18  0  4  0.0040000  0  6 26  2  9  7 27  4
  24116150.582    -2399337.792 6  -1753720.458 9
  22529395.035    -9022802.272 8  -6870387.815 9
  24413167.848    -4233413.482 6  -3166316.948 9
  21741302.340   -13020911.092 7  -9524968.865 9
  24587215.559     8699504.808 5   6862313.349 9
  24337490.387    -4285789.930 6  -3193684.332 9
 94  3 18  0  4 30.0040000  0  6 26  2  9  7 27  4
  24128101.598    -2336533.228 6  -1704781.876 9
  22538051.137    -8977314.193 8  -6834942.560 9
  24398704.340    -4309420.589 6  -3225543.236 9
  21749967.668   -12975374.515 7  -9489485.817 9
  24610814.168     8823517.561 5   6958946.594 9
  24321636.902    -4369099.591 6  -3258600.915 9
 94  3 18  0  5  0.0040000  0  6 26  2  9  7 27  4
  24140123.324    -2273358.842 6  -1655555.100 9
  22546739.988    -8931654.248 8  -6799363.389 9
  24384271.723    -4385260.441 6  -3284639.191 9
  21758702.020   -12929475.228 7  -9453720.140 9
  24634453.426     8947740.711 5   7055743.768 9
  24305806.316    -4452291.768 6  -3323425.941 9
 94  3 18  0  5 30.0040000  0  6 26  2  9  7 27  4
  24152217.895    -2209801.394 6  -1606029.835 9
  22555462.832    -8885815.695 8  -6763645.044 9
  24369873.379    -4460924.804 6  -3343598.394 9
  21767504.738   -12883215.778 7  -9417673.818 9
  24658128.238     9072155.496 5   7152690.290 9
  24289999.840    -4535355.594 6  -3388150.950 9
 94  3 18  0  6  0.0040000  0  6 26  2  9  7 27  4
  24164386.684    -2145852.891 6  -1556199.869 9
  22564222.223    -8839785.176 8  -6727777.116 9
  24355509.785    -4536406.938 6  -3402415.608 9
  21776375.910   -12836597.881 7  -9381348.188 9
  24681841.668     9196768.153 5   7249791.007 9
  24274217.480    -4618290.470 6  -3452775.458 9
 94  3 18  0  6 30.0040000  0  6 26  2  9  7 27  4
  24176627.418    -2081527.474 6  -1506076.200 9
  22573020.730    -8793548.289 8  -6691748.379 9
  24341178.785    -4611716.833 6  -3461098.619 9
  21785313.309   -12789631.869 7  -9344751.302 9
  24705587.184     9321550.785 5   7347024.128 9
  24258456.934    -4701112.894 6  -3517312.335 9
 94  3 18  0  7  0.0040000  0  6 26  2  9  7 27  4
  24188940.449    -2016821.050 6  -1455655.636 9
  22581860.293    -8747095.369 8  -6655551.307 9
  24326882.848    -4686843.306 6  -3519638.680 9
  21794321.019   -12742296.154 7  -9307866.333 9
  24729365.762     9446507.071 5   7444392.613 9
  24242721.543    -4783802.795 6  -3581745.936 9
 94  3 18  0  7 30.0040000  0  6 26  2  9  7 27  4
  24201323.238    -1951750.122 6  -1404951.049 9
  22590741.262    -8700426.255 8  -6619185.778 9
  24312622.145    -4761784.025 6  -3578034.014 9
  21803396.730   -12694603.170 7  -9270702.975 9
  24753176.965     9571634.160 5   7541894.177 9
  24227011.941    -4866355.510 6  -3646072.639 9
 94  3 18  0  8  0.0040000  0  6 26  2  9  7 27  4
  24213773.801    -1886321.980 6  -1353968.117 9
  22599663.926    -8653536.715 8  -6582648.483 9
  24298397.652    -4836534.500 6  -3636281.103 9
  21812538.902   -12646559.226 7  -9233266.142 9
  24777022.191     9696943.784 5   7639537.976 9
  24211328.012    -4948773.937 6  -3710294.689 9
 94  3 18  0  8 30.0040000  0  6 26  2  9  7 27  4
  24226291.184    -1820543.536 6  -1302712.212 9
  22608626.371    -8606440.155 8  -6545949.880 9
  24284210.355    -4911089.477 6  -3694375.851 9
  21821747.285   -12598169.837 7  -9195560.132 9
  24800899.574     9822417.079 5   7737309.293 9
  24195670.832    -5031054.102 6  -3774409.000 9
 94  3 18  0  9  0.0040000  0  6 26  2  9  7 27  4
  24238875.582    -1754413.308 6  -1251182.203 9
  22617623.762    -8559158.568 8  -6509107.099 9
  24270059.324    -4985452.685 6  -3752321.176 9
  21831022.363   -12549430.160 7  -9157581.167 9
  24824808.441     9948058.337 5   7835211.495 9
  24180043.551    -5113176.385 6  -3838400.282 9
 94  3 18  0  9 30.0040000  0  6 26  2  9  7 27  4
  24251522.879    -1687949.510 6  -1199392.258 9
  22626653.191    -8511709.119 8  -6472133.511 9
  24255944.410    -5059627.409 6  -3810119.629 9
  21840357.543   -12500371.803 7  -9119353.873 9
  24848746.809    10073861.271 5   7933239.697 9
  24164445.887    -5195139.928 6  -3902267.892 9
 94  3 18  0 10  0.0040000  0  7 12 26  2  9  7 27  4
  25160027.598      -42957.25614    -47255.81919
  24264234.887    -1621148.026 6  -1147339.183 9
  22635710.027    -8464114.162 8  -6435046.546 9
  24241867.230    -5133601.963 6  -3867762.100 9
  21849754.340   -12450990.849 7  -9080875.206 9
  24872717.395    10199824.601 5   8031392.873 9
  24148879.645    -5276942.005 6  -3966009.677 9
 94  3 18  0 10 30.0040000  0  7 12 26  2  9  7 27  4
  25145599.605     -118776.033 4   -106335.334 9
  24277010.129    -1554014.391 6  -1095027.296 9
  22644794.629    -8416373.750 8  -6397846.240 9
  24227828.269    -5207375.733 6  -3925248.129 9
  21859212.629   -12401286.616 7  -9042144.634 9
  24896715.965    10325935.624 5   8129661.116 9
  24133346.996    -5358568.516 6  -4029614.660 9
 94  3 18  0 11  0.0040000  0  7 12 26  2  9  7 27  4
  25131169.582     -194607.341 4   -165424.615 9
  24289848.066    -1486552.469 6  -1042459.594 9
  22653908.090    -8368482.145 8  -6360528.117 9
  24213826.777    -5280955.308 6  -3982582.827 9
  21868729.082   -12351278.594 7  -9003177.340 9
  24920744.527    10452208.460 5   8228055.481 9
  24117844.996    -5440031.056 6  -4093091.876 9
 94  3 18  0 11 30.0040000  0  7 12 26  2  9  7 27  4
  25116736.723     -270451.646 4   -224524.029 9
  24302747.629    -1418763.454 6   -989637.018 9
  22663050.996    -8320436.449 8  -6323089.925 9
  24199862.309    -5354337.912 6  -4039764.053 9
  21878303.059   -12300968.350 7  -8963974.552 9
  24944803.621    10578638.572 5   8326572.389 9
  24102370.480    -5521348.181 6  -4156455.802 9
 94  3 18  0 12  0.0040000  0  7 12 26  2  9  7 27  4
  25102303.488     -346299.930 4   -283626.547 9
  24315710.863    -1350641.865 6   -936555.285 9
  22672225.059    -8272225.542 8  -6285522.998 9
  24185935.895    -5427521.969 6  -4096790.550 9
  21887942.160   -12250314.217 7  -8924503.803 9
  24968892.715    10705228.089 5   8425213.495 9
  24086924.676    -5602517.013 6  -4219704.170 9
 94  3 18  0 12 30.0040000  0  7 12 26  2  9  7 27  4
  25087870.801     -422143.858 4   -342725.667 9
  24328737.465    -1282185.073 6   -883212.352 9
  22681436.129    -8223821.918 8  -6247805.904 9
  24172046.715    -5500509.898 6  -4153664.226 9
  21897649.941   -12199300.888 7  -8884753.156 9
  24993012.176    10831977.974 5   8523979.582 9
  24071508.019    -5683532.484 6  -4282833.047 9
 94  3 18  0 13  0.0040000  0  7 12 26  2  9  7 27  4
  25073440.652     -497974.974 4   -401814.786 9
  24341829.918    -1213384.930 6   -829601.879 9
  22690685.230    -8175218.148 8  -6209932.852 9
  24158194.809    -5573302.576 6  -4210385.761 9
  21907427.926   -12147916.233 7  -8844713.166 9
  25017161.012    10958880.848 5   8622864.860 9
  24056121.074    -5764389.612 6  -4345838.526 9
 94  3 18  0 13 30.0040000  0  7 12 26  2  9  7 27  4
  25059013.793     -573786.692 4   -460888.808 9
  24354987.629    -1144240.689 6   -775723.269 9
  22699973.457    -8126408.491 8  -6171899.373 9
  24144381.066    -5645892.774 6  -4266949.520 9
  21917279.332   -12096144.425 7  -8804371.498 9
  25041336.559    11085923.866 5   8721859.347 9
  24040771.949    -5845051.936 6  -4408692.214 9
 94  3 18  0 14  0.0040000  0  7 12 26  2  9  7 27  4
  25044591.582     -649575.512 3   -519944.977 9
  24368208.965    -1074759.142 6   -721581.834 9
  22709302.590    -8077383.258 8  -6133697.906 9
  24130606.894    -5718278.801 6  -4323354.191 9
  21927202.277   -12043999.604 7  -8763739.167 9
  25065535.770    11213092.553 5   8820951.792 9
  24025462.652    -5925501.293 6  -4471379.947 9
 94  3 18  0 14 30.0040000  0  7 12 26  2  9  7 27  4
  25030173.894     -725340.807 3   -578982.824 9
  24381495.293    -1004942.916 6   -667179.601 9
  22718674.348    -8028133.817 8  -6095321.729 9
  24116872.816    -5790449.407 6  -4379590.995 9
  21937187.426   -11991527.218 7  -8722851.594 9
  25089758.582    11340384.498 5   8920140.255 9
  24010195.769    -6005727.393 6  -4533893.721 9
 94  3 18  0 15  0.0040000  0  7 12 26  2  9  7 27  4
  25015761.465     -801079.462 3   -637999.904 9
  24394843.340     -934799.051 6   -612522.069 9
  22728087.441    -7978667.427 8  -6056776.498 9
  24103182.699    -5862392.729 6  -4435650.700 9
  21947232.449   -11938741.293 7  -8681719.708 9
  25114007.363    11467811.756 5   9019434.128 9
  23994973.254    -6085723.697 6  -4596228.407 9
 94  3 18  0 15 30.0040000  0  7 12 26  2  9  7 27  4
  25001353.699     -876790.521 3   -696995.489 9
  24408252.527     -864332.813 6   -557613.341 9
  22737539.707    -7928994.369 8  -6018070.229 9
  24089538.465    -5934094.678 6  -4491522.311 9
  21957336.715   -11885645.318 7  -8640346.224 9
  25138287.043    11595399.638 5   9118853.196 9
  23979793.090    -6165495.559 6  -4658388.210 9
 94  3 18  0 16  0.0040000  0  7 12 26  2  9  7 27  4
  24986950.629     -952478.685 3   -755973.236 9
  24421721.238     -793555.624 6   -502462.310 9
  22747029.449    -7879126.095 8  -5979211.849 9
  24075940.582    -6005551.364 6  -4547202.825 9
  21967498.605   -11832242.399 7  -8598733.565 9
  25162595.629    11723145.037 5   9218395.009 9
  23964651.613    -6245063.444 6  -4720389.070 9
 94  3 18  0 16 30.0040000  0  7 12 26  2  9  7 27  4
  24972552.801    -1028139.739 4   -814929.862 9
  24435249.004     -722465.223 6   -447067.212 9
  22756555.863    -7829065.493 8  -5940203.603 9
  24062390.871    -6076754.099 6  -4602685.445 9
  21977720.598   -11778525.697 7  -8556876.407 9
  25186940.965    11851075.010 5   9318080.624 9
  23949546.090    -6324442.121 6  -4782242.484 9
 94  3 18  0 17  0.0040000  0  7 12 26  2  9  7 27  4
  24958161.309    -1103767.248 4   -873860.341 9
  24448838.246     -651052.409 6   -391420.898 9
  22766117.879    -7778816.985 8  -5901048.938 9
  24048889.168    -6147705.577 6  -4657972.277 9
  21988005.754   -11724476.442 7  -8514760.108 9
  25211320.949    11979193.771 5   9417913.342 9
  23934476.707    -6403631.600 6  -4843948.460 9
 94  3 18  0 17 30.0040000  0  7 12 26  2  9  7 27  4
  24943778.582    -1179349.265 4   -932755.396 9
  24462492.957     -579297.042 6   -335507.649 9
  22775717.871    -7728368.106 8  -5861738.137 9
  24035436.340    -6218401.399 6  -4713059.913 9
  21998355.324   -11670087.366 7  -8472379.015 9
  25235733.887    12107491.102 5   9517885.240 9
  23919446.504    -6482617.804 6  -4905496.063 9
 94  3 18  0 18  0.0040000  0  7 12 26  2  9  7 27  4
  24929404.488    -1254886.363 5   -991615.429 9
  24476211.480     -507204.500 6   -279331.665 9
  22785356.488    -7677716.699 8  -5822269.523 9
  24022029.957    -6288851.273 6  -4767955.890 9
  22008766.707   -11615374.806 7  -8429745.860 9
  25260178.793    12235945.642 5   9617979.606 8
  23904455.418    -6561395.058 6  -4966880.827 9
 94  3 18  0 18 30.0040000  0  7 12 26  2  9  7 27  4
  24915037.566    -1330385.843 5  -1050446.165 9
  24489995.051     -434772.546 6   -222891.225 9
  22795032.723    -7626867.337 7  -5782646.660 9
  24008667.613    -6359072.147 6  -4822673.436 9
  22019235.215   -11560363.625 7  -8386880.010 9
  25284649.684    12364536.705 5   9718180.383 9
  23889502.441    -6639971.347 6  -5028109.013 9
 94  3 18  0 19  0.0040000  0  7 12 26  2  9  7 27  4
  24900679.230    -1405838.096 5  -1109240.092 9
  24503843.230     -361999.615 6   -166185.083 9
  22804749.613    -7575804.461 7  -5742857.419 9
  23995351.441    -6429048.130 6  -4877200.156 9
  22029764.004   -11505035.957 7  -8343767.547 9
  25309141.965    12493244.822 5   9818472.371 9
  23874594.262    -6718314.305 6  -5089155.386 9
 94  3 18  0 19 30.0040000  0  7 12 26  2  9  7 27  4
  24886330.324    -1481242.334 5  -1167996.611 9
  24517751.988     -288907.823 6   -109230.474 9
  22814508.004    -7524523.805 7  -5702898.480 9
  23982085.301    -6498762.255 6  -4931522.826 9
  22040354.176   -11449384.364 7  -8300402.680 9
  25333655.637    12622065.173 5   9918851.784 9
  23859733.535    -6796408.936 6  -5150008.266 9
 94  3 18  0 20  0.0040000  0  7 12 26  2  9  7 27  4
  24871992.066    -1556590.041 5  -1226709.074 9
  24531719.582     -215509.886 6    -52037.312 9
  22824310.168    -7473013.698 7  -5662760.746 9
  23968872.543    -6568194.587 6  -4985625.927 9
  22051008.496   -11393394.766 7  -8256774.432 9
  25358193.637    12751013.143 5  10019330.655 9
  23844921.621    -6874246.124 6  -5210660.545 9
 94  3 18  0 20 30.0040000  0  7 12 26  2  9  7 27  4
  24857663.676    -1631885.291 5  -1285380.662 9
  24545742.715     -141817.806 6      5385.062 9
  22834155.801    -7421273.888 7  -5622444.017 9
  23955714.035    -6637344.892 6  -5039509.264 9
  22061727.152   -11337067.526 7  -8212883.087 9
  25382756.629    12880091.483 5  10119911.144 9
  23830158.144    -6951827.247 6  -5271113.309 9
 94  3 18  0 21  0.0040000  0  7 12 26  2  9  7 27  4
  24843346.809    -1707120.564 5  -1344005.511 9
  24559820.012      -67841.390 6     63028.991 9
  22844047.590    -7369292.926 7  -5581939.383 9
  23942611.215    -6706201.551 6  -5093163.784 9
  22072513.746   -11280383.384 7  -8168713.635 9
  25407346.894    13009313.916 5  10220603.872 9
  23815448.160    -7029129.052 6  -5331348.417 9
 94  3 18  0 21 30.0040000  0  7 12 26  2  9  7 27  4
  24829041.340    -1782296.636 5  -1402584.231 9
  24573953.426        6429.241 6    120902.170 9
  22853983.848    -7317078.091 7  -5541252.511 9
  23929560.480    -6774780.932 6  -5146602.239 9
  22083365.559   -11223356.816 7  -8124277.351 9
  25431966.582    13138693.242 5  10321418.858 9
  23800788.285    -7106167.374 6  -5391378.203 9
 94  3 18  0 22  0.0040000  0  7 12 26  2  9  7 27  4
  24814745.543    -1857421.417 5  -1461122.980 9
  24588143.488       80999.682 6    179008.976 9
  22863962.621    -7264640.425 7  -5500392.008 9
  23916558.965    -6843106.200 6  -5199842.695 9
  22094278.691   -11166007.370 7  -8079589.477 9
  25456615.512    13268221.815 5  10422350.167 9
  23786173.879    -7182966.115 6  -5451221.313 9
 94  3 18  0 22 30.0040000  0  7 12 26  2  9  7 27  4
  24800459.824    -1932494.032 5  -1519621.076 9
  24602390.418      155868.350 6    237348.168 9
  22873982.332    -7211986.736 7  -5459363.174 9
  23903602.355    -6911192.803 6  -5252897.168 9
  22105251.863   -11108342.865 7  -8034656.103 9
  25481290.410    13397892.290 5  10523392.019 9
  23771605.551    -7259523.336 6  -5510876.223 9
 94  3 18  0 23  0.0040000  0  7 12 26  2  9  7 27  4
  24786183.582    -2007517.053 5  -1578080.526 9
  24616692.051      231023.929 6    295910.921 9
  22884040.301    -7159130.857 7  -5418176.789 9
  23890690.270    -6979048.011 6  -5305771.337 9
  22116283.269   -11050374.400 7  -7989485.873 9
  25505988.184    13527679.486 5  10624524.831 9
  23757079.184    -7335857.485 6  -5570357.311 9
 94  3 18  0 23 30.0040000  0  7 12 26  2  9  7 27  4
  24771916.449    -2082490.867 5  -1636501.635 9
  24631045.379      306451.002 6    354685.235 9
  22894132.285    -7106097.475 7  -5376852.086 9
  23877820.574    -7046677.463 6  -5358469.588 9
  22127368.707   -10992119.214 7  -7944092.227 9
  25530707.840    13657577.942 5  10725744.353 9
  23742592.738    -7411985.900 6  -5629678.077 9
 94  3 18  0 24  0.0040000  0  7 12 26  2  9  7 27  4
  24757658.051    -2157419.182 5  -1694887.294 9
  24645444.684      382115.393 6    413644.451 9
  22904255.496    -7052899.676 7  -5335399.276 9
  23864994.785    -7114076.981 6  -5410988.669 9
  22138507.988   -10933582.781 7  -7898479.423 9
  25555443.168    13787567.172 4  10827034.619 9
  23728146.301    -7487901.868 6  -5688833.298 9
 94  3 18  0 24 30.0040000  0  7 12 26  2  9  7 27  4
  24743409.043    -2232296.961 5  -1753233.573 9
  24659888.426      458020.885 6    472791.557 9
  22914408.660    -6999544.635 7  -5293823.937 9
  23852215.894    -7181230.448 6  -5463316.020 9
  22149701.144   -10874761.272 7  -7852644.487 9
  25580195.652    13917637.167 5  10928387.762 9
  23713742.816    -7563592.091 6  -5747812.628 9
 94  3 18  0 25  0.0040000  0  6 12 26  2  9  7  4
  24729169.746    -2307125.440 5  -1811541.439 9
  24674380.090      534174.897 6    532132.311 9
  22924590.137    -6946040.259 7  -5252132.220 9
  23839487.848    -7248117.578 6  -5515435.838 9
  22160948.355   -10815655.980 7  -7806588.414 9
  23699382.754    -7639055.474 6  -5806615.203 9
 94  3 18  0 25 30.0040000  0  6 12 26  2  9  7  4
  24714939.285    -2381906.962 5  -1869812.719 9
  24688920.574      610585.937 6    591673.346 9
  22934800.824    -6892382.627 7  -5210321.089 9
  23826811.777    -7314730.914 6  -5567342.317 9
  22172250.059   -10756265.755 7  -7760310.326 9
  23685069.098    -7714275.395 6  -5865228.056 9
 94  3 18  0 26  0.0040000  0  6 12 26  2  9  7  4
  24700718.504    -2456636.599 5  -1928043.572 9
  24703514.340      687275.294 6    651431.257 9
  22945045.371    -6838547.480 7  -5168371.633 9
  23814189.902    -7381059.439 6  -5619026.846 9
  22183606.504   -10696588.593 7  -7713808.646 9
  23670803.957    -7789237.937 6  -5923640.368 9
 94  3 18  0 26 30.0040000  0  6 12 26  2  9  7  4
  24686508.520    -2531310.203 5  -1986230.767 9
  24718164.215      764261.567 6    711420.524 9
  22955325.871    -6784522.301 7  -5126274.109 9
  23801622.387    -7447100.006 6  -5670487.005 9
  22195014.918   -10636637.179 7  -7667093.264 9
  23656589.184    -7863936.415 6  -5981846.933 9
 94  3 18  0 27  0.0040000  0  6 12 26  2  9  7  4
  24672310.441    -2605921.772 5  -2044369.626 9
  24732867.449      841526.419 6    771626.860 9
  22965647.730    -6730282.662 7  -5084009.472 9
  23789109.809    -7512854.482 6  -5721724.232 9
  22206474.730   -10576414.849 7  -7620166.778 9
  23642426.598    -7938362.351 6  -6039841.119 9
 94  3 18  0 27 30.0040000  0  6 12 26  2  9  7  4
  24658123.777    -2680473.585 5  -2102461.917 9
  24747619.777      919049.637 6    832034.527 9
  22976011.496    -6675819.860 7  -5041570.941 9
  23776650.840    -7578327.074 6  -5772741.814 9
  22217983.434   -10515936.151 7  -7573040.525 9
  23628314.082    -8012521.873 6  -6097627.724 9
 94  3 18  0 28  0.0040000  0  6 12 26  2  9  7  4
  24643950.355    -2754955.240 5  -2160499.531 9
  24762419.020      996822.154 6    892636.458 9
  22986420.590    -6621119.926 7  -4998947.626 9
  23764247.066    -7643507.586 6  -5823531.804 9
  22229542.387   -10455192.457 7  -7525707.778 9
  23614254.035    -8086409.100 6  -6155202.146 9
 94  3 18  0 28 30.0040000  0  6 12 26  2  9  7  4
  24629791.574    -2829360.686 5  -2218477.776 9
  24777262.762     1074826.283 6    953418.857 9
  22996874.793    -6566182.831 7  -4956139.509 9
  23751901.613    -7708384.670 6  -5874085.356 9
  22241156.465   -10394161.638 7  -7478151.302 9
  23600246.754    -8160018.516 6  -6212560.088 9
 94  3 18  0 29  0.0040000  0  6 12 26  2  9  7  4
  24615648.082    -2903685.309 5  -2276393.044 9
  24792150.168     1153059.474 6   1014379.745 9
  23007373.762    -6511010.268 7  -4913147.918 9
  23739617.176    -7772937.570 6  -5924386.304 9
  22252829.730   -10332817.574 7  -7430350.741 9
  23586291.949    -8233349.755 6  -6269701.278 9
 94  3 18  0 29 30.0040000  0  6 12 26  2  9  7  4
  24601519.652    -2977929.430 5  -2334245.574 9
  24807083.402     1231533.426 6   1075528.254 9
  23017916.113    -6455610.429 7  -4869979.223 9
  23727395.082    -7837168.361 6  -5974436.253 9
  22264564.113   -10271155.610 7  -7382302.468 9
  23572390.582    -8306402.402 7  -6326625.374 9
 94  3 18  0 30  0.0040000  0  6 12 26  2  9  7  4
  24587407.137    -3052090.577 5  -2392033.465 9
  24822062.801     1310251.540 5   1136867.024 9
  23028500.691    -6399986.776 7  -4826636.132 9
  23715232.043    -7901085.610 6  -6024241.882 9
  22276360.176   -10209163.769 7  -7333997.145 9
  23558544.035    -8379166.429 7  -6383324.575 9
 94  3 18  0 30 30.0040000  0  6 12 26  2  9  7  4
  24573311.371    -3126164.533 5  -2449753.405 9
  24837091.176     1389227.921 5   1198407.013 9
  23039126.379    -6344148.622 7  -4783125.896 9
  23703129.074    -7964685.889 7  -6073800.528 9
  22288217.363   -10146855.870 7  -7285445.544 9
  23544754.504    -8451631.915 7  -6439791.148 9
 94  3 18  0 31  0.0040000  0  6 12 26  2  9  7  4
  24559233.254    -3200145.272 5  -2507400.708 9
  24852173.105     1468483.000 5   1260164.179 9
  23049793.238    -6288094.606 7  -4739447.456 9
  23691086.519    -8027970.771 7  -6123113.404 9
  22300127.504   -10084266.367 7  -7236674.510 9
  23531022.746    -8523791.639 7  -6496019.452 9
 94  3 18  0 31 30.0040000  0  6 12 26  2  9  7  4
  24545172.684    -3274033.858 5  -2564976.212 9
  24867304.918     1548001.778 5   1322126.831 9
  23060502.644    -6231816.012 7  -4695594.032 9
  23679100.309    -8090958.116 7  -6172194.435 9
  22312085.965   -10021424.923 7  -7187707.158 9
  23517349.613    -8595644.200 7  -6552008.410 9
 94  3 18  0 32  0.0040000  0  6 12 26  2  9  7  4
  24531130.105    -3347828.021 5  -2622478.135 9
  24882484.676     1627773.193 5   1384286.321 9
  23071252.949    -6175323.515 7  -4651573.921 9
  23667173.098    -8153636.260 7  -6221034.526 9
  22324089.605    -9958344.897 7  -7138553.901 9
  23503736.012    -8667184.074 7  -6607753.702 9
 94  3 18  0 32 30.0040000  0  6 12 26  2  9  7  4
  24517106.590    -3421522.622 5  -2679902.475 9
  24897714.059     1707799.105 5   1446644.137 9
  23082044.199    -6118614.019 7  -4607384.721 9
  23655306.152    -8215996.106 7  -6269626.604 9
  22336135.980    -9895040.269 7  -7089225.627 9
  23490181.785    -8738411.929 7  -6663255.863 9
 94  3 18  0 33  0.0040000  0  6 12 26  2  9  7  4
  24503102.238    -3495115.554 5  -2737247.605 9
  24912985.793     1788054.657 5   1509180.885 9
  23092878.348    -6061679.570 7  -4563020.239 9
  23643498.840    -8278044.000 7  -6317975.593 9
  22348226.785    -9831503.177 7  -7039716.219 9
  23476686.543    -8809329.046 7  -6718515.905 9
 94  3 18  0 33 30.0040000  0  7 12 26  2  9  7 24  4
  24489116.457    -3568611.477 5  -2794517.139 9
  24928297.176     1868517.620 5   1571879.270 9
  23103754.309    -6004526.314 7  -4518485.245 9
  23631749.512    -8339787.731 7  -6366087.573 9
  22360365.621    -9767713.043 7  -6990009.631 9
  25478312.355      -89811.213 5
  23463247.973    -8879948.873 7  -6773544.287 9
 94  3 18  0 34  0.0040000  0  7 12 26  2  9  7 24  4
  24475151.832    -3641995.425 5  -2851699.413 9
  24943652.574     1949207.143 5   1634754.173 9
  23114671.684    -5947156.701 7  -4473781.665 9
  23620061.215    -8401208.539 7  -6413947.931 9
  22372559.449    -9703633.339 7  -6940077.408 9
  25460636.176     -182698.978 5    -26534.26918
  23449867.512    -8950262.735 7  -6828334.258 9
 94  3 18  0 34 30.0040000  0  7 12 26  2  9  7 24  4
  24461209.793    -3715260.994 5  -2908789.443 9
  24959051.215     2030129.138 5   1697810.231 9
  23125631.965    -5889560.234 7  -4428901.316 9
  23608433.816    -8462312.103 7  -6461561.085 9
  22384811.160    -9639250.382 7  -6889908.883 9
  25442966.543     -275550.348 5    -98885.887 9
  23436546.441    -9020264.772 7  -6882881.245 9
 94  3 18  0 35  0.0040000  0  7 12 26  2  9  7 24  4
  24447291.473    -3788402.227 5  -2965782.584 9
  24974496.371     2111294.726 5   1761056.097 9
  23136636.324    -5831732.295 7  -4383840.606 9
  23596868.340    -8523088.679 7  -6508919.440 9
  22397123.621    -9574548.393 7  -6839491.765 9
  25425310.301     -368333.709 5   -171184.486 9
  23423286.434    -9089946.603 7  -6937178.680 9
 94  3 18  0 35 30.0040000  0  7 12 26  2  9  7 24  4
  24433397.605    -3861415.036 5  -3022675.647 9
  24989991.676     2192723.633 5   1824507.159 9
  23147684.144    -5773674.677 7  -4338600.921 9
  23585367.801    -8583524.067 7  -6556011.937 9
  22409497.980    -9509520.258 7  -6788820.501 9
  25407671.355     -461026.228 5   -243412.323 9
  23410090.160    -9159293.725 7  -6991215.332 9
 94  3 18  0 36  0.0040000  0  7 12 26  2  9  7 24  4
  24419529.996    -3934289.365 5  -3079460.814 9
  25005537.785     2274421.837 5   1888168.051 9
  23158778.059    -5715376.396 7  -4293173.716 9
  23573936.363    -8643595.782 7  -6602821.053 9
  22421933.113    -9444173.429 7  -6737900.906 9
  25390052.644     -553616.905 5   -315560.763 9
  23396963.059    -9228277.094 7  -7044968.559 9
 94  3 18  0 36 30.0040000  0  7 12 26  2  9  7 24  4
  24405690.340    -4007018.127 5  -3136132.531 9
  25021134.535     2356383.574 5   1952034.286 9
  23169920.012    -5656825.155 7  -4247549.398 9
  23562576.230    -8703295.230 7  -6649340.091 9
  22434424.137    -9378532.142 7  -6686751.859 9
  25372450.418     -646115.210 5   -387637.236 9
  23383908.480    -9296878.833 7  -7098424.419 9
 94  3 18  0 37  0.0040000  0  7 12 26  2  9  7 24  4
  24391879.230    -4079595.754 5  -3192686.497 9
  25036779.230     2438592.726 5   2016093.340 9
  23181111.434    -5598013.127 7  -4201721.869 9
  23551290.223    -8762603.060 7  -6695553.973 9
  22446969.926    -9312603.791 7  -6635379.131 9
  25354863.629     -738534.688 5   -459652.265 9
  23370927.871    -9365093.751 7  -7151578.871 9
 94  3 18  0 37 30.0040000  0  7 12 26  2  9  7 24  4
  24378097.035    -4152021.043 5  -3249121.745 9
  25052464.715     2521021.371 5   2080323.391 9
  23192352.957    -5538938.572 7  -4155689.771 9
  23540079.129    -8821517.063 7  -6741460.982 9
  22459567.348    -9246403.327 7  -6583794.360 9
  25337287.848     -830896.009 5   -531621.975 9
  23358020.965    -9432918.480 7  -7204429.278 9
 94  3 18  0 38  0.0040000  0  7 12 26  2  9  7 24  4
  24364343.519    -4224296.249 5  -3305440.055 9
  25068188.777     2603651.490 5   2144710.464 9
  23203644.840    -5479598.361 7  -4109450.671 9
  23528942.840    -8880038.304 7  -6787061.938 9
  22472212.394    -9179952.500 7  -6532014.507 9
  25319721.652     -923206.814 5   -603552.307 9
  23345185.699    -9500368.824 7  -7256987.957 9
 94  3 18  0 38 30.0040000  0  7 12 26  2  9  7 24  4
  24350620.457    -4296411.177 5  -3361633.466 9
  25083949.879     2686477.580 5   2209250.228 9
  23214988.316    -5419988.028 7  -4063001.093 9
  23517882.480    -8938161.161 7  -6832352.466 9
  22484908.035    -9113237.194 7  -6480028.566 9
  25302167.957    -1015452.260 5   -675431.722 9
  23332421.637    -9567443.092 7  -7309253.598 9
 94  3 18  0 39  0.0040000  0  7 12 26  2  9  7 24  4
  24336926.863    -4368370.402 5  -3417705.559 9
  25099748.598     2769499.338 5   2273942.471 9
  23226381.113    -5360119.103 7  -4016350.003 9
  23506896.238    -8995894.166 7  -6877339.208 9
  22497656.215    -9046245.508 7  -6427827.263 9
  25284627.980    -1107622.750 5   -747252.747 9
  23319726.621    -9634154.886 7  -7361236.783 9
 94  3 18  0 39 30.0040000  0  7 12 26  2  9  7 24  4
  24323261.113    -4440184.609 5  -3473664.650 9
  25115584.301     2852715.929 5   2338786.522 9
  23237819.254    -5300011.513 7  -3969512.948 9
  23495979.168    -9053264.346 7  -6922043.236 9
  22510455.793    -8978984.066 7  -6375415.763 9
  25267103.418    -1199710.865 5   -819009.565 9
  23307099.887    -9700509.823 7  -7412941.890 9
 94  3 18  0 40  0.0040000  0  7 12 26  2  9  7 24  4
  24309622.215    -4511857.234 5  -3529513.417 9
  25131459.129     2936137.336 5   2403790.171 9
  23249297.473    -5239691.969 7  -3922510.727 9
  23485130.535    -9110274.881 7  -6966467.019 9
  22523306.941    -8911451.165 7  -6322792.735 9
  25249597.090    -1291708.860 5   -890696.192 9
  23294541.113    -9766506.238 7  -7464367.630 9
 94  3 18  0 40 30.0040000  0  7 12 26  2  9  7 24  4
  24296009.449    -4583392.920 5  -3585255.479 9
  25147373.027     3019763.146 5   2468953.107 9
  23260813.957    -5179174.202 7  -3875354.043 9
  23474346.746    -9166943.107 7  -7010624.069 9
  22536210.754    -8843640.922 7  -6269953.600 9
  25232106.574    -1383622.737 5   -962317.264 9
  23282050.504    -9832144.760 7  -7515514.472 9
 94  3 18  0 41  0.0040000  0  7 12 26  2  9  7 24  4
  24282421.746    -4654796.834 5  -3640894.865 9
  25163326.074     3103598.170 5   2534279.043 9
  23272367.301    -5118460.475 7  -3828044.673 9
  23463626.645    -9223277.179 7  -7054520.739 9
  22549164.769    -8775565.492 7  -6216907.824 9
  25214630.238    -1475461.328 5  -1033879.691 9
  23269626.809    -9897431.361 7  -7566387.106 9
 94  3 18  0 41 30.0040000  0  7 12 26  2  9  7 24  4
  24268859.207    -4726068.438 5  -3696431.153 9
  25179316.941     3187631.368 5   2599759.424 9
  23283959.082    -5057545.273 7  -3780578.301 9
  23452972.949    -9279263.894 7  -7098146.740 9
  22562168.473    -8707231.442 7  -6163660.525 9
  25197166.598    -1567229.312 5  -1105387.118 9
  23257270.207    -9962365.464 7  -7616985.072 9
 94  3 18  0 42  0.0040000  0  7 12 26  2  9  7 24  4
  24255321.035    -4797211.855 5  -3751867.568 9
  25195344.777     3271857.595 5   2665390.199 9
  23295590.121    -4996423.528 7  -3732950.989 9
  23442386.730    -9334894.274 7  -7141495.082 9
  22575216.543    -8638663.262 7  -6110230.793 9
  25179713.832    -1658945.959 5  -1176854.512 9
  23244976.168   -10026970.774 7  -7667326.838 9
 94  3 18  0 42 30.0040000  0  7 12 26  2  9  7 24  4
  24241807.301    -4868226.986 5  -3807204.015 9
  25211405.574     3356257.695 5   2731156.464 9
  23307267.934    -4935057.672 7  -3685133.464 9
  23431868.230    -9390169.295 7  -7184566.519 9
  22588306.254    -8569876.902 7  -6056631.049 9
  25162269.152    -1750618.281 5  -1248287.418 9
  23232742.082   -10091261.876 7  -7717423.766 9
 94  3 18  0 43  0.0040000  0  7 12 26  2  9  7 24  4
  24228318.504    -4939110.509 5  -3862437.912 9
  25227498.730     3440832.551 5   2797058.931 9
  23318992.418    -4873445.194 7  -3637123.768 9
  23421420.769    -9445070.945 7  -7227347.015 9
  22601435.277    -8500884.340 7  -6002870.619 9
  25144834.480    -1842237.904 5  -1319679.214 9
  23220569.293   -10155230.252 7  -7767269.212 9
 94  3 18  0 43 30.0040000  0  7 12 26  2  9  7 24  4
  24214854.645    -5009863.819 5  -3917570.350 9
  25243624.965     3525573.917 5   2863091.123 9
  23330763.613    -4811587.768 7  -3588923.202 9
  23411043.379    -9499604.737 7  -7269840.870 9
  22614599.965    -8431703.172 7  -5948963.228 9
  25127408.215    -1933811.535 5  -1391035.182 9
  23208458.394   -10218871.971 7  -7816860.116 9
 94  3 18  0 44  0.0040000  0  7 12 26  2  9  7 24  4
  24201415.582    -5080486.734 5  -3972601.177 9
  25259781.855     3610478.819 5   2929250.717 9
  23342582.613    -4749478.482 7  -3540526.378 9
  23400734.262    -9553778.832 7  -7312054.439 9
  22627800.176    -8362334.903 7  -5894910.046 9
  25109992.301    -2025330.149 5  -1462348.286 9
  23196412.684   -10282173.066 7  -7866185.615 9
 94  3 18  0 44 30.0040000  0  7 12 26  2  9  7 24  4
  24188003.035    -5150970.346 5  -4027523.454 9
  25275970.769     3695549.031 5   2995539.169 9
  23354448.980    -4687119.654 7  -3491935.107 9
  23390493.121    -9607595.821 7  -7353989.742 9
  22641041.332    -8292751.066 7  -5840688.885 9
  25092593.957    -2116761.082 5  -1533593.060 9
  23184439.387   -10345093.075 7  -7915214.148 9
 94  3 18  0 45  0.0040000  0  7 12 26  2  9  7 24  4
  24174616.793    -5221314.971 5  -4082337.436 9
  25292189.957     3780780.390 5   3061953.160 9
  23366357.137    -4624542.747 7  -3443173.901 9
  23380319.144    -9661060.656 7  -7395650.647 9
  22654326.902    -8222936.074 7  -5786287.606 9
  25075212.496    -2208101.660 5  -1604767.433 9
  23172543.113   -10407608.009 7  -7963927.054 9
 94  3 18  0 45 30.0040000  0  7 12 26  2  9  7 24  4
  24161256.199    -5291526.371 5  -4137047.602 9
  25308434.223     3866149.819 5   3128474.761 9
  23378305.105    -4561754.365 7  -3394247.911 9
  23370210.582    -9714181.640 7  -7437043.612 9
  22667655.566    -8152893.432 7  -5731708.934 9
  25057845.590    -2299365.590 5  -1675882.071 9
  23160722.676   -10469725.472 7  -8012330.253 9
 94  3 18  0 46  0.0040000  0  7 12 26  2  9  7 24  4
  24147923.723    -5361587.995 5  -4191641.063 9
  25324709.316     3951675.288 5   3195117.917 9
  23390294.574    -4498748.929 7  -3345152.789 9
  23360172.340    -9766933.108 7  -7478148.644 9
  22681032.887    -8082596.518 7  -5676932.131 9
  25040499.129    -2390518.971 5  -1746910.602 9
  23148979.496   -10531436.036 7  -8060416.406 9
 94  3 18  0 46 30.0040000  0  7 12 26  2  9  7 24  4
  24134619.730    -5431501.429 5  -4246119.046 9
  25341012.035     4037347.579 5   3261875.528 9
  23402319.379    -4435558.322 7  -3295913.379 9
  23350204.652    -9819311.323 7  -7518962.822 9
  22694455.285    -8012061.010 7  -5621969.412 9
  25023170.285    -2481583.500 5  -1817869.891 9
  23137311.254   -10592753.303 7  -8108196.077 9
 94  3 18  0 47  0.0040000  0  7 12 26  2  9  7 24  4
  24121344.184    -5501263.787 5  -4300479.305 9
  25357343.574     4123164.801 5   3328746.000 9
  23414379.340    -4372183.123 7  -3246530.130 9
  23340311.184    -9871302.227 7  -7559475.200 9
  22707917.691    -7941315.275 7  -5566842.881 9
  25005856.019    -2572573.180 5  -1888770.862 9
  23125713.051   -10653703.194 7  -8155689.475 9
 94  3 18  0 47 30.0040000  0  7 12 26  2  9  7 24  4
  24108098.871    -5570868.707 5  -4354716.884 9
  25373703.309     4209140.583 5   3395740.064 9
  23426478.121    -4308605.025 7  -3196988.775 9
  23330493.879    -9922894.694 7  -7599677.114 9
  22721415.426    -7870383.198 7  -5511571.148 9
  24988556.996    -2663479.411 5  -1959606.829 9
  23114181.020   -10714302.863 7  -8202909.971 9
 94  3 18  0 48  0.0040000  0  7 12 26  2  9  7 24  4
  24094884.254    -5640311.793 6  -4408828.350 9
  25390093.395     4295269.635 5   3462853.574 9
  23438615.598    -4244821.559 7  -3147287.391 9
  23320752.793    -9974083.899 7  -7639564.794 9
  22734949.395    -7799261.868 7  -5456151.944 9
  24971275.441    -2754294.273 5  -2030371.580 9
  23102718.426   -10774539.979 7  -8249847.948 9
 94  3 18  0 48 30.0040000  0  7 12 26  2  9  7 24  4
  24081701.644    -5709587.257 6  -4462809.203 9
  25406510.871     4381539.109 5   3530076.469 9
  23450794.574    -4180821.616 7  -3097417.325 9
  23311088.348   -10024870.415 7  -7679138.697 9
  22748517.691    -7727960.085 7  -5400592.132 9
  24954008.902    -2845029.284 5  -2101074.124 9
  23091327.770   -10834398.193 7  -8296490.672 9
 94  3 18  0 49  0.0040000  0  7 12 26  2  9  7 24  4
  24068551.379    -5778692.463 6  -4516657.391 9
  25422952.660     4467945.165 5   3597405.822 9
  23463019.488    -4116578.388 7  -3047357.690 9
  23301500.246   -10075256.520 7  -7718400.597 9
  22762122.668    -7656465.191 7  -5344881.839 9
  24936761.184    -2935667.813 5  -2171701.495 9
  23080009.699   -10893873.732 7  -8342835.207 9
 94  3 18  0 49 30.0040000  0  7 12 26  2  9  7 24  4
  24055435.168    -5847618.536 6  -4570365.989 9
  25439419.668     4554477.691 5   3664833.702 9
  23475292.965    -4052081.522 7  -2997100.411 9
  23291989.473   -10125236.842 7  -7757346.292 9
  22775769.707    -7584750.908 7  -5289000.600 9
  24919533.035    -3026199.892 5  -2242245.911 9
  23068771.269   -10952932.822 7  -8388855.233 9
 94  3 18  0 50  0.0040000  0  7 12 26  2  9  7 24  4
  24042352.887    -5916365.968 6  -4623935.391 9
  25455907.574     4641124.141 5   3732350.365 9
  23487611.285    -3987347.645 7  -2946658.453 9
  23282553.879   -10174819.956 7  -7795982.475 9
  22789460.816    -7512803.917 7  -5232938.023 9
  24902326.848    -3116619.519 5  -2312702.685 9
  23057613.137   -11011568.735 7  -8434545.515 9
 94  3 18  0 50 30.0040000  0  7 12 26  2  9  7 24  4
  24029306.074    -5984927.080 6  -4677359.601 9
  25472418.801     4727889.697 5   3799959.815 9
  23499975.691    -3922372.449 7  -2896028.450 9
  23273193.324   -10224010.197 7  -7834312.525 9
  22803195.988    -7440623.580 7  -5176693.624 9
  24885144.824    -3206911.700 5  -2383060.159 9
  23046533.691   -11069791.477 7  -8479913.842 9
 94  3 18  0 51  0.0040000  0  7 12 26  2  9  7 24  4
  24016295.184    -6053300.390 6  -4730637.479 9
  25488950.871     4814767.617 5   3867656.834 9
  23512386.379    -3857153.492 7  -2845208.501 9
  23263907.777   -10272805.893 7  -7872335.140 9
  22816977.035    -7368204.080 7  -5120262.858 9
  24867989.465    -3297062.391 5  -2453307.377 9
  23035531.645   -11127607.087 7  -8524964.935 9
 94  3 18  0 51 30.0040000  0  7 12 26  2  9  7 24  4
  24003318.051    -6121495.418 6  -4783776.438 9
  25505502.527     4901747.008 5   3935432.941 9
  23524839.285    -3791712.784 7  -2794215.762 9
  23254696.238   -10321212.987 7  -7910054.947 9
  22830798.613    -7295570.600 7  -5063665.355 9
  24850860.215    -3387076.496 5  -2523448.179 9
  23024605.910   -11185021.883 7  -8569703.705 9
 94  3 18  0 52  0.0040000  0  7 12 26  2  9  7 24  4
  23990376.480    -6189503.314 6  -4836769.578 9
  25522076.191     4988840.323 5   4003297.802 9
  23537335.246    -3726046.828 7  -2743047.504 9
  23245559.480   -10369225.299 7  -7947467.131 9
  22844661.199    -7222722.956 7  -5006900.972 9
  24833759.012    -3476944.981 5  -2593475.504 9
  23013754.629   -11242045.680 7  -8614137.808 9
 94  3 18  0 52 30.0050000  0  7 12 26  2  9  7 24  4
  23977470.587    -6257324.092 6  -4889616.909 9
  25538670.118     5076042.191 5   4071247.281 9
  23549877.899    -3660134.117 7  -2691686.971 9
  23236499.946   -10416834.695 7  -7984565.357 9
  22858564.087    -7149663.903 7  -4949971.849 9
  24816681.462    -3566686.072 5  -2663403.554 9
  23002978.243   -11298675.559 7  -8658264.954 9
 94  3 18  0 53  0.0050000  0  7 12 26  2  9  7 24  4
  23964601.962    -6324948.935 6  -4942311.568 9
  25555286.743     5163359.493 5   4139286.660 9
  23562467.673    -3593975.657 7  -2640134.947 9
  23227521.696   -10464017.333 7  -8021331.037 9
  22872504.720    -7076403.488 7  -4892885.824 9
  24799629.431    -3656296.633 5  -2733229.903 9
  22992280.423   -11354892.106 7  -8702070.028 9
 94  3 18  0 53 30.0050000  0  7 12 26  2  9  7 24  4
  23951769.102    -6392385.655 6  -4994859.638 9
  25571926.618     5250801.685 5   4207423.371 9
  23575100.782    -3527586.936 7  -2588403.494 9
  23218624.603   -10510769.536 7  -8057761.319 9
  22886483.259    -7002945.824 7  -4835646.098 9
  24782599.813    -3745788.480 5  -2802963.755 9
  22981660.118   -11410702.778 7  -8745558.840 9
 94  3 18  0 54  0.0050000  0  7 12 26  2  9  7 24  4
  23938971.790    -6459635.762 6  -5047262.298 9
  25588588.938     5338364.857 5   4275654.368 9
  23587778.063    -3460967.987 7  -2536492.640 9
  23209809.298   -10557095.519 7  -8093859.479 9
  22900499.837    -6929289.133 7  -4778251.289 9
  24765592.931    -3835159.603 6  -2872603.514 9
  22971115.212   -11466116.099 7  -8788738.017 9
 94  3 18  0 54 30.0050000  0  7 12 26  2  9  7 24  4
  23926209.337    -6526703.399 6  -5099522.778 9
  25605273.196     5426048.613 5   4343979.313 9
  23600499.220    -3394116.856 7  -2484400.877 9
  23201074.852   -10602995.482 7  -8129625.680 9
  22914550.626    -6855451.487 7  -4720715.471 9
  24748610.720    -3924399.820 6  -2942141.285 9
  22960647.376   -11521124.408 7  -8831601.600 9
 94  3 18  0 55  0.0050000  0  7 12 26  2  9  7 24  4
  23913481.032    -6593590.735 6  -5151642.760 9
  25621983.923     5513859.698 5   4412403.475 9
  23613261.298    -3327051.807 7  -2432142.428 9
  23192419.727   -10648477.337 7  -8165066.081 9
  22928634.352    -6781441.869 7  -4663045.652 9
  24731657.212    -4013492.923 6  -3011564.419 9
  22950256.196   -11575731.591 7  -8874152.613 9
 94  3 18  0 55 30.0050000  0  7 12 26  2  9  7 24  4
  23900785.642    -6660305.054 6  -5203627.933 9
  25638714.899     5601780.923 5   4480913.472 9
  23626062.063    -3259784.042 7  -2379726.015 9
  23183839.852   -10693565.309 7  -8200199.558 9
  22942748.860    -6707266.927 7  -4605247.012 9
  24714729.860    -4102445.012 6  -3080877.666 9
  22939938.649   -11629950.588 7  -8916401.164 9
 94  3 18  0 56  0.0050000  0  7 12 26  2  9  7 24  4
  23888123.368    -6726846.527 6  -5255478.420 9
  25655462.423     5689791.484 5   4549493.041 9
  23638902.688    -3192306.992 7  -2327146.518 9
  23175331.274   -10738278.506 7  -8235041.000 9
  22956892.485    -6632943.260 7  -4547332.481 9
  24697826.821    -4191271.121 6  -3150092.753 9
  22929697.813   -11683766.672 7  -8958335.744 9
 94  3 18  0 56 30.0050000  0  7 12 26  2  9  7 24  4
  23875493.524    -6793216.810 6  -5307195.508 9
  25672224.290     5777876.269 5   4618130.486 9
  23651780.743    -3124631.592 7  -2274412.473 9
  23166893.509   -10782619.636 7  -8269592.526 9
  22971062.267    -6558479.093 7  -4489308.468 9
  24680943.431    -4279995.203 6  -3219228.351 9
  22919537.040   -11737160.428 7  -8999941.235 9
 94  3 18  0 57  0.0050000  0  7 12 26  2  9  7 24  4
  23862895.009    -6859422.134 6  -5358784.065 9
  25688996.813     5866010.904 5   4686806.779 9
  23664693.118    -3056777.571 7  -2221539.243 9
  23158525.751   -10826592.996 7  -8303857.470 9
  22985260.376    -6483868.725 7  -4431170.533 9
  24664075.696    -4368632.503 6  -3288296.326 9
  22909455.798   -11790137.918 7  -9041222.361 9
 94  3 18  0 57 30.0050000  0  7 12 26  2  9  7 24  4
  23850327.923    -6925462.136 6  -5410243.797 9
  25705773.079     5954172.453 5   4755504.014 9
  23677638.587    -2988747.534 7  -2168528.860 9
  23150229.243   -10870188.783 7  -8337828.207 9
  22999484.345    -6409122.443 7  -4372926.696 9
  24647223.423    -4457192.030 6  -3357303.703 9
  22899455.735   -11842689.015 7  -9082171.244 9
 94  3 18  0 58  0.0050000  0  7 12 26  2  9  7 24  4
  23837792.056    -6991338.501 6  -5461576.020 9
  25722551.212     6042343.282 5   4824208.507 9
  23690617.079    -2920545.855 7  -2115384.724 9
  23142007.540   -10913394.802 7  -8371495.229 9
  23013731.165    -6334255.008 7  -4314588.452 9
  24630387.298    -4545667.172 6  -3426245.325 9
  22889536.642   -11894813.563 7  -9122787.738 9
 94  3 18  0 58 30.0050000  0  7 12 26  2  9  7 24  4
  23825286.313    -7057056.639 6  -5512784.948 9
  25739329.602     6130518.154 4   4892916.111 9
  23703626.126    -2852185.194 7  -2062116.708 9
  23133861.337   -10956203.923 7  -8404852.982 9
  23027999.056    -6259275.349 7  -4256162.762 9
  24613571.728    -4634031.403 6  -3495100.519 9
  22879692.626   -11946544.663 7  -9163097.658 9
 94  3 18  0 59  0.0050000  0  7 12 26  2  9  7 24  4
  23812809.735    -7122621.632 6  -5563874.541 9
  25756107.860     6218686.334 4   4961618.538 8
  23716663.673    -2783669.262 7  -2008727.693 9
  23125789.735   -10998621.109 7  -8437905.329 9
  23042285.712    -6184198.959 7  -4197661.693 9
  24596780.509    -4722271.777 6  -3563859.205 9
  22869917.251   -11997913.656 7  -9203125.415 9
 94  3 18  0 59 30.0050000  0  7 12 26  2  9  7 24  4
  23800359.876    -7188045.547 6  -5614854.200 9
  25772883.321     6306838.267 4   5030308.269 6
  23729731.517    -2714999.428 7  -1955218.762 9
  23117788.454   -11040667.447 7  -8470668.707 9
  23056586.196    -6109050.652 7  -4139104.588 9
  24580008.665    -4810406.770 6  -3632535.794 9
  22860206.649   -12048943.441 7  -9242888.852 9
 94  3 18  1  0  0.0050000  0  6 12  2  9  7 24  4
  23787938.040    -7253322.630 6  -5665719.451 9
  23742829.673    -2646167.256 7  -1901583.325 9
  23109856.938   -11082348.135 7  -8503147.161 9
  23070902.806    -6033815.216 7  -4080479.586 9
  24563259.173    -4898425.305 6  -3701121.626 9
  22850559.438   -12099640.534 7  -9282393.050 9
 94  3 18  1  0 30.0050000  0  7 12  5  2  9  7 24  4
  23775543.532    -7318455.900 6  -5716472.640 9
  25751013.517      -65254.159 5
  23755958.782    -2577173.174 7  -1847821.726 9
  23101993.352   -11123671.428 7  -8535347.129 9
  23085237.493    -5958487.464 7  -4021782.652 9
  24546528.806    -4986345.040 6  -3769630.481 9
  22840976.790   -12149996.403 7  -9321631.363 9
 94  3 18  1  1  0.0050000  0  7 12  5  2  9  7 24  4
  23763175.860    -7383448.481 6  -5767116.197 9
  25738146.392     -132868.564 5
  23769118.501    -2508017.566 7  -1793934.263 9
  23094196.470   -11164643.565 7  -8567273.468 9
  23099589.993    -5883063.272 7  -3963010.572 9
  24529812.290    -5074191.639 6  -3838082.340 9
  22831464.657   -12199983.263 7  -9360582.134 9
 94  3 18  1  1 30.0050000  0  7 12  5  2  9  7 24  4
  23750832.587    -7448312.577 6  -5817659.640 9
  25725254.368     -200614.430 5    -47513.27419
  23782306.813    -2438713.626 7  -1739931.219 9
  23086464.774   -11205272.509 7  -8598932.391 9
  23113958.251    -5807556.887 7  -3904174.440 9
  24513107.079    -5161976.238 6  -3906485.885 9
  22822021.524   -12249606.406 7  -9399249.491 9
 94  3 18  1  2  0.0050000  0  7 12  5  2  9  7 24  4
  23738513.056    -7513051.630 6  -5868105.638 9
  25712336.415     -268498.600 5   -100409.973 9
  23795522.110    -2369266.965 7  -1685816.960 9
  23078799.212   -11245556.829 7  -8630322.771 9
  23128341.352    -5731974.266 7  -3845278.912 9
  24496414.532    -5249694.015 6  -3974837.351 9
  22812647.657   -12298865.880 7  -9437633.470 9
 94  3 18  1  2 30.0050000  0  7 12  5  2  9  7 24  4
  23726216.735    -7577669.603 6  -5918457.297 9
  25699387.602     -336545.353 5   -153433.355 9
  23808762.321    -2299688.047 6  -1631599.650 9
  23071199.204   -11285496.599 7  -8661444.666 9
  23142737.188    -5656323.304 7  -3786330.124 9
  24479734.579    -5337349.820 6  -4043140.547 9
  22803341.821   -12347769.342 7  -9475740.044 9
 94  3 18  1  3  0.0050000  0  7 12  5  2  9  7 24  4
  23713942.173    -7642173.588 6  -5968720.132 9
  25686406.227     -404767.342 5   -206593.305 9
  23822025.399    -2229991.886 7  -1577290.986 9
  23063662.173   -11325103.718 7  -8692307.354 9
  23157145.243    -5580608.855 7  -3727331.865 9
  24463066.774    -5424940.955 6  -4111393.338 9
  22794098.095   -12396345.218 7  -9513591.351 9
 94  3 18  1  3 30.0050000  0  7 12  5  2  9  7 24  4
  23701687.517    -7706572.541 6  -6018901.121 9
  25673390.782     -473161.952 5   -259887.761 9
  23835306.095    -2160201.553 6  -1522908.942 9
  23056184.993   -11364395.149 7  -8722924.052 9
  23171561.876    -5504849.100 7  -3668298.302 9
  24446408.243    -5512481.150 6  -4179606.439 9
  22784910.688   -12444624.187 7  -9551211.303 9
 94  3 18  1  4  0.0050000  0  7 12  5  2  9  7 24  4
  23689452.009    -7770870.100 6  -6069003.104 9
  25660342.579     -541729.444 5   -313316.915 9
  23848602.524    -2090327.544 7  -1468461.695 9
  23048765.126   -11403387.787 7  -8753307.921 9
  23185985.196    -5429052.622 7  -3609236.126 9
  24429756.704    -5599987.205 6  -4247792.930 9
  22775782.313   -12492595.513 7  -9588591.540 9
 94  3 18  1  4 30.0050000  0  7 12  5  2  9  7 24  4
  23677233.938    -7835075.763 6  -6119033.477 9
  25647259.352     -610484.542 5   -366892.254 9
  23861908.696    -2020403.746 6  -1413975.648 9
  23041400.618   -11442088.861 7  -8783464.596 9
  23200412.071    -5353241.182 7  -3550162.296 9
  24413109.290    -5687467.368 6  -4315959.246 9
  22766713.204   -12540254.860 7  -9625728.682 9
 94  3 18  1  5  0.0050000  0  7 12  5  2  9  7 24  4
  23665032.712    -7899192.966 6  -6168994.915 9
  25634142.196     -679415.286 5   -420604.469 9
  23875223.493    -1950433.728 7  -1359453.593 9
  23034089.165   -11480509.331 7  -8813402.620 9
  23214836.454    -5277440.211 7  -3491096.616 9
  24396467.462    -5774922.136 6  -4384105.767 9
  22757703.321   -12587600.801 7  -9662621.609 9
 94  3 18  1  5 30.0050000  0  7 12  5  2  9  7 24  4
  23652849.524    -7963216.373 6  -6218883.268 9
  25620991.767     -748521.045 5   -474453.063 9
  23888548.095    -1880412.707 6  -1304891.791 9
  23026833.673   -11518636.383 7  -8843112.000 9
  23229254.892    -5201670.650 7  -3432055.413 9
  24379831.977    -5862341.649 6  -4452224.827 9
  22748757.470   -12634611.278 7  -9699253.128 9
 94  3 18  1  6  0.0050000  0  7 12  5  2  9  7 24  4
  23640681.337    -8027160.164 6  -6268709.585 9
  25607802.735     -817829.541 5   -528459.625 9
  23901882.173    -1810342.650 6  -1250291.778 9
  23019634.009   -11556473.175 7  -8872595.207 9
  23243664.157    -5125949.195 7  -3373051.691 9
  24363203.798    -5949721.934 6  -4520313.314 9
  22739873.485   -12681297.224 7  -9735631.769 9
 94  3 18  1  6 30.0050000  0  7 12  5  2  9  7 24  4
  23628525.813    -8091038.439 6  -6318484.844 9
  25594571.329     -887359.469 5   -582638.733 9
  23915224.485    -1740228.574 6  -1195657.457 9
  23012487.751   -11594025.538 7  -8901856.783 9
  23258061.579    -5050288.168 7  -3314095.059 9
  24346582.727    -6037069.052 6  -4588375.945 9
  22731043.837   -12727696.454 7  -9771786.992 9
 94  3 18  1  7  0.0050000  0  7 12  5  2  9  7 24  4
  23616384.493    -8154841.654 6  -6368201.621 9
  25581301.212     -957094.003 5   -636977.304 9
  23928580.602    -1670040.853 6  -1140965.765 9
  23005396.782   -11631288.881 7  -8930893.143 9
  23272452.095    -4974667.857 7  -3255170.158 9
  24329966.563    -6124384.007 6  -4656413.514 9
  22722267.688   -12773815.337 7  -9807723.758 9
 94  3 18  1  7 30.0050000  0  7 12  5  2  9  7 24  4
  23604257.243    -8218570.279 6  -6417860.272 9
  25567992.399    -1027034.417 5   -691476.289 9
  23941951.946    -1599775.214 6  -1086213.355 9
  22998364.274   -11668244.334 7  -8959689.594 9
  23286836.290    -4899077.534 7  -3196268.622 9
  24313354.438    -6211680.309 6  -4724436.565 9
  22713543.431   -12819661.380 7  -9843447.925 9
 94  3 18  1  8  0.0050000  0  7 12  5  2  9  7 24  4
  23592146.110    -8282214.750 6  -6467453.353 9
  25554644.993    -1097171.754 5   -746128.713 9
  23955339.852    -1529419.943 6  -1031391.110 9
  22991391.595   -11704885.369 7  -8988241.047 9
  23301219.118    -4823495.201 7  -3137373.317 9
  24296746.532    -6298957.284 6  -4792444.550 9
  22704871.728   -12865231.648 7  -9878957.199 9
 94  3 18  1  8 30.0050000  0  7 12  5  2  9  7 24  4
  23580048.462    -8345788.432 6  -6516991.269 9
  25541258.884    -1167515.748 5   -800942.172 9
  23968739.743    -1459003.912 6   -976521.516 9
  22984474.673   -11741235.143 7  -9016565.537 9
  23315598.095    -4747933.091 7  -3078493.766 9
  24280137.735    -6386234.399 6  -4860452.652 9
  22696250.024   -12910537.887 7  -9914260.737 9
 94  3 18  1  9  0.0050000  0  7 12  5  2  9  7 24  4
  23567966.634    -8409278.211 6  -6566463.808 9
  25527836.017    -1238051.730 5   -855905.235 9
  23982149.759    -1388533.133 6   -921609.247 9
  22977614.915   -11777283.351 7  -9044655.046 9
  23329974.493    -4672384.204 7  -3019624.519 9
  24263533.243    -6473494.223 6  -4928447.283 9
  22687684.165   -12955553.069 7  -9949337.476 9
 94  3 18  1  9 30.0050000  0  7 12  5  2  9  7 24  4
  23555901.946    -8472678.747 6  -6615866.808 9
  25514376.735    -1308781.479 5   -911019.273 9
  23995570.360    -1318008.311 6   -866654.868 9
  22970812.376   -11813031.697 7  -9072510.894 9
  23344346.993    -4596859.095 7  -2960773.808 9
  24246934.454    -6560720.449 6  -4996415.733 9
  22679175.657   -13000263.680 7  -9984176.879 9
 94  3 18  1 10  0.0050000  0  7 12  5  2  9  7 24  4
  23543854.821    -8535986.535 6  -6665197.538 9
  25500880.665    -1379708.798 5   -966287.288 9
  24008999.259    -1247438.292 6   -811665.267 9
  22964061.806   -11848505.415 7  -9100152.745 9
  23358713.032    -4521363.837 7  -2901946.352 9
  24230344.657    -6647899.684 6  -5064347.567 9
  22670729.470   -13044651.105 7 -10018764.458 9
 94  3 18  1 10 30.0050000  0  7 12  5  2  9  7 24  4
  23531825.899    -8599198.955 6  -6714453.951 9
  25487345.165    -1450834.745 5  -1021710.055 9
  24022437.399    -1176823.030 6   -756640.421 9
  22957364.282   -11883700.696 7  -9127577.635 9
  23373072.157    -4445907.139 7  -2843148.946 9
  24213765.181    -6735024.768 6  -5132237.212 9
  22662345.267   -13088710.066 7 -10053096.088 9
 94  3 18  1 11  0.0050000  0  7 12  5  2  9  7 24  4
  23519816.118    -8662310.074 6  -6763631.431 9
  25473771.321    -1522163.728 5  -1077291.061 9
  24035886.001    -1106148.968 6   -701569.755 9
  22950724.704   -11918591.278 7  -9154765.097 9
  23387421.720    -4370498.003 7  -2784388.595 9
  24197196.438    -6822094.174 6  -5200083.467 9
  22654025.095   -13132432.212 7 -10087165.268 9
 94  3 18  1 11 30.0050000  0  7 12  5  2  9  7 24  4
  23507827.649    -8725309.754 6  -6812722.068 9
  25460159.438    -1593696.096 5  -1133030.527 9
  24049349.696    -1035397.219 6   -646438.546 9
  22944145.743   -11953164.570 7  -9181705.321 9
  23401763.876    -4295128.520 7  -2725659.142 9
  24180639.040    -6909104.104 6  -5267883.375 9
  22645772.392   -13175800.983 7 -10120959.087 9
 94  3 18  1 12  0.0050000  0  7 12  5  2  9  7 24  4
  23495862.001    -8788190.213 6  -6861719.813 9
  25446509.970    -1665427.396 5  -1188924.999 9
  24062827.767     -964570.620 6   -591249.011 9
  22937631.157   -11987399.577 7  -9208381.942 9
  23416102.563    -4219779.097 7  -2666945.325 9
  24164094.509    -6996047.534 6  -5335631.468 9
  22637586.751   -13218814.902 7 -10154476.401 9
 94  3 18  1 12 30.0050000  0  7 12  5  2  9  7 24  4
  23483919.720    -8850947.780 6  -6910621.799 9
  25432822.556    -1737352.406 5  -1244970.404 9
  24076321.626     -893658.455 6   -535992.798 9
  22931185.126   -12021272.316 7  -9234776.283 9
  23430437.884    -4144447.593 7  -2608245.471 9
  24147563.509    -7082917.316 6  -5403322.173 9
  22629466.509   -13261487.246 7 -10187727.554 9
 94  3 18  1 13  0.0050000  0  7 12  5  2  9  7 24  4
  23472002.079    -8913575.033 6  -6959422.238 9
  25419103.110    -1809449.815 5  -1301150.185 9
  24089832.102     -822659.381 6   -480668.876 9
  22924807.954   -12054785.687 7  -9260890.595 9
  23444770.446    -4069130.177 7  -2549556.596 9
  24131049.087    -7169701.438 6  -5470946.134 9
  22621411.899   -13303814.062 7 -10220709.469 9
 94  3 18  1 13 30.0050000  0  7 12  5  2  9  7 24  4
  23460110.290    -8976067.474 6  -7008117.635 9
  25405350.970    -1881715.658 5  -1357461.191 9
  24103359.110     -751574.643 6   -425278.196 9
  22918493.806   -12087966.412 7  -9286745.704 9
  23459099.845    -3993827.646 7  -2490879.320 9
  24114551.798    -7256393.363 6  -5538498.242 9
  22613422.720   -13345798.749 7 -10253424.787 9
 94  3 18  1 14  0.0050000  0  7 12  5  2  9  7 24  4
  23448244.313    -9038422.994 6  -7056706.340 9
  25391567.657    -1954145.981 5  -1413900.396 9
  24116902.188     -680405.680 6   -369821.889 9
  22912243.462   -12120811.603 7  -9312339.357 9
  23473422.657    -3918558.998 7  -2432228.438 9
  24098072.352    -7342995.631 6  -5605980.500 9
  22605495.579   -13387455.810 7 -10285884.799 9
 94  3 18  1 14 30.0050000  0  7 12  5  2  9  7 24  4
  23436405.626    -9100635.283 6  -7105183.431 9
  25377753.642    -2026740.955 5  -1470467.890 9
  24130461.946     -609150.412 6   -314298.336 9
  22906055.790   -12153328.420 7  -9337677.137 9
  23487736.782    -3843337.567 7  -2373614.347 9
  24081610.345    -7429502.516 6  -5673388.434 9
  22597632.985   -13428773.862 7 -10318080.667 9
 94  3 18  1 15  0.0050000  0  7 12  5  2  9  7 24  4
  23424595.142    -9162700.209 6  -7153545.700 9
  25363906.345    -2099509.616 5  -1527170.728 9
  24144035.673     -537819.121 6   -258715.541 9
  22899928.579   -12185527.202 7  -9362767.096 9
  23502040.907    -3768167.472 7  -2315040.260 9
  24065166.290    -7515916.699 6  -5740724.140 9
  22589838.454   -13469734.102 7 -10349997.713 9
 94  3 18  1 15 30.0050000  0  7 12  5  2  9  7 24  4
  23412814.243    -9224608.638 6  -7201786.023 9
  25350023.282    -2172465.109 5  -1584019.141 9
  24157624.290     -466409.663 6   -203071.828 9
  22893865.688   -12217387.598 7  -9387593.379 9
  23516337.040    -3693043.001 7  -2256501.717 9
  24048741.345    -7602230.562 6  -5807981.671 9
  22582113.298   -13510330.816 7 -10381631.487 9
 94  3 18  1 16  0.0050000  0  7 12  5  2  9  7 24  4
  23401064.509    -9286353.681 6  -7249899.032 9
  25336108.095    -2245588.539 5  -1640998.396 9
  24171228.860     -394916.615 6   -147362.986 9
  22887871.931   -12248884.342 7  -9412136.298 9
  23530627.751    -3617946.734 7  -2197985.158 9
  24032338.345    -7688427.966 6  -5875148.457 9
  22574458.876   -13550553.971 7 -10412974.180 9
 94  3 18  1 16 30.0050000  0  7 12  5  2  9  7 24  4
  23389346.017    -9347934.877 6  -7297884.367 9
  25322162.313    -2318874.387 5  -1698104.243 9
  24184849.134     -323343.207 6    -91591.531 9
  22881945.892   -12280025.973 7  -9436402.503 9
  23544915.188    -3542865.328 7  -2139480.176 9
  24015960.470    -7774495.263 6  -5942213.863 9
  22566877.087   -13590396.746 7 -10444020.475 9
 94  3 18  1 17  0.0050000  0  7 12  5  2  9  7 24  4
  23377660.282    -9409343.523 6  -7345735.245 9
  25308186.751    -2392313.806 5  -1755329.744 9
  24198486.337     -251676.801 6    -35747.606 9
  22876092.423   -12310786.051 7  -9460371.394 9
  23559202.102    -3467786.431 7  -2080977.146 9
  23999607.415    -7860430.320 6  -6009176.224 9
  22559368.743   -13629852.970 7 -10474765.562 9
 94  3 18  1 17 30.0050000  0  7 12  5  2  9  7 24  4
  23366008.602    -9470573.326 6  -7393446.767 9
  25294186.860    -2465883.768 5  -1812656.958 9
  24212144.157     -179904.594 6     20178.758 9
  22870314.204   -12341151.218 7  -9484032.563 9
  23573488.993    -3392707.228 7  -2022473.876 9
  23983280.204    -7946230.327 6  -6076033.346 9
  22551931.899   -13668933.039 7 -10505217.535 9
 94  3 18  1 18  0.0050000  0  7 12  5  2  9  7 24  4
  23354390.798    -9531625.170 6  -7441019.621 9
  25280162.821    -2539582.555 5  -1870084.547 9
  24225824.235     -108016.509 6     76195.416 9
  22864607.556   -12371140.565 7  -9507400.885 9
  23587775.626    -3317630.211 7  -1963972.303 9
  23966975.251    -8031912.269 6  -6142798.463 9
  22544566.798   -13707637.777 7 -10535377.042 9
 94  3 18  1 18 30.0050000  0  7 12  5  2  9  7 24  4
  23342807.899    -9592493.944 6  -7488449.820 9
  25266111.868    -2613418.967 5  -1927619.385 9
  24239525.806      -36014.591 6    132300.771 9
  22858970.767   -12400761.648 7  -9530482.254 9
  23602061.001    -3242561.432 7  -1905477.155 9
  23950690.743    -8117488.531 6  -6209481.249 9
  22537272.642   -13745968.189 7 -10565244.870 9
 94  3 18  1 19  0.0050000  0  7 12  5  2  9  7 24  4
  23331260.626    -9653175.135 6  -7535733.855 9
  25252035.735    -2687389.934 5  -1985259.073 9
  24253248.892       36099.601 6    188493.607 9
  22853404.610   -12430011.625 7  -9553274.446 9
  23616343.540    -3167506.537 7  -1846992.828 9
  23934425.274    -8202963.845 6  -6276085.356 9
  22530048.626   -13783930.512 7 -10594825.883 9
 94  3 18  1 19 30.0050000  0  7 12  5  2  9  7 24  4
  23319753.212    -9713646.461 6  -7582854.354 9
  25237939.829    -2761465.929 5  -2042980.585 9
  24266997.290      108348.697 6    244791.575 9
  22847908.704   -12458893.963 7  -9575780.162 9
  23630626.649    -3092448.802 7  -1788506.298 9
  23918185.665    -8288303.857 6  -6342584.026 9
  22522897.993   -13821506.454 7 -10624105.806 9
 94  3 18  1 20  0.0050000  0  7 12  5  2  9  7 24  4
  23308285.673    -9773908.520 6  -7629811.789 9
  25223819.767    -2835666.356 6  -2100799.067 9
  24280769.173      180720.450 6    301185.116 9
  22842483.509   -12487402.865 7  -9597994.893 9
  23644910.157    -3017387.847 7  -1730017.253 9
  23901974.446    -8373493.843 6  -6408965.794 9
  22515822.954   -13858686.118 7 -10653076.946 9
 94  3 18  1 20 30.0050000  0  7 12  5  2  9  7 24  4
  23296859.696    -9833952.585 6  -7676599.354 9
  25209680.915    -2909967.814 6  -2158696.275 9
  24294562.790      253206.280 6    357667.547 9
  22837134.970   -12515508.960 7  -9619895.743 9
  23659195.556    -2942316.620 7  -1671520.204 9
  23885798.657    -8458499.827 6  -6475204.172 9
  22508825.837   -13895455.456 7 -10681728.351 9
 94  3 18  1 21  0.0050000  0  7 12  5  2  9  7 24  4
  23285475.806    -9893775.632 6  -7723214.708 9
  25195521.415    -2984373.360 5  -2216674.590 9
  24308379.798      325814.582 6    414245.412 9
  22831864.688   -12543205.134 7  -9641477.175 9
  23673483.751    -2867230.583 7  -1613011.612 9
  23869659.126    -8543311.262 6  -6541290.956 9
  22501909.524   -13931801.181 7 -10710049.665 9
 94  3 18  1 21 30.0050000  0  7 12  5  2  9  7 24  4
  23274137.095    -9953360.866 6  -7769644.750 9
  25181344.048    -3058880.510 5  -2274732.062 9
  24322223.634      398565.034 6    470934.042 9
  22826676.806   -12570468.145 7  -9662721.086 9
  23687779.142    -2792109.623 7  -1554475.812 9
  23853561.110    -8627907.509 6  -6607210.053 9
  22495078.603   -13967698.818 7 -10738021.812 9
 94  3 18  1 22  0.0050000  0  7 12  5  2  9  7 24  4
  23262843.329   -10012709.773 6  -7815890.642 9
  25167145.587    -3133489.725 5  -2332869.063 9
  24336092.860      471446.251 6    527724.579 9
  22821572.946   -12597288.121 7  -9683619.758 9
  23702079.931    -2716959.391 7  -1495917.206 9
  23837501.056    -8712302.989 6  -6672972.710 9
  22488332.712   -14003147.650 7 -10765644.253 9
 94  3 18  1 22 30.0050000  0  7 12  5  2  9  7 24  4
  23251596.274   -10071813.602 6  -7861945.564 9
  25152932.290    -3208185.662 6  -2391073.637 9
  24349989.821      544475.383 6    584630.363 9
  22816552.040   -12623673.197 7  -9704179.560 9
  23716385.071    -2641786.881 7  -1437341.243 9
  23821478.173    -8796504.139 6  -6738583.939 9
  22481674.173   -14038139.391 7 -10792910.518 9
 94  3 18  1 23  0.0050000  0  7 12  5  2  9  7 24  4
  23240397.306   -10130664.510 6  -7907803.406 9
  25138696.602    -3282988.637 5  -2449361.611 9
  24363916.602      617661.892 6    641658.776 9
  22811614.462   -12649621.790 7  -9724399.239 9
  23730692.829    -2566597.768 7  -1378752.338 9
  23805491.899    -8880513.561 6  -6804045.758 9
  22475103.142   -14072668.221 7 -10819816.071 9
 94  3 18  1 23 30.0050000  0  7 12  5  2  9  7 24  4
  23229247.868   -10189255.381 6  -7953458.619 9
  25124444.196    -3357885.357 5  -2507722.661 9
  24377872.282      690999.770 6    698805.149 9
  22806762.259   -12675118.613 7  -9744266.891 9
  23745002.915    -2491395.760 7  -1320153.385 9
  23789544.095    -8964317.314 6  -6869347.324 9
  22468620.610   -14106736.281 7 -10846362.588 9
 94  3 18  1 24  0.0050000  0  7 12  5  2  9  7 24  4
  23218148.251   -10247583.945 6  -7998909.439 9
  25110173.001    -3432884.246 5  -2566163.300 9
  24391857.524      764492.293 6    756072.018 9
  22801997.548   -12700158.021 7  -9763778.120 9
  23759313.470    -2416193.537 7  -1261554.262 9
  23773635.876    -9047917.296 6  -6934490.104 9
  22462224.173   -14140349.150 7 -10872554.402 9
 94  3 18  1 24 30.0050000  0  7 12  5  2  9  7 24  4
  23207100.696   -10305638.839 6  -8044147.009 9
  25095878.767    -3507996.536 5  -2624692.319 9
  24405875.423      838157.487 6    813473.442 9
  22797321.438   -12724730.517 7  -9782925.516 9
  23773626.032    -2340981.177 7  -1202947.239 9
  23757770.532    -9131289.392 6  -6999455.316 9
  22455914.696   -14173504.586 7 -10898389.769 9
 94  3 18  1 25  0.0050000  0  7 12  5  2  9  7 24  4
  23196104.251   -10363426.045 6  -8089175.990 9
  25081562.790    -3583227.299 5  -2683313.641 9
  24419923.806      911981.339 6    870998.491 9
  22792733.626   -12748840.504 7  -9801712.516 9
  23787940.688    -2265758.070 7  -1144331.853 9
  23741948.227    -9214435.061 6  -7064244.078 9
  22449688.759   -14206221.956 7 -10923883.790 9
 94  3 18  1 25 30.0050000  0  7 12  5  2  9  7 24  4
  23185160.235   -10420937.228 6  -8133989.886 9
  25067229.360    -3658552.515 5  -2742008.561 9
  24434004.649      985977.183 6    928657.559 9
  22788232.798   -12772491.747 7  -9820142.052 9
  23802258.673    -2190517.191 7  -1085702.607 9
  23726168.470    -9297357.414 6  -7128858.843 9
  22443547.017   -14238496.854 7 -10949033.030 9
 94  3 18  1 26  0.0050000  0  7 12  5  2  9  7 24  4
  23174269.595   -10478167.511 6  -8178584.900 9
  25052878.868    -3733966.194 5  -2800772.410 9
  24448120.337     1060154.139 6    986457.766 9
  22783817.227   -12795696.036 7  -9838223.313 9
  23816580.149    -2115257.638 7  -1027058.816 9
  23710431.462    -9380057.650 6  -7193300.525 9
  22437491.165   -14270319.530 7 -10973829.900 9
 94  3 18  1 26 30.0050000  0  7 12  5  2  9  7 24  4
  23163433.704   -10535110.432 6  -8222955.989 9
  25038517.220    -3809436.812 6  -2859580.645 9
  24462269.212     1134508.438 6   1044396.140 9
  22779485.345   -12818459.567 7  -9855961.123 9
  23830906.985    -2039967.430 7   -968391.130 9
  23694736.485    -9462532.920 6  -7257566.920 9
  22431522.634   -14301685.641 7 -10998270.991 9
 94  3 18  1 27  0.0050000  0  7 12  5  2  9  7 24  4
  23152652.681   -10591765.410 6  -8267102.709 9
  25024147.274    -3884949.191 6  -2918421.408 9
  24476451.704     1209036.534 6   1102469.958 9
  22775238.962   -12840774.316 7  -9873349.236 9
  23845238.384    -1964653.840 7   -909705.224 9
  23679080.602    -9544805.315 6  -7321675.220 9
  22425640.876   -14332593.595 7 -11022355.082 9
 94  3 18  1 27 30.0050000  0  7 12  5  2  9  7 24  4
  23141928.524   -10648121.249 6  -8311016.329 9
  25009772.227    -3960491.175 6  -2977285.255 9
  24490670.071     1283755.757 6   1160692.709 9
  22771081.251   -12862625.128 7  -9890375.838 9
  23859575.845    -1889310.076 7   -850995.801 9
  23663465.376    -9626865.160 6  -7385617.912 9
  22419850.017   -14363024.736 7 -11046067.636 9
 94  3 18  1 28  0.0050000  0  7 12  5  2  9  7 24  4
  23131261.579   -10704176.356 6  -8354695.618 9
  24995392.282    -4036060.467 6  -3036170.379 9
  24504923.329     1358656.952 6   1219057.241 9
  22767012.165   -12884008.738 7  -9907038.387 9
  23873919.532    -1813934.453 7   -792261.558 9
  23647894.821    -9708687.188 6  -7449375.295 9
  22414148.618   -14392986.331 7 -11069414.309 9
 94  3 18  1 28 30.0050000  0  7 12  5  2  9  7 24  4
  23120653.282   -10759922.140 6  -8398133.871 9
  24981007.102    -4111654.344 6  -3095074.663 9
  24519210.595     1433736.463 6   1277560.726 9
  22763034.259   -12904910.828 7  -9923325.724 9
  23888269.985    -1738523.813 7   -733500.023 9
  23632371.829    -9790262.062 6  -7512940.086 9
  22408536.962   -14422475.695 7 -11092392.993 9
 94  3 18  1 29  0.0050000  0  7 12  5  2  9  7 24  4
  23110103.040   -10815364.317 6  -8441335.547 9
  24966614.665    -4187286.693 6  -3154008.929 9
  24533529.759     1508983.465 6   1336194.731 9
  22759147.352   -12925337.301 7  -9939242.453 9
  23902623.399    -1663095.811 7   -674724.974 9
  23616897.751    -9871577.820 6  -7576302.974 9
  22403017.610   -14451480.148 7 -11114993.835 9
 94  3 18  1 29 30.0050000  0  7 12  5  2  9  7 24  4
  23099613.173   -10870488.941 6  -8484289.777 9
  24952215.946    -4262949.588 6  -3212966.999 9
  24547879.196     1584390.274 6   1394953.159 9
  22755349.704   -12945292.894 7  -9954792.262 9
  23916983.345    -1587633.326 7   -615923.043 9
  23601483.220    -9952582.859 7  -7639423.742 9
  22397593.470   -14479983.668 7 -11137204.353 9
 94  3 18  1 30  0.0050000  0  7 12  5  2  9  7 24  4
  23089186.110   -10925283.166 6  -8526986.555 9
  24937811.806    -4338643.458 6  -3271949.219 9
  24562257.173     1659946.639 6
  22751644.392   -12964763.633 7  -9969964.264 9
  23931352.032    -1512123.570 7   -557084.271 9
  23586129.767   -10033264.644 7  -7702292.616 9
  22392267.595   -14507971.815 7 -11159013.265 9
 94  3 18  1 30 30.0050000  0  7 12  5  2  9  7 24  4
  23078817.423   -10979770.779 6  -8569444.420 9
  24923396.235    -4414400.114 6  -3330980.357 9
  24576659.548     1735632.723 6     25565.43719
  22748027.876   -12983768.973 7  -9984773.622 9
  23945724.806    -1436593.269 7   -498229.491 9
  23570829.352   -10113669.219 7  -7764945.486 9
  22387037.993   -14535452.236 7 -11180426.558 9
 94  3 18  1 31  0.0050000  0  7 12  5  2  9  7 24  4
  23068508.415   -11033944.764 6  -8611657.898 9
  24908969.063    -4490213.231 6  -3390055.484 9
  24591089.571     1811461.532 6     84652.794 9
  22744502.579   -13002296.226 7  -9999210.439 9
  23960102.915    -1361035.648 7   -439353.426 9
  23555582.767   -10193790.197 7  -7827377.368 9
  22381906.774   -14562417.368 7 -11201438.331 9
 94  3 18  1 31 30.0050000  0  7 12  5  2  9  7 24  4
  23058261.845   -11087791.345 6  -8653616.260 9
  24894531.493    -4566083.077 6  -3449174.825 9
  24605547.540     1887439.890 6    143856.669 9
  22741070.806   -13020330.351 7 -10013263.007 9
  23974488.423    -1285440.861 7   -380448.401 9
  23540389.907   -10273628.519 7  -7889589.003 9
  22376870.181   -14588885.265 7 -11222062.649 9
 94  3 18  1 32  0.0050000  0  7 12  5  2  9  7 24  4
  23048077.407   -11141310.593 6  -8695319.555 9
  24880083.337    -4642008.690 6  -3508337.633 9
  24620036.946     1963583.753 6    203189.524 9
  22737734.634   -13037861.922 7 -10026923.973 9
  23988877.759    -1209826.531 7   -321528.146 9
  23525245.743   -10353211.021 7  -7951601.291 9
  22371926.837   -14614861.930 7 -11242304.184 9
 94  3 18  1 32 30.0050000  0  7 12  5  2  9  7 24  4
  23037956.376   -11194496.710 6  -8736763.272 9
  24865626.470    -4717980.647 6  -3567536.531 9
  24634562.368     2039912.641 6    262666.551 9
  22734493.602   -13054893.262 7 -10040195.148 9
  24003269.017    -1134199.333 7   -262597.870 9
  23510151.837   -10432529.201 7  -8013407.620 9
  22367076.118   -14640353.406 7 -11262167.659 9
 94  3 18  1 33  0.0050000  0  7 12  5  2  9  7 24  4
  23027899.024   -11247348.276 6  -8777946.300 9
  24851159.477    -4794007.177 6  -3626777.968 9
  24649121.134     2116420.563 6    322283.086 9
  22731346.360   -13071430.635 7 -10053081.416 9
  24017661.306    -1058565.985 7   -203662.805 9
  23495111.345   -10511567.490 7  -8074995.856 9
  22362313.704   -14665379.994 7 -11281668.872 9
 94  3 18  1 33 30.0050000  0  7 12  5  2  9  7 24  4
  23017904.524   -11299869.966 6  -8818872.286 9
  24836680.587    -4870091.149 6  -3686064.158 9
  24663716.603     2193119.340 6    382048.333 9
  22728290.368   -13087490.515 7 -10065595.612 9
  24032052.462     -982937.361 6   -144731.413 9
  23480122.727   -10590333.591 7  -8136371.990 9
  22357638.360   -14689947.510 7 -11300812.372 9
 94  3 18  1 34  0.0050000  0  7 12  5  2  9  7 24  4
  23007974.517   -11352052.399 6  -8859533.909 9
  24822194.712    -4946216.306 6  -3745382.442 9
  24678352.056     2270029.011 6    441977.914 9
  22725325.899   -13103068.594 7 -10077734.372 9
  24046445.954     -907299.221 6    -85792.601 9
  23465187.407   -10668819.374 7  -8197529.699 9
  22353057.204   -14714023.461 7 -11319572.839 9
 94  3 18  1 34 30.0050000  0  7 12  5  2  9  7 24  4
  22998109.688   -11403892.070 6  -8899928.452 9
  24807699.337    -5022388.808 6  -3804737.612 9
  24693027.767     2347150.356 6    502072.431 9
  22722453.110   -13118165.356 7 -10089498.085 9
  24060842.610     -831647.366 6    -26843.106 9
  23450306.806   -10747016.769 7  -8258462.685 9
  22348570.946   -14737597.721 7 -11337942.366 9
 94  3 18  1 35  0.0050000  0  7 12  5  2  9  7 24  4
  22988309.813   -11455390.815 6  -8940057.336 9
  24793196.149    -5098603.525 6  -3864125.678 9
  24707742.118     2424477.812 6    562327.565 9
  22719673.118   -13132775.326 7 -10100882.474 9
  24075241.360     -755982.529 7     32116.500 9
  23435481.235   -10824925.550 7  -8319170.787 9
  22344182.212   -14760660.719 7 -11355913.506 9
